[[{"header":{"parameterUnit":"m.s-1","parameterCategory":1,"la1":31.0,"la2":29.5877,"lo1":-88.7671,"lo2":-86.6584,"dy":0.0162,"dx":0.0185,"nx":115,"ny":88,"refTime":"2024-07-05T18:00:00:Z","depth":0,"parameterNumber":2,"parameterNumberName":"U-component_of_WINDS"},"data":[0.0,0.0,0.0,0.0,0.0,0.0,0.0,0.0,0.0,0.0,0.0,0.0,0.0,0.0,0.0,0.0,0.0,0.0,0.0,0.0,0.0,0.0,0.0,0.0,0.0,0.0,0.0,0.0,0.0,0.0,0.0,0.0,0.0,0.0,0.0,0.0,0.0,0.0,0.0,0.0,0.0,0.0,0.0,0.0,0.0,0.0,0.0,0.0,0.0,0.0,0.0,0.0,0.0,0.0,0.0,0.0,0.0,0.0,0.0,0.0,0.0,0.0,0.0,0.0,0.0,0.0,0.0,0.0,0.0,0.0,0.0,0.0,0.0,0.0,0.0,0.0,0.0,0.0,0.0,0.0,0.0,0.0,0.0,0.0,0.0,0.0,0.0,0.0,0.0,0.0,0.0,0.0,0.0,0.0,0.0,0.0,0.0,0.0,0.0,0.0,0.0,0.0,0.0,0.0,0.0,0.0,0.0,0.0,0.0,0.0,0.0,0.0,0.0,0.0,0.0,0.0,0.0,0.0,0.0,0.0,0.0,0.0,0.0,0.0,0.0,0.0,0.0,0.0,0.0,0.0,0.0,0.0,0.0,0.0,0.0,0.0,0.0,0.0,0.0,0.0,0.0,0.0,0.0,0.0,0.0,0.0,0.0,0.0,0.0,0.0,0.0,0.0,0.0,0.0,0.0,0.0,0.0,0.0,0.0,0.0,0.0,0.0,0.0,0.0,0.0,0.0,0.0,0.0,0.0,0.0,0.0,0.0,0.0,0.0,0.0,0.0,0.0,0.0,0.0,0.0,0.0,0.0,0.0,0.0,0.0,0.0,0.0,0.0,0.0,0.0,0.0,0.0,0.0,0.0,0.0,0.0,0.0,0.0,0.0,0.0,0.0,0.0,0.0,0.0,0.0,0.0,0.0,0.0,0.0,0.0,0.0,0.0,0.0,0.0,0.0,0.0,0.0,0.0,0.0,0.0,0.0,0.0,0.0,0.0,0.0,0.0,0.0,0.0,0.0,0.0,0.0,0.0,0.0,0.0,0.0,0.0,0.0,0.0,0.0,0.0,0.0,0.0,0.0,0.0,0.0,0.0,0.0,0.0,0.0,0.0,0.0,0.0,0.0,0.0,0.0,0.0,0.0,0.0,0.0,0.0,0.0,0.0,0.0,0.0,0.0,0.0,0.0,0.0,0.0,0.0,0.0,0.0,0.0,0.0,0.0,0.0,0.0,0.0,0.0,0.0,0.0,0.0,0.0,0.0,0.0,0.0,0.0,0.0,0.0,0.0,0.0,0.0,0.0,0.0,0.0,0.0,0.0,0.0,0.0,0.0,0.0,0.0,0.0,0.0,0.0,0.0,0.0,0.0,0.0,0.0,0.0,0.0,0.0,0.0,0.0,0.0,0.0,0.0,0.0,0.0,0.0,0.0,0.0,0.0,0.0,0.0,0.0,0.0,0.0,0.0,0.0,0.0,0.0,0.0,0.0,0.0,0.0,0.0,0.0,0.0,0.0,0.0,0.0,0.0,0.0,0.0,0.0,0.0,0.0,0.0,0.0,0.0,0.0,0.0,0.0,0.0,0.0,0.0,0.0,0.0,0.0,0.0,0.0,0.0,0.0,0.0,0.0,0.0,0.0,0.0,0.0,0.0,0.0,0.0,0.0,0.0,0.0,0.0,0.0,0.0,0.0,0.0,0.0,0.0,0.0,0.0,0.0,0.0,0.0,0.0,0.0,0.0,0.0,0.0,0.0,0.0,0.0,0.0,0.0,0.0,0.0,0.0,0.0,0.0,0.0,0.0,0.0,0.0,0.0,0.0,0.0,0.0,0.0,0.0,0.0,0.0,0.0,0.0,0.0,0.0,0.0,0.0,0.0,0.0,0.0,0.0,0.0,0.0,0.0,0.0,0.0,0.0,0.0,0.0,0.0,0.0,0.0,0.0,0.0,0.0,0.0,0.0,0.0,0.0,0.0,0.0,0.0,0.0,0.0,0.0,0.0,0.0,0.0,0.0,0.0,0.0,0.0,0.0,0.0,0.0,0.0,0.0,0.0,0.0,0.0,0.0,0.0,0.0,0.0,0.0,0.0,0.0,0.0,0.0,0.0,0.0,0.0,0.0,0.0,0.0,0.0,0.0,0.0,0.0,0.0,0.0,0.0,0.0,0.0,0.0,0.0,0.0,0.0,0.0,0.0,0.0,0.0,0.0,0.0,0.0,0.0,0.0,0.0,0.0,0.0,0.0,0.0,0.0,0.0,0.0,0.0,0.0,0.0,0.0,0.0,0.0,0.0,0.0,0.0,0.0,0.0,0.0,0.0,0.0,0.0,0.0,0.0,0.0,0.0,0.0,0.0,0.0,0.0,0.0,0.0,0.0,0.0,0.0,0.0,0.0,0.0,0.0,0.0,0.0,0.0,0.0,0.0,0.0,0.0,0.0,0.0,0.0,0.0,0.0,0.0,0.0,0.0,0.0,0.0,0.0,0.0,0.0,0.0,0.0,0.0,0.0,0.0,0.0,0.0,0.0,0.0,0.0,0.0,0.0,0.0,0.0,0.0,0.0,0.0,0.0,0.0,0.0,0.0,0.0,0.0,0.0,0.0,0.0,0.0,0.0,0.0,0.0,0.0,0.0,0.0,0.0,0.0,0.0,0.0,0.0,0.0,0.0,0.0,0.0,0.0,0.0,0.0,0.0,0.0,0.0,0.0,0.0,0.0,0.0,0.0,0.0,0.0,0.0,0.0,0.0,0.0,0.0,0.0,0.0,0.0,0.0,0.0,0.0,0.0,0.0,0.0,0.0,0.0,0.0,0.0,0.0,0.0,0.0,0.0,0.0,0.0,0.0,0.0,0.0,0.0,0.0,0.0,0.0,0.0,0.0,0.0,0.0,0.0,0.0,0.0,0.0,0.0,0.0,0.0,0.0,0.0,0.0,0.0,0.0,0.0,0.0,0.0,0.0,0.0,0.0,0.0,0.0,0.0,0.0,0.0,0.0,0.0,0.0,0.0,0.0,0.0,0.0,0.0,0.0,0.0,0.0,0.0,0.0,0.0,0.0,0.0,0.0,0.0,0.0,0.0,0.0,0.0,0.0,0.0,0.0,0.0,0.0,0.0,0.0,0.0,0.0,0.0,0.0,0.0,0.0,0.0,0.0,0.0,0.0,0.0,0.0,0.0,0.0,0.0,0.0,0.0,0.0,0.0,0.0,0.0,0.0,0.0,0.0,0.0,0.0,0.0,0.0,0.0,0.0,0.0,0.0,0.0,0.0,0.0,0.0,0.0,0.0,0.0,0.0,0.0,0.0,0.0,0.0,0.0,0.0,0.0,0.0,0.0,0.0,0.0,0.0,0.0,0.0,0.0,0.0,0.0,0.0,0.0,0.0,0.0,0.0,0.0,0.0,0.0,0.0,0.0,0.0,0.0,0.0,0.0,0.0,0.0,0.0,0.0,0.0,0.0,0.0,0.0,0.0,0.0,0.0,0.0,0.0,0.0,0.0,0.0,0.0,0.0,0.0,0.0,0.0,0.0,0.0,0.0,0.0,0.0,0.0,0.0,0.0,0.0,0.0,0.0,0.0,0.0,0.0,0.0,0.0,0.0,0.0,0.0,0.0,0.0,0.0,0.0,0.0,0.0,0.0,0.0,0.0,0.0,0.0,0.0,0.0,0.0,0.0,0.0,0.0,0.0,0.0,0.0,0.0,0.0,0.0,0.0,0.0,0.0,0.0,0.0,0.0,0.0,0.0,0.0,0.0,0.0,0.0,0.0,0.0,0.0,0.0,0.0,0.0,0.0,0.0,0.0,0.0,0.0,0.0,0.0,0.0,0.0,0.0,0.0,0.0,0.0,0.0,0.0,0.0,0.0,0.0,0.0,0.0,0.0,0.0,0.0,0.0,0.0,0.0,0.0,0.0,0.0,0.0,0.0,0.0,0.0,0.0,0.0,0.0,0.0,0.0,0.0,0.0,0.0,0.0,0.0,0.0,0.0,0.0,0.0,0.0,0.0,0.0,0.0,0.0,0.0,0.0,0.0,0.0,0.0,0.0,0.0,0.0,0.0,0.0,0.0,0.0,0.0,0.0,0.0,0.0,0.0,0.0,0.0,0.0,0.0,0.0,0.0,0.0,0.0,0.0,0.0,0.0,0.0,0.0,0.0,0.0,0.0,0.0,0.0,0.0,0.0,0.0,0.0,0.0,0.0,0.0,0.0,0.0,0.0,0.0,0.0,0.0,0.0,0.0,0.0,0.0,0.0,0.0,0.0,0.0,0.0,0.0,-2.3667,0.0,0.0,0.0,0.0,0.0,0.0,0.0,0.0,0.0,0.0,0.0,0.0,0.0,0.0,0.0,0.0,0.0,0.0,0.0,0.0,0.0,0.0,0.0,0.0,0.0,0.0,0.0,0.0,0.0,0.0,0.0,0.0,0.0,0.0,0.0,0.0,0.0,0.0,0.0,0.0,0.0,0.0,0.0,0.0,0.0,0.0,0.0,0.0,0.0,0.0,0.0,0.0,0.0,0.0,0.0,0.0,0.0,0.0,0.0,0.0,0.0,0.0,0.0,0.0,0.0,0.0,0.0,0.0,0.0,0.0,0.0,0.0,0.0,0.0,0.0,0.0,0.0,0.0,0.0,0.0,0.0,0.0,0.0,0.0,0.0,0.0,0.0,0.0,0.0,0.0,0.0,0.0,0.0,0.0,0.0,0.0,0.0,0.0,0.0,0.0,0.0,0.0,0.0,0.0,0.0,0.0,0.0,0.0,0.0,0.0,-2.4929,-2.3982,-2.4709,-2.4599,-2.3473,0.0,0.0,0.0,0.0,0.0,0.0,0.0,0.0,0.0,0.0,0.0,0.0,0.0,0.0,0.0,0.0,0.0,0.0,0.0,0.0,0.0,0.0,0.0,0.0,0.0,0.0,0.0,0.0,0.0,0.0,0.0,0.0,0.0,0.0,0.0,0.0,0.0,0.0,0.0,0.0,0.0,0.0,0.0,0.0,0.0,0.0,0.0,0.0,0.0,0.0,0.0,0.0,0.0,0.0,0.0,0.0,0.0,0.0,0.0,0.0,0.0,0.0,0.0,0.0,0.0,0.0,0.0,0.0,0.0,0.0,0.0,0.0,0.0,0.0,0.0,0.0,0.0,0.0,0.0,0.0,0.0,0.0,0.0,0.0,0.0,0.0,0.0,0.0,0.0,0.0,0.0,0.0,0.0,0.0,0.0,0.0,0.0,0.0,0.0,0.0,0.0,0.0,0.0,0.0,0.0,0.0,0.0,0.0,0.0,0.0,0.0,0.0,-2.4958,-2.4719,-2.3531,0.0,0.0,0.0,0.0,0.0,0.0,0.0,0.0,0.0,0.0,0.0,0.0,0.0,0.0,0.0,0.0,0.0,0.0,0.0,0.0,0.0,0.0,0.0,0.0,0.0,0.0,0.0,0.0,0.0,0.0,0.0,0.0,0.0,0.0,0.0,0.0,0.0,0.0,0.0,0.0,0.0,0.0,0.0,0.0,0.0,0.0,0.0,0.0,0.0,0.0,0.0,0.0,0.0,0.0,0.0,0.0,0.0,0.0,0.0,0.0,0.0,0.0,0.0,0.0,0.0,0.0,0.0,0.0,0.0,0.0,0.0,0.0,0.0,0.0,0.0,0.0,0.0,0.0,0.0,0.0,0.0,0.0,0.0,0.0,0.0,0.0,0.0,0.0,0.0,0.0,0.0,0.0,0.0,0.0,0.0,0.0,0.0,0.0,0.0,0.0,0.0,0.0,0.0,0.0,0.0,0.0,0.0,0.0,0.0,0.0,-2.5695,-2.6313,-2.6405,0.0,-2.4401,0.0,0.0,0.0,0.0,0.0,0.0,0.0,0.0,0.0,0.0,0.0,0.0,0.0,0.0,0.0,0.0,0.0,0.0,0.0,0.0,0.0,0.0,0.0,0.0,0.0,0.0,0.0,0.0,0.0,0.0,0.0,0.0,0.0,0.0,0.0,0.0,0.0,0.0,0.0,0.0,0.0,0.0,0.0,0.0,0.0,0.0,0.0,0.0,0.0,0.0,0.0,0.0,0.0,0.0,0.0,0.0,0.0,0.0,0.0,0.0,0.0,0.0,0.0,0.0,0.0,0.0,0.0,0.0,0.0,0.0,0.0,0.0,0.0,0.0,0.0,0.0,0.0,0.0,0.0,0.0,0.0,0.0,0.0,0.0,0.0,0.0,0.0,0.0,0.0,0.0,0.0,0.0,0.0,0.0,0.0,0.0,0.0,0.0,0.0,0.0,0.0,0.0,0.0,0.0,0.0,0.0,0.0,0.0,0.0,0.0,-2.6658,-2.6318,-2.6103,-2.5636,0.0,0.0,0.0,0.0,0.0,0.0,0.0,0.0,0.0,0.0,0.0,0.0,0.0,0.0,0.0,0.0,0.0,0.0,0.0,0.0,0.0,0.0,0.0,0.0,0.0,0.0,0.0,0.0,0.0,0.0,0.0,0.0,0.0,0.0,0.0,0.0,0.0,0.0,0.0,0.0,0.0,0.0,0.0,0.0,0.0,0.0,0.0,0.0,0.0,0.0,0.0,0.0,0.0,0.0,0.0,0.0,0.0,0.0,0.0,0.0,0.0,0.0,0.0,0.0,0.0,0.0,0.0,0.0,0.0,0.0,0.0,0.0,0.0,0.0,0.0,0.0,0.0,0.0,0.0,0.0,0.0,0.0,0.0,0.0,0.0,0.0,0.0,0.0,0.0,0.0,0.0,0.0,0.0,0.0,0.0,0.0,0.0,0.0,0.0,0.0,0.0,0.0,0.0,0.0,0.0,0.0,0.0,0.0,0.0,0.0,-2.6796,-2.7167,-2.6581,-2.6002,-2.5488,-2.4993,0.0,0.0,0.0,0.0,0.0,0.0,0.0,0.0,0.0,0.0,0.0,0.0,0.0,0.0,0.0,0.0,0.0,0.0,0.0,0.0,0.0,0.0,0.0,0.0,0.0,0.0,0.0,0.0,0.0,0.0,0.0,0.0,0.0,0.0,0.0,0.0,0.0,0.0,0.0,0.0,0.0,0.0,0.0,0.0,0.0,0.0,0.0,0.0,0.0,0.0,0.0,0.0,0.0,0.0,0.0,0.0,0.0,0.0,0.0,0.0,0.0,0.0,0.0,0.0,0.0,0.0,0.0,0.0,0.0,0.0,0.0,0.0,0.0,0.0,0.0,0.0,0.0,0.0,0.0,0.0,0.0,0.0,0.0,0.0,0.0,0.0,0.0,0.0,0.0,0.0,0.0,0.0,0.0,0.0,0.0,0.0,0.0,0.0,0.0,0.0,0.0,0.0,0.0,0.0,0.0,0.0,0.0,0.0,-2.851,-2.7365,-2.7005,-2.7746,-2.6619,-2.55,0.0,0.0,0.0,0.0,0.0,0.0,0.0,0.0,0.0,0.0,0.0,0.0,0.0,0.0,0.0,0.0,0.0,0.0,0.0,0.0,0.0,0.0,0.0,0.0,0.0,0.0,0.0,0.0,0.0,0.0,0.0,0.0,0.0,0.0,0.0,0.0,0.0,0.0,0.0,0.0,0.0,0.0,0.0,0.0,0.0,0.0,0.0,0.0,0.0,0.0,0.0,0.0,0.0,0.0,0.0,0.0,0.0,0.0,0.0,0.0,0.0,0.0,0.0,0.0,0.0,0.0,0.0,0.0,0.0,0.0,0.0,0.0,0.0,0.0,0.0,0.0,0.0,0.0,0.0,0.0,0.0,0.0,0.0,0.0,0.0,0.0,0.0,0.0,0.0,0.0,0.0,0.0,0.0,0.0,0.0,0.0,0.0,0.0,0.0,0.0,0.0,0.0,0.0,0.0,0.0,0.0,0.0,0.0,0.0,-2.5878,-2.6355,-2.7989,-3.0632,-2.7967,-2.65,0.0,0.0,0.0,0.0,0.0,0.0,0.0,0.0,0.0,0.0,0.0,0.0,0.0,0.0,0.0,0.0,0.0,0.0,0.0,0.0,0.0,0.0,0.0,0.0,0.0,0.0,0.0,0.0,0.0,0.0,0.0,0.0,0.0,0.0,0.0,0.0,0.0,0.0,0.0,0.0,0.0,0.0,0.0,0.0,0.0,0.0,0.0,0.0,0.0,0.0,0.0,0.0,0.0,0.0,0.0,0.0,0.0,0.0,0.0,0.0,0.0,0.0,0.0,0.0,0.0,0.0,0.0,0.0,0.0,0.0,0.0,0.0,0.0,0.0,0.0,0.0,0.0,0.0,0.0,0.0,0.0,0.0,0.0,0.0,0.0,0.0,0.0,0.0,0.0,0.0,0.0,0.0,0.0,0.0,0.0,0.0,0.0,0.0,0.0,0.0,0.0,0.0,0.0,0.0,0.0,0.0,0.0,0.0,0.0,-2.575,0.0,-2.9219,-3.1188,-2.8342,-2.6634,0.0,0.0,0.0,0.0,0.0,0.0,0.0,0.0,0.0,0.0,0.0,0.0,0.0,0.0,0.0,0.0,0.0,0.0,0.0,0.0,0.0,0.0,0.0,0.0,0.0,0.0,0.0,0.0,0.0,0.0,0.0,0.0,0.0,0.0,0.0,0.0,0.0,0.0,0.0,0.0,0.0,0.0,0.0,0.0,0.0,0.0,0.0,0.0,0.0,0.0,0.0,0.0,0.0,0.0,0.0,0.0,0.0,0.0,0.0,0.0,0.0,0.0,0.0,0.0,0.0,0.0,0.0,0.0,0.0,0.0,0.0,0.0,0.0,0.0,0.0,0.0,0.0,0.0,0.0,0.0,0.0,0.0,0.0,0.0,0.0,0.0,0.0,0.0,0.0,0.0,0.0,0.0,0.0,0.0,0.0,0.0,0.0,0.0,0.0,0.0,0.0,0.0,0.0,0.0,0.0,0.0,0.0,0.0,-2.5805,-2.8822,-3.0411,-3.0509,-2.911,-2.7615,-2.5701,0.0,0.0,0.0,0.0,0.0,0.0,0.0,0.0,0.0,0.0,0.0,0.0,0.0,0.0,0.0,0.0,0.0,0.0,0.0,0.0,0.0,0.0,0.0,0.0,0.0,0.0,0.0,0.0,0.0,0.0,0.0,0.0,0.0,0.0,0.0,0.0,0.0,0.0,0.0,0.0,0.0,0.0,0.0,0.0,0.0,0.0,0.0,0.0,0.0,0.0,0.0,0.0,0.0,0.0,0.0,0.0,0.0,0.0,0.0,0.0,0.0,0.0,0.0,0.0,0.0,0.0,0.0,0.0,0.0,0.0,0.0,0.0,0.0,0.0,0.0,0.0,0.0,0.0,0.0,0.0,0.0,0.0,0.0,0.0,0.0,0.0,0.0,0.0,0.0,0.0,0.0,0.0,0.0,0.0,0.0,0.0,0.0,0.0,0.0,0.0,0.0,0.0,0.0,0.0,0.0,0.0,0.0,0.0,0.0,-2.8191,-2.92,-3.0179,-3.0917,-2.7962,-2.6244,0.0,0.0,0.0,0.0,0.0,0.0,0.0,0.0,0.0,0.0,0.0,0.0,0.0,0.0,0.0,0.0,0.0,0.0,0.0,0.0,0.0,0.0,0.0,0.0,0.0,0.0,0.0,0.0,0.0,0.0,0.0,0.0,0.0,0.0,0.0,0.0,0.0,0.0,0.0,0.0,0.0,0.0,0.0,0.0,0.0,0.0,0.0,0.0,0.0,0.0,0.0,0.0,0.0,0.0,0.0,0.0,0.0,0.0,0.0,0.0,0.0,0.0,0.0,0.0,0.0,0.0,0.0,0.0,0.0,0.0,0.0,0.0,0.0,0.0,0.0,0.0,0.0,0.0,0.0,0.0,0.0,0.0,0.0,0.0,0.0,0.0,0.0,0.0,0.0,0.0,0.0,0.0,0.0,0.0,0.0,0.0,0.0,0.0,0.0,0.0,0.0,0.0,0.0,0.0,0.0,0.0,0.0,0.0,0.0,-2.9135,-3.0209,-3.1088,-3.1769,-2.8835,-2.709,-2.6704,0.0,0.0,0.0,0.0,0.0,0.0,0.0,0.0,0.0,0.0,0.0,0.0,0.0,0.0,0.0,0.0,0.0,0.0,0.0,0.0,0.0,0.0,0.0,0.0,0.0,0.0,0.0,0.0,0.0,0.0,0.0,0.0,0.0,0.0,0.0,0.0,0.0,0.0,0.0,0.0,0.0,0.0,0.0,0.0,0.0,0.0,0.0,0.0,0.0,0.0,0.0,0.0,0.0,0.0,0.0,0.0,0.0,0.0,0.0,0.0,0.0,0.0,0.0,0.0,0.0,0.0,0.0,0.0,0.0,0.0,0.0,0.0,0.0,0.0,0.0,0.0,0.0,0.0,0.0,0.0,0.0,0.0,0.0,0.0,0.0,0.0,0.0,0.0,0.0,0.0,0.0,0.0,0.0,0.0,0.0,0.0,0.0,0.0,0.0,0.0,0.0,0.0,0.0,0.0,0.0,0.0,0.0,0.0,-3.1304,-3.3006,-3.3116,-3.1532,-3.001,-2.8124,0.0,0.0,0.0,0.0,0.0,0.0,0.0,0.0,0.0,0.0,0.0,0.0,0.0,0.0,0.0,0.0,0.0,0.0,0.0,0.0,0.0,0.0,0.0,0.0,0.0,0.0,0.0,0.0,0.0,0.0,0.0,0.0,0.0,0.0,0.0,0.0,0.0,0.0,0.0,0.0,0.0,0.0,0.0,0.0,0.0,0.0,0.0,0.0,0.0,0.0,0.0,0.0,0.0,0.0,0.0,0.0,0.0,0.0,0.0,0.0,0.0,0.0,0.0,0.0,0.0,0.0,0.0,0.0,0.0,0.0,0.0,0.0,0.0,0.0,0.0,0.0,0.0,0.0,0.0,0.0,0.0,0.0,0.0,0.0,0.0,0.0,0.0,0.0,0.0,0.0,0.0,0.0,0.0,0.0,0.0,0.0,0.0,0.0,0.0,0.0,0.0,0.0,0.0,0.0,0.0,0.0,0.0,0.0,0.0,-3.2724,-3.4243,-3.4253,-3.2596,-3.0585,-2.8789,0.0,0.0,0.0,0.0,0.0,0.0,0.0,0.0,0.0,0.0,0.0,0.0,0.0,0.0,0.0,0.0,0.0,0.0,0.0,0.0,0.0,0.0,0.0,0.0,0.0,0.0,0.0,0.0,0.0,0.0,0.0,0.0,0.0,0.0,0.0,0.0,0.0,0.0,0.0,0.0,0.0,0.0,0.0,0.0,0.0,0.0,0.0,0.0,0.0,0.0,0.0,0.0,0.0,0.0,0.0,0.0,0.0,0.0,0.0,0.0,0.0,0.0,0.0,0.0,0.0,0.0,0.0,0.0,0.0,0.0,0.0,0.0,0.0,0.0,0.0,0.0,0.0,0.0,0.0,0.0,0.0,0.0,0.0,0.0,0.0,0.0,0.0,0.0,0.0,0.0,0.0,0.0,0.0,0.0,0.0,0.0,0.0,0.0,0.0,0.0,0.0,0.0,0.0,0.0,0.0,0.0,0.0,0.0,-3.3575,-3.4072,-3.5261,-3.5162,-3.3657,-3.194,-3.0248,0.0,0.0,0.0,0.0,0.0,0.0,0.0,0.0,0.0,0.0,0.0,0.0,0.0,0.0,0.0,0.0,0.0,0.0,0.0,0.0,0.0,0.0,0.0,0.0,0.0,0.0,0.0,0.0,0.0,0.0,0.0,0.0,0.0,0.0,0.0,0.0,0.0,0.0,0.0,0.0,0.0,0.0,0.0,0.0,0.0,0.0,0.0,0.0,0.0,0.0,0.0,0.0,0.0,0.0,0.0,0.0,0.0,0.0,0.0,0.0,0.0,0.0,0.0,0.0,0.0,0.0,0.0,0.0,0.0,0.0,0.0,0.0,0.0,0.0,0.0,0.0,0.0,0.0,0.0,0.0,0.0,0.0,0.0,0.0,0.0,0.0,0.0,0.0,0.0,0.0,0.0,0.0,0.0,0.0,0.0,0.0,0.0,0.0,0.0,0.0,0.0,0.0,0.0,0.0,0.0,0.0,0.0,0.0,-3.4568,-3.5298,-3.6017,-3.5838,-3.4703,-3.3556,-3.1891,0.0,0.0,0.0,0.0,0.0,0.0,0.0,0.0,0.0,0.0,0.0,0.0,0.0,0.0,0.0,0.0,0.0,0.0,0.0,0.0,0.0,0.0,0.0,0.0,0.0,0.0,0.0,0.0,0.0,0.0,0.0,0.0,0.0,0.0,0.0,0.0,0.0,0.0,0.0,0.0,0.0,0.0,0.0,0.0,0.0,0.0,0.0,0.0,0.0,0.0,0.0,0.0,0.0,0.0,0.0,0.0,0.0,0.0,0.0,0.0,0.0,0.0,0.0,0.0,0.0,0.0,0.0,0.0,0.0,0.0,0.0,0.0,0.0,0.0,0.0,0.0,0.0,0.0,0.0,0.0,0.0,0.0,0.0,0.0,0.0,0.0,0.0,0.0,0.0,0.0,0.0,0.0,0.0,0.0,0.0,0.0,0.0,0.0,0.0,0.0,0.0,0.0,0.0,0.0,0.0,0.0,0.0,0.0,-3.4252,-3.528,-3.6035,-3.6264,-3.5987,-3.369,-3.1689,0.0,0.0,0.0,0.0,0.0,0.0,0.0,0.0,0.0,0.0,0.0,0.0,0.0,0.0,0.0,0.0,0.0,0.0,0.0,0.0,0.0,0.0,0.0,0.0,0.0,0.0,0.0,0.0,0.0,0.0,0.0,0.0,0.0,0.0,0.0,0.0,0.0,0.0,0.0,0.0,0.0,0.0,0.0,0.0,0.0,0.0,0.0,0.0,-2.0438,0.0,0.0,0.0,0.0,0.0,0.0,0.0,0.0,0.0,0.0,0.0,0.0,0.0,0.0,0.0,0.0,0.0,0.0,0.0,0.0,0.0,0.0,0.0,0.0,0.0,0.0,0.0,0.0,0.0,0.0,0.0,0.0,0.0,0.0,0.0,0.0,0.0,0.0,0.0,0.0,0.0,0.0,0.0,0.0,0.0,0.0,0.0,0.0,0.0,0.0,0.0,0.0,0.0,0.0,0.0,0.0,0.0,0.0,0.0,-3.5685,-3.5833,-3.6821,-3.6907,-3.6037,-3.427,-3.2476,0.0,0.0,0.0,0.0,0.0,0.0,0.0,0.0,0.0,0.0,0.0,0.0,0.0,0.0,0.0,0.0,0.0,0.0,0.0,0.0,0.0,0.0,0.0,0.0,0.0,0.0,0.0,0.0,0.0,0.0,0.0,0.0,0.0,0.0,0.0,0.0,0.0,0.0,0.0,0.0,0.0,0.0,0.0,0.0,0.0,0.0,0.0,0.0,0.0,0.0,0.0,0.0,0.0,0.0,0.0,0.0,0.0,0.0,0.0,0.0,0.0,0.0,0.0,0.0,0.0,0.0,0.0,0.0,0.0,0.0,0.0,0.0,0.0,0.0,0.0,0.0,0.0,0.0,0.0,0.0,0.0,0.0,0.0,0.0,0.0,0.0,0.0,0.0,0.0,0.0,0.0,0.0,0.0,0.0,0.0,0.0,0.0,0.0,0.0,0.0,0.0,0.0,0.0,0.0,0.0,0.0,0.0,-3.5948,-3.7087,-3.6696,-3.7636,-3.7394,-3.5814,-3.4945,-3.3457,-3.1275,0.0,0.0,0.0,0.0,0.0,0.0,0.0,0.0,0.0,0.0,0.0,0.0,0.0,0.0,0.0,0.0,0.0,0.0,0.0,0.0,0.0,0.0,0.0,0.0,0.0,0.0,0.0,0.0,0.0,0.0,0.0,0.0,0.0,0.0,0.0,0.0,0.0,0.0,-1.9974,-2.0587,0.0,0.0,0.0,0.0,0.0,0.0,0.0,0.0,-2.141,0.0,0.0,0.0,0.0,0.0,0.0,0.0,0.0,0.0,0.0,0.0,0.0,0.0,0.0,0.0,0.0,0.0,0.0,0.0,0.0,0.0,0.0,0.0,0.0,0.0,0.0,0.0,0.0,0.0,0.0,0.0,0.0,0.0,0.0,0.0,0.0,0.0,0.0,0.0,0.0,0.0,0.0,0.0,0.0,0.0,0.0,0.0,0.0,0.0,0.0,0.0,0.0,0.0,0.0,0.0,0.0,-3.4209,-3.452,-3.5614,-3.7596,-3.7263,-3.6916,-3.6592,-3.5216,-3.3457,-3.1292,0.0,0.0,0.0,0.0,0.0,0.0,0.0,0.0,0.0,0.0,0.0,0.0,0.0,0.0,0.0,0.0,0.0,0.0,0.0,0.0,0.0,0.0,0.0,0.0,0.0,0.0,0.0,0.0,0.0,0.0,0.0,0.0,0.0,0.0,0.0,0.0,0.0,0.0,0.0,-2.1934,-2.2418,0.0,0.0,0.0,0.0,0.0,0.0,0.0,0.0,-2.1864,0.0,0.0,0.0,0.0,0.0,0.0,0.0,0.0,0.0,0.0,0.0,0.0,0.0,0.0,0.0,0.0,0.0,0.0,0.0,0.0,0.0,0.0,0.0,0.0,0.0,0.0,0.0,0.0,0.0,0.0,0.0,0.0,0.0,0.0,0.0,0.0,0.0,0.0,0.0,0.0,0.0,0.0,0.0,0.0,0.0,0.0,0.0,0.0,0.0,0.0,0.0,0.0,0.0,0.0,0.0,-3.3593,-3.547,-3.6925,-3.7862,-3.7832,-3.7462,-3.6801,-3.495,-3.3068,0.0,0.0,0.0,0.0,0.0,0.0,0.0,0.0,0.0,0.0,0.0,0.0,0.0,0.0,0.0,0.0,0.0,0.0,0.0,0.0,0.0,0.0,0.0,0.0,0.0,0.0,0.0,0.0,0.0,0.0,0.0,0.0,0.0,0.0,0.0,0.0,0.0,0.0,0.0,0.0,-2.2553,-2.3182,-2.3182,0.0,0.0,0.0,0.0,0.0,0.0,-2.2433,-2.2328,0.0,0.0,0.0,0.0,0.0,0.0,0.0,0.0,0.0,0.0,0.0,0.0,0.0,0.0,0.0,0.0,0.0,0.0,0.0,0.0,0.0,0.0,0.0,0.0,0.0,0.0,0.0,0.0,0.0,0.0,0.0,0.0,0.0,0.0,0.0,0.0,0.0,0.0,0.0,0.0,0.0,0.0,0.0,0.0,0.0,0.0,0.0,0.0,0.0,0.0,0.0,0.0,0.0,0.0,0.0,-3.3051,-3.6437,-3.8258,-3.8326,-3.8471,-3.8048,-3.7015,-3.4793,-3.2865,0.0,0.0,0.0,0.0,0.0,0.0,0.0,0.0,0.0,0.0,0.0,0.0,0.0,0.0,0.0,0.0,0.0,0.0,0.0,0.0,0.0,0.0,0.0,0.0,0.0,0.0,0.0,0.0,0.0,0.0,0.0,0.0,0.0,0.0,0.0,0.0,0.0,0.0,0.0,0.0,0.0,-2.3954,-2.3819,-2.3804,0.0,0.0,0.0,0.0,-2.3092,-2.3197,0.0,0.0,0.0,0.0,0.0,0.0,0.0,0.0,0.0,0.0,0.0,0.0,0.0,0.0,0.0,0.0,0.0,0.0,0.0,0.0,0.0,0.0,0.0,0.0,0.0,0.0,0.0,0.0,0.0,0.0,0.0,0.0,0.0,0.0,0.0,0.0,0.0,0.0,0.0,0.0,0.0,0.0,0.0,0.0,0.0,0.0,0.0,0.0,0.0,0.0,0.0,0.0,0.0,0.0,0.0,0.0,-3.3307,-3.5419,-3.7586,-3.9664,-3.8638,-3.7909,-3.7736,-3.5554,-3.3376,0.0,0.0,0.0,0.0,0.0,0.0,0.0,0.0,0.0,0.0,0.0,0.0,0.0,0.0,0.0,0.0,0.0,0.0,0.0,0.0,0.0,0.0,0.0,0.0,0.0,0.0,0.0,0.0,0.0,0.0,0.0,0.0,0.0,0.0,0.0,0.0,0.0,0.0,0.0,0.0,0.0,-2.5166,-2.456,-2.4485,-2.4664,0.0,0.0,-2.438,-2.438,-2.4874,0.0,0.0,0.0,0.0,0.0,0.0,0.0,0.0,0.0,0.0,0.0,0.0,0.0,0.0,0.0,0.0,0.0,0.0,0.0,0.0,0.0,0.0,0.0,0.0,0.0,0.0,0.0,0.0,0.0,0.0,0.0,0.0,0.0,0.0,0.0,0.0,0.0,0.0,0.0,0.0,0.0,0.0,0.0,0.0,0.0,0.0,0.0,0.0,0.0,0.0,0.0,0.0,0.0,0.0,0.0,-3.1436,-3.3406,-3.5868,-3.8112,-3.996,-3.8667,-3.7898,-3.7882,-3.49,-3.2408,0.0,0.0,0.0,0.0,0.0,0.0,0.0,0.0,0.0,0.0,0.0,0.0,0.0,0.0,0.0,0.0,0.0,0.0,0.0,0.0,0.0,0.0,0.0,0.0,0.0,0.0,0.0,0.0,0.0,0.0,0.0,0.0,0.0,0.0,0.0,0.0,0.0,0.0,0.0,0.0,0.0,0.0,-2.5202,-2.551,0.0,0.0,0.0,-2.5196,-2.5173,0.0,0.0,0.0,0.0,0.0,0.0,0.0,0.0,0.0,0.0,0.0,0.0,0.0,0.0,0.0,0.0,0.0,0.0,0.0,0.0,0.0,0.0,0.0,0.0,0.0,0.0,0.0,0.0,0.0,0.0,0.0,0.0,0.0,0.0,0.0,0.0,0.0,0.0,0.0,0.0,0.0,0.0,0.0,0.0,0.0,0.0,0.0,0.0,0.0,0.0,0.0,0.0,0.0,0.0,0.0,0.0,0.0,-3.3423,-3.6366,-3.8616,-3.9994,-3.8667,-3.7898,-3.7855,-3.4421,0.0,0.0,0.0,0.0,0.0,0.0,0.0,0.0,0.0,0.0,0.0,0.0,0.0,0.0,0.0,0.0,0.0,0.0,0.0,0.0,0.0,0.0,0.0,0.0,0.0,0.0,0.0,-1.8418,0.0,0.0,0.0,0.0,0.0,0.0,0.0,0.0,0.0,0.0,0.0,0.0,0.0,0.0,-2.5854,-2.5854,-2.6273,-2.6482,0.0,0.0,-2.5854,-2.5854,-2.5561,-2.5158,0.0,0.0,0.0,0.0,0.0,0.0,0.0,0.0,0.0,0.0,0.0,0.0,0.0,0.0,0.0,0.0,0.0,0.0,0.0,0.0,0.0,0.0,0.0,0.0,0.0,0.0,0.0,0.0,0.0,0.0,0.0,0.0,0.0,0.0,0.0,0.0,0.0,0.0,0.0,0.0,0.0,0.0,0.0,0.0,0.0,0.0,0.0,0.0,0.0,0.0,0.0,0.0,0.0,0.0,-3.1241,-3.3423,-3.6383,-3.8616,-3.9994,-3.8667,-3.7898,-3.7855,-3.4945,-3.2303,0.0,0.0,0.0,0.0,0.0,0.0,0.0,0.0,0.0,0.0,0.0,0.0,0.0,0.0,0.0,0.0,0.0,0.0,0.0,0.0,0.0,0.0,0.0,0.0,0.0,0.0,0.0,0.0,0.0,0.0,0.0,0.0,0.0,0.0,0.0,0.0,0.0,0.0,0.0,0.0,0.0,-2.6527,-2.6527,-2.6557,-2.6821,0.0,-2.6941,-2.6527,-2.6527,-2.7031,-2.6776,-2.4903,0.0,0.0,0.0,0.0,0.0,0.0,0.0,0.0,0.0,0.0,0.0,0.0,0.0,0.0,0.0,0.0,0.0,0.0,0.0,0.0,0.0,0.0,0.0,0.0,0.0,0.0,0.0,0.0,0.0,0.0,0.0,0.0,0.0,0.0,0.0,0.0,0.0,0.0,0.0,0.0,0.0,0.0,0.0,0.0,0.0,0.0,0.0,0.0,0.0,0.0,0.0,0.0,0.0,-3.141,-3.4066,-3.6586,-3.8616,-3.9977,-3.8667,-3.7898,-3.7898,-3.4979,-3.2374,0.0,0.0,0.0,0.0,0.0,0.0,0.0,0.0,0.0,0.0,0.0,0.0,0.0,0.0,0.0,0.0,0.0,0.0,0.0,0.0,0.0,0.0,0.0,0.0,0.0,0.0,0.0,0.0,-1.9723,-1.9723,-1.9723,0.0,0.0,0.0,0.0,0.0,0.0,0.0,0.0,0.0,0.0,-2.736,-2.7754,-2.7829,0.0,0.0,-2.7735,-2.7664,-2.7285,-2.7091,-2.6596,-2.5397,-2.3995,0.0,0.0,0.0,0.0,0.0,0.0,0.0,0.0,0.0,0.0,0.0,0.0,0.0,0.0,0.0,0.0,0.0,0.0,0.0,0.0,0.0,0.0,0.0,0.0,0.0,0.0,0.0,0.0,0.0,0.0,0.0,0.0,0.0,0.0,0.0,0.0,0.0,0.0,0.0,0.0,0.0,0.0,0.0,0.0,0.0,0.0,0.0,0.0,0.0,0.0,0.0,0.0,-3.1765,-3.4472,-3.6958,-3.8819,-4.0062,-3.865,-3.7898,-3.7814,-3.5199,-3.2696,0.0,0.0,0.0,0.0,0.0,0.0,0.0,0.0,0.0,0.0,0.0,0.0,0.0,0.0,0.0,0.0,0.0,0.0,0.0,0.0,0.0,0.0,0.0,0.0,0.0,0.0,0.0,0.0,-1.9723,-1.9723,-1.9723,0.0,0.0,0.0,0.0,0.0,0.0,0.0,0.0,0.0,0.0,-2.8079,-2.8532,-2.8771,-2.8667,-2.8004,-2.8278,-2.8427,-2.7974,-2.751,-2.6887,-2.5958,0.0,0.0,0.0,0.0,0.0,0.0,0.0,0.0,0.0,0.0,0.0,0.0,0.0,0.0,0.0,0.0,0.0,0.0,0.0,0.0,0.0,0.0,0.0,0.0,0.0,0.0,0.0,-2.6557,0.0,0.0,-2.5275,0.0,0.0,0.0,0.0,0.0,0.0,0.0,0.0,0.0,0.0,0.0,0.0,0.0,0.0,0.0,0.0,0.0,0.0,0.0,0.0,0.0,0.0,-3.2273,-3.4489,-3.7432,-3.9326,-4.0045,-3.865,-3.7898,-3.7872,-3.5673,-3.3423,-3.1207,0.0,0.0,0.0,0.0,0.0,0.0,0.0,0.0,0.0,0.0,0.0,0.0,0.0,0.0,0.0,0.0,0.0,0.0,0.0,0.0,0.0,0.0,0.0,0.0,0.0,0.0,-1.9723,-1.9723,-1.9723,0.0,0.0,0.0,0.0,0.0,0.0,0.0,0.0,0.0,-2.811,-2.85,-2.8592,-2.8637,-2.916,-2.9352,-2.8667,-2.8622,-2.8607,-2.8551,-2.8547,-2.8047,0.0,0.0,0.0,0.0,0.0,0.0,0.0,0.0,0.0,0.0,0.0,0.0,0.0,0.0,0.0,0.0,0.0,0.0,0.0,0.0,0.0,0.0,0.0,0.0,0.0,0.0,0.0,-3.05,-2.9255,0.0,0.0,0.0,0.0,0.0,0.0,0.0,0.0,0.0,0.0,0.0,-3.2357,-3.3537,0.0,0.0,0.0,0.0,0.0,0.0,0.0,0.0,0.0,0.0,0.0,0.0,-3.2527,-3.5194,-3.7719,-3.9343,-4.0045,-3.865,-3.7898,-3.7889,-3.5707,-3.3237,-3.0565,0.0,0.0,0.0,0.0,0.0,0.0,0.0,0.0,0.0,0.0,0.0,0.0,0.0,0.0,0.0,0.0,0.0,0.0,0.0,0.0,0.0,0.0,0.0,0.0,0.0,-1.9723,0.0,0.0,0.0,0.0,0.0,0.0,0.0,0.0,0.0,0.0,-2.6618,-2.751,-2.8999,-2.9594,-2.9879,-2.9864,-3.0043,-2.9968,0.0,0.0,0.0,0.0,0.0,0.0,0.0,0.0,0.0,0.0,0.0,0.0,0.0,0.0,-2.4777,-2.1995,-2.1179,-2.0991,-2.1207,0.0,0.0,0.0,0.0,0.0,0.0,0.0,0.0,0.0,0.0,0.0,0.0,0.0,0.0,-3.2535,-3.1548,-3.1057,0.0,0.0,0.0,0.0,0.0,0.0,0.0,0.0,-3.503,-3.5673,-3.5013,-3.596,-3.5887,-3.503,-3.5216,-3.3656,0.0,0.0,0.0,0.0,0.0,0.0,0.0,0.0,-3.3575,-3.5994,-3.8227,-3.9622,-4.0028,-3.8903,-3.8159,-3.7872,-3.569,-3.3355,-3.0937,-2.9194,-2.7554,0.0,0.0,0.0,0.0,0.0,0.0,0.0,0.0,0.0,0.0,0.0,0.0,0.0,0.0,0.0,0.0,0.0,0.0,0.0,0.0,0.0,0.0,0.0,-1.9887,0.0,0.0,0.0,0.0,0.0,0.0,0.0,0.0,0.0,-2.6911,-2.775,-2.8798,-3.0088,-3.0597,-3.0866,-3.0866,0.0,0.0,0.0,0.0,0.0,0.0,0.0,-2.9255,-2.7162,-2.7012,-2.6837,-2.5901,-2.6456,-2.7014,-2.6813,0.0,0.0,-2.3771,-2.2912,-2.2711,-2.2887,-2.2912,-2.2962,-2.312,-2.3188,-2.3188,0.0,0.0,0.0,0.0,-3.54,0.0,0.0,0.0,-3.3968,-3.3581,0.0,-3.2722,0.0,0.0,0.0,0.0,-3.1481,-3.4235,0.0,0.0,-3.7905,-3.8616,-3.7973,-3.7956,-3.7973,-3.8024,-3.8633,-3.7821,-3.56,-3.3541,-3.1701,0.0,0.0,0.0,0.0,0.0,-3.5318,-3.6846,-3.8979,-4.0113,-4.0079,-3.9368,-3.8616,-3.7838,-3.5673,-3.3812,-3.2429,-3.1565,-2.982,-2.6979,-2.6066,0.0,0.0,0.0,0.0,0.0,0.0,0.0,0.0,0.0,0.0,0.0,0.0,0.0,0.0,0.0,0.0,0.0,0.0,0.0,0.0,-1.9738,0.0,0.0,0.0,0.0,0.0,0.0,0.0,0.0,0.0,-2.9172,-2.8019,-2.8918,-3.0133,-3.1406,0.0,0.0,0.0,0.0,-3.157,-3.157,-3.1541,-3.1412,-3.1087,-3.1775,-3.1424,-2.8771,0.0,0.0,-2.77,-2.777,-2.7946,-2.7444,-2.7795,-2.7783,-2.67,-2.5586,-2.5051,-2.5498,-2.4833,-2.4343,-2.4757,-2.4845,-2.482,-4.0399,0.0,0.0,0.0,0.0,-3.6537,-3.6992,-3.8178,-3.7394,-3.6693,-3.6146,-3.5921,0.0,0.0,0.0,0.0,0.0,0.0,-3.6738,-3.7313,-3.8464,-3.9157,-3.9469,-3.9462,-3.9462,-3.9486,-3.969,-3.9157,-3.8041,-3.7381,-3.4962,-3.097,0.0,0.0,0.0,0.0,-3.6603,-3.7635,-3.9266,-4.0113,-4.0096,-3.936,-3.8396,-3.7151,-3.5402,-3.4303,-3.3846,-3.2138,-3.0801,-2.9922,-2.7655,0.0,0.0,0.0,0.0,0.0,0.0,0.0,0.0,0.0,0.0,0.0,0.0,0.0,0.0,0.0,0.0,0.0,0.0,0.0,-2.0378,-2.0404,-2.1126,0.0,0.0,0.0,0.0,0.0,0.0,0.0,0.0,0.0,-3.1091,-3.142,-3.1988,0.0,0.0,-3.2931,-3.2931,-3.2946,-3.2931,-3.2931,-3.2369,0.0,-3.1017,-3.068,-2.9986,-2.8437,-2.8585,-2.8751,-2.8484,-2.8549,-2.8637,-2.8473,-2.8537,-2.8461,-2.7795,-2.7406,-2.7218,-2.7306,-2.6816,-2.6402,-2.6515,-2.6311,-2.6021,-4.2356,-3.9081,-3.8828,-3.9095,-3.9532,-3.8509,-3.8747,-3.9825,-3.9048,-3.859,-3.839,-3.81,-3.7212,-3.5883,-3.5359,0.0,0.0,0.0,-3.8082,-3.8785,-3.9208,-3.969,-4.0079,-4.0113,-4.0113,-4.0113,-4.0113,-3.9876,-3.9428,-3.9453,-3.755,-3.3981,0.0,-3.4523,-3.4155,-3.6203,-3.7601,-3.8345,-3.9478,-4.0113,-4.0096,-3.9089,-3.8125,-3.7229,-3.574,-3.4793,-3.4472,-3.3203,-3.2124,-3.1224,-2.9194,-2.7435,0.0,0.0,0.0,0.0,0.0,0.0,0.0,0.0,0.0,0.0,0.0,-2.135,-2.0576,0.0,0.0,0.0,-2.113,-2.153,-2.2198,-2.2742,0.0,0.0,0.0,0.0,0.0,0.0,0.0,-3.1135,-3.2123,-3.2841,-3.323,-3.3529,-3.3754,-3.3873,-3.3649,-3.3589,-3.3844,0.0,-3.3451,-3.3345,-3.285,-3.2141,-3.1129,-3.0904,-3.052,-2.9497,-2.901,-2.8875,-2.9202,-2.9277,-2.9277,-2.9226,-2.9264,-2.9176,-2.8837,-2.8775,-2.8599,-2.8197,-2.7846,-2.757,-2.7379,-2.7052,-2.6763,-4.375,-4.2638,-4.2005,-4.1739,-4.1705,-4.0457,-4.0001,-4.0113,-3.9462,-3.9537,-4.0045,-3.9377,-3.87,-3.8041,-3.7347,0.0,-3.8108,-3.8768,-3.9453,-4.0096,-4.0113,-4.0113,-4.0113,-4.0113,-4.0113,-4.0113,-4.0113,-4.0113,-4.0096,-4.0096,-3.9419,-3.8091,-3.7422,-3.6998,-3.6931,-3.7669,-3.8413,-3.9073,-3.9757,-4.0113,-4.0079,-3.8717,-3.7973,-3.7865,-3.6462,-3.5351,-3.4624,-3.4455,-3.3457,-3.1478,-3.0565,-2.9127,-2.7013,0.0,0.0,0.0,0.0,0.0,0.0,0.0,0.0,0.0,0.0,0.0,0.0,0.0,0.0,0.0,-2.3385,0.0,-2.4769,-2.5944,0.0,0.0,0.0,-2.9101,-2.9804,-3.1016,-3.1974,-3.2602,0.0,0.0,-3.4593,-3.51,-3.528,-3.4668,-3.4023,-3.3873,-3.4503,-3.4099,-3.3578,-3.3445,-3.3173,-3.2635,-3.1577,-3.1753,-3.1739,-3.0926,-3.0381,-2.9767,-2.9754,-2.9754,-2.9779,-2.9754,-2.9779,-2.9754,-2.9779,-2.9704,-2.9478,-2.8461,-2.821,-2.8021,-2.7607,-2.7356,-2.714,-4.685,-4.6091,-4.4889,-4.353,-4.2159,-4.1827,-4.1401,-4.0933,-4.0764,-4.046,-4.0096,-3.991,-3.974,-3.9571,-3.9402,-3.9419,-3.9588,-3.9757,-3.9926,-4.0096,-4.0113,-4.0113,-4.0113,-4.0113,-4.0113,-4.0113,-4.0113,-4.0113,-4.0113,-4.0113,-3.9926,-3.9588,-3.9419,-3.8759,-3.7736,-3.892,-3.9673,-3.9842,-4.0028,-4.0113,-4.0079,-3.9233,-3.8464,-3.7922,-3.7009,-3.6129,-3.5368,-3.4247,-3.3423,-3.2865,-3.1106,-2.96,-2.8502,-2.6471,0.0,0.0,0.0,0.0,0.0,0.0,0.0,0.0,0.0,-2.3819,-2.1844,0.0,-2.4522,0.0,-2.4762,-2.5615,-2.6776,-2.718,0.0,0.0,-3.0718,-3.1256,-3.2437,-3.329,-3.3844,-3.3993,-3.4756,-3.525,-3.5265,-3.54,-3.5444,-3.5265,-3.5115,-3.5085,-3.525,-3.5145,-3.5006,-3.4753,-3.3593,-3.2632,-3.2172,-3.1193,-3.0432,-3.0177,-2.9921,-2.9792,-2.9779,-2.9779,-2.9779,-2.9779,-2.9779,-2.9779,-2.9779,-2.9779,-2.9716,-2.9428,-2.9051,-2.8662,-2.8512,-2.7883,-2.7291,-4.7295,-4.6094,-4.5304,-4.4337,-4.3278,-4.2591,-4.2066,-4.1694,-4.1677,-4.1457,-4.1077,-4.1094,-4.0882,-4.0595,-4.0578,-4.0434,-4.0113,-4.0113,-4.0113,-4.0113,-4.0113,-4.0113,-4.0113,-4.0113,-4.0113,-4.0113,-4.0113,-4.0113,-4.0113,-4.0113,-4.0113,-4.0113,-4.0113,-3.9706,-3.8937,-3.969,-4.0113,-4.0113,-4.0113,-4.0113,-4.0079,-3.9056,-3.8328,-3.7905,-3.684,-3.6062,-3.56,-3.4506,-3.3744,-3.3368,-3.1918,-3.0581,-2.9534,-2.7994,-2.6928,0.0,0.0,0.0,0.0,0.0,0.0,0.0,0.0,0.0,0.0,0.0,-2.6019,-2.5959,-2.7066,-2.8218,-2.9235,-3.0161,-3.1149,-3.2287,-3.2916,-3.3439,-3.3903,-3.4563,-3.4936,-3.4936,-3.5265,-3.5489,-3.5489,-3.5489,-3.5489,-3.5489,-3.5489,-3.5489,-3.5489,-3.5489,-3.5213,-3.4322,-3.329,-3.2249,-3.1513,-3.0495,-2.9779,-2.9779,-2.9779,-2.9779,-2.9779,-2.9779,-2.9779,-2.9779,-2.9779,-2.9779,-2.9779,-2.9779,-2.9779,-2.9754,-2.9541,-2.9201,-2.8938,-2.8399,-2.7971,-4.679,-4.5022,-4.4977,-4.4833,-4.4513,-4.3176,-4.2523,-4.2439,-4.2439,-4.2371,-4.2303,-4.2303,-4.1948,-4.1339,-4.1339,-4.1001,-4.04,-4.0383,-4.0333,-4.0248,-4.0248,-4.0197,-4.0113,-4.0113,-4.0113,-4.0113,-4.0113,-4.0113,-4.0113,-4.0113,-4.0113,-4.0113,-4.0113,-4.0113,-4.0113,-4.0113,-4.0113,-4.0113,-4.0113,-4.0113,-4.0096,-3.8836,-3.8091,-3.7872,-3.658,-3.5802,-3.5583,-3.4895,-3.4201,-3.3558,-3.2852,-3.185,-3.0598,-2.9754,-2.9244,0.0,-2.7996,0.0,0.0,0.0,0.0,0.0,0.0,0.0,0.0,-2.751,-2.7615,-2.8184,-2.9834,-3.1137,-3.1809,-3.3455,-3.4309,-3.3858,-3.4786,-3.5265,-3.4711,-3.5145,-3.5489,-3.5489,-3.5489,-3.5489,-3.5489,-3.5489,-3.5489,-3.5489,-3.5489,-3.5489,-3.5489,-3.5489,-3.4887,-3.3031,-3.2571,-3.1756,-3.0355,-2.9856,-2.9779,-2.9779,-2.9779,-2.9779,-2.9779,-2.9779,-2.9779,-2.9779,-2.9779,-2.9779,-2.9779,-2.9779,-2.9779,-2.9779,-2.9754,-2.9603,-2.9189,-2.89,-2.8737,-4.8449,-4.7121,-4.7103,-4.6152,-4.4581,-4.4293,-4.3792,-4.3217,-4.3172,-4.2861,-4.2303,-4.2303,-4.2202,-4.2083,-4.2083,-4.2042,-4.1863,-4.1863,-4.1559,-4.1001,-4.0984,-4.0663,-4.013,-4.0113,-4.0113,-4.0113,-4.0113,-4.0113,-4.0113,-4.0113,-4.0113,-4.0113,-4.0113,-4.0113,-4.0113,0.0,0.0,0.0,-4.0113,-4.0113,-4.0096,-3.9842,-3.9106,-3.7973,-3.7611,0.0,-3.565,-3.4895,-3.4438,-3.4269,-3.3592,0.0,0.0,0.0,0.0,0.0,0.0,0.0,0.0,0.0,0.0,0.0,-2.915,-2.8577,-2.8472,-3.0223,-3.1435,-3.1584,-3.2407,-3.32,-3.3858,-3.4247,-3.4666,-3.5085,-3.534,-3.5444,-3.531,-3.5429,-3.5489,-3.5489,-3.5489,-3.5489,-3.5489,-3.5489,-3.5489,-3.5489,-3.5489,-3.5489,-3.5489,-3.5489,-3.5034,-3.3891,-3.25,-3.1119,-2.9972,-2.9779,-2.9779,-2.9779,-2.9779,-2.9779,-2.9779,-2.9779,-2.9779,-2.9779,-2.9779,-2.9779,-2.9779,-2.9779,-2.9779,-2.9779,-2.9779,-2.9754,-2.9641,-2.9214,-2.8863,-4.9541,-4.8256,-4.7523,-4.6595,0.0,-4.4901,-4.435,-4.3978,-4.3995,-4.3775,-4.3436,-4.343,-4.32,-4.2861,-4.2844,-4.2658,-4.2303,-4.2303,-4.21,-4.1762,-4.1745,-4.1542,-4.1196,-4.0823,-4.0646,-4.0629,-4.0299,-4.0113,-4.0113,-4.0113,-4.0113,-4.0113,-4.0113,-4.0113,-4.0113,-4.0113,-4.0113,-4.0113,-4.0113,-4.0113,-4.0079,-3.9757,-3.9191,-3.8464,-3.8091,0.0,0.0,0.0,0.0,0.0,0.0,0.0,0.0,0.0,0.0,-3.2288,-3.1285,-3.0577,-3.0383,-3.0353,-3.0662,-3.1404,-3.1838,-3.1613,-3.0612,-3.2048,-3.314,-3.3455,-3.3784,-3.4247,-3.4891,-3.4996,-3.5115,-3.5459,-3.5489,-3.5489,-3.5489,-3.5489,-3.5489,-3.5489,-3.5489,-3.5489,-3.5489,-3.5489,-3.5489,-3.5489,-3.5489,-3.5489,-3.5489,-3.5489,-3.5019,-3.3533,-3.2164,-3.0857,-3.0037,-2.9779,-2.9779,-2.9779,-2.9779,-2.9779,-2.9779,-2.9779,-2.9779,-2.9779,-2.9779,-2.9779,-2.9779,-2.9779,-2.9779,-2.9779,-2.9779,-2.9779,-2.9779,-2.9553,-2.9365,-5.0066,-4.8819,-4.7605,-4.6949,-4.6633,-4.5324,-4.4733,-4.4598,-4.4598,0.0,0.0,-4.4598,-4.4231,-4.3595,-4.3623,-4.3284,-4.2736,-4.2692,-4.2608,-4.2489,-4.2489,-4.2422,-4.2269,-4.1677,-4.139,-4.1373,-4.0629,-4.0299,-4.0299,-4.0163,-4.0113,-4.0113,-4.0113,-4.0113,-4.0113,-4.0113,-4.0113,-4.0113,-4.0113,-4.0113,-4.0096,-3.952,-3.9123,-3.9005,-3.8413,-3.8041,-3.7889,-3.6664,-3.6005,-3.5971,-3.4861,-3.4201,-3.4201,-3.4218,-3.439,-3.4841,-3.4379,-3.3991,-3.383,-3.374,-3.3483,-3.2871,-3.3963,-3.4143,-3.2946,-3.3469,-3.4068,-3.4653,-3.4683,-3.4906,-3.5444,-3.5489,-3.5489,-3.5489,-3.5489,-3.5489,-3.5489,-3.5489,-3.5489,-3.5489,-3.5489,-3.5489,-3.5489,-3.5489,-3.5489,-3.5489,-3.5489,-3.5489,-3.5472,-3.5311,-3.4624,-3.3241,-3.2019,-3.0895,-3.0279,-2.9856,-2.9818,-2.9779,-2.9779,-2.9779,-2.9779,-2.9779,-2.9779,-2.9779,-2.9779,-2.9779,-2.9779,-2.9779,-2.9779,-2.9779,-2.9779,-2.9779,-2.9779,-2.9779,-2.9754,-4.9687,-4.8864,-4.8677,-4.7916,-4.6724,-4.5913,-4.5179,-4.4615,-4.4598,-4.4598,-4.4598,-4.4598,-4.4519,-4.4445,-4.4418,-4.4378,-4.4293,-4.4293,-4.3893,-4.324,-4.325,-4.2929,-4.2303,-4.2185,-4.2151,-4.2083,-4.139,-4.1052,-4.0984,-4.0392,-4.0113,-4.0113,-4.0113,-4.0113,-4.0113,-4.0113,-4.0113,-4.0113,-4.0113,-4.0113,-4.0113,-3.9994,-3.9656,-3.9022,-3.8903,-3.8531,-3.7939,-3.7702,-3.7584,-3.7584,-3.7381,-3.728,-3.728,-3.7212,-3.7026,-3.6539,-3.6373,-3.5808,-3.4635,-3.4516,-3.4433,-3.4297,-3.4921,-3.5026,-3.4339,-3.4831,-3.5265,-3.5355,-3.5325,-3.5385,-3.5489,-3.5489,-3.5489,-3.5489,-3.5489,-3.5489,-3.5489,-3.5489,-3.5489,-3.5489,-3.5489,-3.5489,-3.5489,-3.5489,-3.5489,-3.5489,-3.5489,-3.5489,-3.5392,-3.4758,-3.4163,-3.3636,-3.2307,-3.1291,-3.0871,-3.0279,-2.9934,-2.9779,-2.9779,-2.9779,-2.9779,-2.9779,-2.9779,-2.9779,-2.9779,-2.9779,-2.9779,-2.9779,-2.9779,-2.9779,-2.9779,-2.9779,-2.9779,-2.9779,-2.9779,-5.0726,-5.0074,-4.967,-4.8891,-4.7849,-4.6362,-4.5517,-4.5162,-4.4784,-4.4598,-4.4598,-4.4598,-4.4598,-4.4598,-4.4598,-4.4598,-4.4598,-4.4598,-4.4412,-4.4062,-4.4062,-4.3859,-4.3504,-4.3098,-4.2912,-4.2844,-4.2168,-4.1796,-4.1728,-4.1052,-4.0722,-4.0663,-4.0316,-4.0113,-4.0113,-4.0113,-4.0113,-4.0113,-4.0113,-4.0113,-4.0113,-4.0113,-3.996,-3.9622,-3.958,-3.9469,-3.9089,-3.87,-3.8497,-3.8481,-3.8108,-3.7898,-3.7898,-3.7898,-3.7728,-3.7393,-3.6622,-3.6088,-3.5805,-3.5397,-3.5106,-3.5043,-3.531,-3.5385,-3.507,-3.531,-3.5489,-3.5489,-3.5489,-3.5489,-3.5489,-3.5489,-3.5489,-3.5489,-3.5489,-3.5489,-3.5489,-3.5489,-3.5489,-3.5489,-3.5489,-3.5489,-3.5489,-3.5489,-3.5489,-3.5489,-3.5489,-3.5489,-3.5489,-3.5118,-3.4591,-3.4061,-3.3227,-3.2307,-3.1426,-3.0857,-3.0381,-2.9895,-2.9779,-2.9779,-2.9779,-2.9779,-2.9779,-2.9779,-2.9779,-2.9779,-2.9779,-2.9779,-2.9779,-2.9779,-2.9779,-2.9779,-2.9779,-2.9779,-2.9779,-5.1586,-5.1041,-5.0492,-4.9732,-4.8758,-4.7147,-4.6248,-4.5872,-4.5162,-4.4869,-4.4852,-4.4699,-4.4598,-4.4598,-4.4598,-4.4598,-4.4598,-4.4598,-4.4598,-4.4598,-4.4598,-4.4598,-4.4547,-4.3944,-4.3646,-4.3606,-4.2912,-4.2557,-4.2455,-4.1644,-4.1119,-4.0916,-4.0383,-4.0113,-4.0113,-4.0113,-4.0113,-4.0113,-4.0113,-4.0113,-4.0113,-4.0113,-4.0113,-4.0113,-4.0096,-4.0113,-4.0079,-3.9554,-3.9242,-3.9208,-3.87,-3.8396,-3.8413,-3.8396,-3.8396,-3.8282,-3.7157,-3.6481,-3.66,-3.5952,-3.5489,-3.5489,-3.5489,-3.5489,-3.5489,-3.5489,-3.5489,-3.5489,-3.5489,-3.5489,-3.5489,-3.5489,-3.5489,-3.5489,-3.5489,-3.5489,-3.5489,-3.5489,-3.5489,-3.5489,-3.5489,-3.5489,-3.5489,-3.5489,-3.5489,-3.5489,-3.5489,-3.5489,-3.5489,-3.5489,-3.5133,-3.4576,-3.4177,-3.3345,-3.1815,-3.1291,-3.0796,-2.996,-2.9779,-2.9779,-2.9779,-2.9779,-2.9779,-2.9779,-2.9779,-2.9779,-2.9779,-2.9779,-2.9779,-2.9779,-2.9779,-2.9779,-2.9779,-2.9779,-2.9779,-5.1164,-5.1112,-5.1006,-5.0189,-4.8962,-4.8661,-4.7826,-4.6692,-4.5906,-4.5602,-4.55,-4.4919,-4.4615,-4.4598,-4.4598,-4.4598,-4.4598,-4.4598,-4.4598,-4.4598,-4.4598,-4.4598,-4.4598,-4.4513,-4.4496,-4.4378,-4.3673,-4.3318,-4.3234,-4.1931,-4.0882,-4.0282,-4.013,-4.0113,-4.0113,-4.0113,-4.0113,-4.0113,-4.0113,-4.0113,-4.0113,-4.0113,-4.0113,-4.0113,-4.0113,-4.0113,-4.0113,-4.0045,-3.9994,-3.9994,-3.991,-3.9876,-3.9876,-3.9876,-3.9876,-3.9825,-3.9003,-3.8068,-3.6734,-3.5913,-3.5489,-3.5489,-3.5489,-3.5489,-3.5489,-3.5489,-3.5489,-3.5489,-3.5489,-3.5489,-3.5489,-3.5489,-3.5489,-3.5489,-3.5489,-3.5489,-3.5489,-3.5489,-3.5489,-3.5489,-3.5489,-3.5489,-3.5489,-3.5489,-3.5489,-3.5489,-3.5489,-3.5489,-3.5489,-3.5489,-3.5457,-3.518,-3.4658,-3.3705,-3.2629,-3.1706,-3.1007,-3.0101,-2.9792,-2.9792,-2.9779,-2.9779,-2.9779,-2.9779,-2.9779,-2.9779,-2.9779,-2.9779,-2.9779,-2.9779,-2.9779,-2.9779,-2.9779,-2.9779,-2.9779,-5.1879,-5.1155,-5.1519,-5.1139,-5.018,-4.9284,-4.8577,-4.7946,-4.6838,-4.6126,-4.5703,-4.5382,-4.4993,-4.4598,-4.4598,-4.4598,-4.4598,-4.4598,-4.4598,-4.4598,-4.4598,-4.4598,-4.4598,-4.4598,-4.4598,-4.4581,-4.4248,-4.4113,-4.3859,-4.2574,-4.1474,-4.0747,-4.0333,-4.0113,-4.0113,-4.0113,-4.0113,-4.0113,-4.0113,-4.0113,-4.0113,-4.0113,-4.0113,-4.0113,-4.0113,-4.0113,-4.0113,-4.0113,-4.0113,-4.0113,-4.0113,-4.0113,-4.0113,-4.0113,-3.9876,-3.9385,-3.823,-3.7068,-3.6038,-3.5668,-3.5489,-3.5489,-3.5489,-3.5489,-3.5489,-3.5489,-3.5489,-3.5489,-3.5489,-3.5489,-3.5489,-3.5489,-3.5489,-3.5489,-3.5489,-3.5489,-3.5489,-3.5489,-3.5489,-3.5489,-3.5489,-3.5489,-3.5489,-3.5489,-3.5489,-3.5489,-3.5489,-3.5489,-3.5489,-3.5489,-3.5489,-3.5457,-3.5133,-3.4524,-3.3567,-3.2629,-3.1706,-3.0846,-3.0139,-2.9818,-2.9792,-2.9779,-2.9779,-2.9779,-2.9779,-2.9779,-2.9779,-2.9779,-2.9779,-2.9779,-2.9779,-2.9779,-2.9779,-2.9779,-2.9779,-5.2984,-5.2124,-5.2309,-5.1994,-5.1289,-5.0233,-4.9552,-4.9069,-4.7912,-4.6956,-4.6295,-4.5889,-4.5415,-4.4936,-4.4716,-4.4598,-4.4598,-4.4598,-4.4598,-4.4598,-4.4598,-4.4598,-4.4598,-4.4598,-4.4598,-4.4598,-4.4581,-4.4479,-4.4181,-4.32,-4.2134,-4.1255,-4.0646,-4.0299,-4.013,-4.0113,-4.0113,-4.0113,-4.0113,-4.0113,-4.0113,-4.0113,-4.0113,-4.0113,-4.0113,-4.0113,-4.0113,-4.0113,-4.0113,-4.0113,-4.0113,-3.9978,-3.9799,-3.9799,-3.9315,-3.8342,-3.7231,-3.6275,-3.5554,-3.5489,-3.5489,-3.5489,-3.5489,-3.5489,-3.5489,-3.5489,-3.5489,-3.5489,-3.5489,-3.5489,-3.5489,-3.5489,-3.5489,-3.5489,-3.5489,-3.5489,-3.5489,-3.5489,-3.5489,-3.5489,-3.5489,-3.5489,-3.5489,-3.5489,-3.5489,-3.5489,-3.5489,-3.5489,-3.5489,-3.5489,-3.5489,-3.5489,-3.5489,-3.5052,-3.4177,-3.3449,-3.2558,-3.1462,-3.0595,-3.0165,-2.9895,-2.9792,-2.9779,-2.9779,-2.9779,-2.9779,-2.9779,-2.9779,-2.9779,-2.9779,-2.9779,-2.9779,-2.9779,-2.9779,-2.9779,-5.4338,-5.4111,-5.3436,-5.2684,-5.2047,-5.1898,-5.1126,-4.9899,-4.9083,-4.8375,-4.756,-4.635,-4.5703,-4.5568,-4.497,-4.4615,-4.4598,-4.4598,-4.4598,-4.4598,-4.4598,-4.4598,-4.4598,-4.4598,-4.4598,-4.4598,-4.4598,-4.4248,-4.3589,-4.3358,-4.2625,-4.1322,-4.1153,-4.0764,-4.0265,-4.013,-4.0113,-4.0113,-4.0113,-4.0113,-4.0113,-4.0113,-4.0113,-4.0113,-4.007,-4.0045,-4.007,-4.007,-4.007,-4.0113,-4.0113,-3.9782,-3.9096,-3.8962,-3.8314,-3.6978,-3.663,-3.6275,-3.5604,-3.5489,-3.5489,-3.5489,-3.5489,-3.5489,-3.5489,-3.5489,-3.5489,-3.5489,-3.5489,-3.5489,-3.5489,-3.5489,-3.5489,-3.5489,-3.5489,-3.5489,-3.5489,-3.5489,-3.5489,-3.5489,-3.5489,-3.5489,-3.5489,-3.5489,-3.5489,-3.5489,-3.5489,-3.5489,-3.5489,-3.5489,-3.5489,-3.5489,-3.5424,-3.5166,-3.4259,-3.3808,-3.3017,-3.2141,-3.1499,-3.0932,-3.0241,-2.9779,-2.9856,-2.9818,-2.983,-2.983,-2.9792,-2.9779,-2.9779,-2.9779,-2.9779,-2.9779,-2.9779,-2.9779,-2.9779,-5.5317,-5.4326,-5.3555,-5.3042,-5.2725,-5.1832,-5.1146,-5.0618,-4.9458,-4.8562,-4.7915,-4.7344,-4.6616,-4.5686,-4.5432,-4.5043,-4.4632,-4.4598,-4.4598,-4.4598,-4.4598,-4.4598,-4.4598,-4.4598,-4.4598,-4.4598,-4.4598,-4.4479,-4.413,-4.369,-4.3122,-4.254,-4.1644,-4.1052,-4.0747,-4.0333,-4.0113,-4.0113,-4.0113,-4.0113,-4.0113,-4.0113,-4.0113,-4.007,-3.9584,-3.9342,-3.9342,-3.9315,-3.9558,-4.007,-4.0113,-3.9952,-3.961,-3.8734,-3.7732,-3.6722,-3.6165,-3.5782,-3.5522,-3.5489,-3.5489,-3.5489,-3.5489,-3.5489,-3.5489,-3.5489,-3.5489,-3.5489,-3.5489,-3.5489,-3.5489,-3.5489,-3.5489,-3.5489,-3.5489,-3.5489,-3.5489,-3.5489,-3.5489,-3.5489,-3.5489,-3.5489,-3.5489,-3.5489,-3.5489,-3.5489,-3.5489,-3.5489,-3.5489,-3.5489,-3.5489,-3.5489,-3.5489,-3.5377,-3.5085,-3.4346,-3.3656,-3.3157,-3.2593,-3.2141,-3.1573,-3.0871,-3.0796,-3.0482,-3.0317,-2.9895,-2.9895,-2.9779,-2.9779,-2.9779,-2.9779,-2.9779,-2.9779,-2.9779,-2.9779,-5.5868,-5.4418,-5.383,-5.3445,-5.31,-5.2196,-5.1636,-5.1317,-5.0174,-4.926,-4.8613,-4.8124,-4.7344,-4.6481,-4.616,-4.5652,-4.4959,-4.4733,-4.4598,-4.4598,-4.4598,-4.4598,-4.4598,-4.4598,-4.4598,-4.4598,-4.4598,-4.4598,-4.4547,-4.4062,-4.369,-4.3308,-4.2354,-4.1779,-4.1491,-4.0815,-4.0443,-4.0426,-4.0248,-4.0113,-4.0113,-4.0113,-3.9952,-3.9688,-3.9166,-3.9016,-3.9262,-3.9289,-3.9489,-4.002,-4.0113,-3.9876,-3.9305,-3.8149,-3.707,-3.6275,-3.5782,-3.5489,-3.5489,-3.5489,-3.5489,-3.5489,-3.5489,-3.5489,-3.5489,-3.5489,-3.5489,-3.5489,-3.5489,-3.5489,-3.5489,-3.5489,-3.5489,-3.5489,-3.5489,-3.5489,-3.5489,-3.5489,-3.5489,-3.5489,-3.5489,-3.5489,-3.5489,-3.5489,-3.5489,-3.5489,-3.5489,-3.5489,-3.5489,-3.5489,-3.5489,-3.5489,-3.5489,-3.5489,-3.5344,-3.4905,-3.4279,-3.3774,-3.3518,-3.3171,-3.27,-3.2069,-3.1559,-3.1204,-3.0758,-3.0241,-2.9921,-2.9818,-2.9779,-2.9779,-2.9779,-2.9779,-2.9779,-2.9779,-2.9779,-5.5904,-5.4601,-5.4399,-5.394,-5.3311,-5.3014,-5.2662,-5.1952,-5.1241,-5.0382,-4.9597,-4.8554,-4.7889,-4.7652,-4.7056,-4.6397,-4.5686,-4.5038,-4.4666,-4.4615,-4.4598,-4.4598,-4.4598,-4.4598,-4.4598,-4.4598,-4.4598,-4.4598,-4.4581,-4.4496,-4.413,-4.3572,-4.3308,-4.2861,-4.2303,-4.161,-4.1187,-4.1018,-4.0493,-4.0163,-4.0113,-4.0113,-3.9756,-3.9086,-3.8908,-3.9166,-3.9876,-3.9927,-3.9952,-4.007,-4.0113,-3.9358,-3.8149,-3.7233,-3.6368,-3.575,-3.5504,-3.5504,-3.5489,-3.5489,-3.5489,-3.5489,-3.5489,-3.5489,-3.5489,-3.5489,-3.5489,-3.5489,-3.5489,-3.5489,-3.5489,-3.5489,-3.5489,-3.5489,-3.5489,-3.5489,-3.5489,-3.5489,-3.5489,-3.5489,-3.5489,-3.5489,-3.5489,-3.5489,-3.5489,-3.5489,-3.5489,-3.5489,-3.5489,-3.5489,-3.5489,-3.5489,-3.5489,-3.5489,-3.5489,-3.5424,-3.4839,-3.4327,-3.4211,-3.3959,-3.3463,-3.289,-3.2451,-3.2055,-3.1254,-3.0733,-3.0279,-3.0139,-2.9818,-2.9779,-2.9779,-2.9779,-2.9779,-2.9779,-2.9779,-5.651,-5.5941,-5.484,-5.4271,-5.3876,-5.2899,-5.2271,-5.1994,-5.0876,-5.0213,-4.9855,-4.9048,-4.8379,-4.7939,-4.7618,-4.7158,-4.643,-4.5703,-4.5077,-4.4699,-4.4615,-4.4598,-4.4598,-4.4598,-4.4598,-4.4598,-4.4598,-4.4598,-4.4598,-4.4598,-4.4445,-4.4181,-4.3673,-4.3318,-4.3047,-4.2337,-4.1745,-4.1221,-4.0984,-4.0629,-4.0163,-4.0113,-3.9688,-3.9005,-3.8924,-3.8827,-3.8541,-3.9022,-3.9532,-4.0045,-4.0096,-3.9385,-3.8048,-3.7573,-3.6814,-3.5701,-3.5489,-3.5489,-3.5489,-3.5489,-3.5489,-3.5489,-3.5489,-3.5489,-3.5489,-3.5489,-3.5489,-3.5489,-3.5489,-3.5489,-3.5489,-3.5489,-3.5489,-3.5489,-3.5489,-3.5489,-3.5489,-3.5489,-3.5489,-3.5489,-3.5489,-3.5489,-3.5489,-3.5489,-3.5489,-3.5489,-3.5489,-3.5489,-3.5489,-3.5489,-3.5489,-3.5489,-3.5489,-3.5489,-3.5489,-3.5489,-3.5198,-3.4872,-3.4791,-3.4691,-3.4225,-3.3822,-3.338,-3.2593,-3.1815,-3.1119,-3.0658,-3.0279,-2.9921,-2.9779,-2.9779,-2.9779,-2.9779,-2.9779,-2.9779,-5.7079,-5.6693,-5.5721,-5.4913,-5.4359,-5.3322,-5.2612,-5.1988,-5.0911,-5.0269,-4.9919,-4.9269,-4.8781,-4.8376,-4.8308,-4.7902,-4.7225,-4.6718,-4.6126,-4.5393,-4.4767,-4.4615,-4.4598,-4.4598,-4.4598,-4.4598,-4.4598,-4.4598,-4.4598,-4.4598,-4.4598,-4.4479,-4.4079,-4.3859,-4.3775,-4.3115,-4.2439,-4.2033,-4.1491,-4.0984,-4.0544,-4.0248,-3.9714,-3.9032,-3.8924,-3.8525,-3.7921,-3.8497,-3.9139,-3.9558,-3.9662,-3.9049,-3.7921,-3.7485,-3.6799,-3.5814,-3.5489,-3.5489,-3.5489,-3.5489,-3.5489,-3.5489,-3.5489,-3.5489,-3.5489,-3.5489,-3.5489,-3.5489,-3.5489,-3.5489,-3.5489,-3.5489,-3.5489,-3.5489,-3.5489,-3.5489,-3.5489,-3.5489,-3.5489,-3.5489,-3.5489,-3.5489,-3.5489,-3.5489,-3.5489,-3.5489,-3.5489,-3.5489,-3.5489,-3.5489,-3.5489,-3.5489,-3.5489,-3.5489,-3.5489,-3.5489,-3.5489,-3.5424,-3.5344,-3.5279,-3.5019,-3.4725,-3.4361,-3.2925,-3.1924,-3.0945,-3.0419,-3.0101,-2.9779,-2.9779,-2.9779,-2.9779,-2.9779,-2.9779,-2.9779,-5.7556,-5.6873,-5.6804,-5.5849,-5.4583,-5.4319,-5.3421,-5.2137,-5.1343,-5.0635,-4.9976,-4.9316,-4.9001,-4.8984,-4.8883,-4.8528,-4.8007,-4.7753,-4.7378,-4.6549,-4.5613,-4.4869,-4.4632,-4.4598,-4.4598,-4.4598,-4.4598,-4.4598,-4.4598,-4.4598,-4.4598,-4.4581,-4.453,-4.4581,-4.435,-4.3809,-4.3375,-4.3064,-4.2033,-4.1424,-4.1136,-4.0544,-3.9703,-3.8887,-3.8761,-3.8342,-3.7661,-3.8117,-3.8728,-3.8962,-3.9086,-3.8635,-3.7835,-3.7024,-3.6337,-3.5587,-3.5489,-3.5489,-3.5489,-3.5489,-3.5489,-3.5489,-3.5489,-3.5489,-3.5489,-3.5489,-3.5489,-3.5489,-3.5489,-3.5489,-3.5489,-3.5489,-3.5489,-3.5489,-3.5489,-3.5489,-3.5489,-3.5489,-3.5489,-3.5489,-3.5489,-3.5489,-3.5489,-3.5489,-3.5489,-3.5489,-3.5489,-3.5489,-3.5489,-3.5489,-3.5489,-3.5489,-3.5489,-3.5489,-3.5489,-3.5489,-3.5489,-3.5489,-3.5489,-3.5489,-3.5489,-3.5279,-3.5133,-3.3685,-3.2128,-3.1119,-3.0457,-3.0279,-2.996,-2.9779,-2.9779,-2.9779,-2.9779,-2.9779,-2.9779,-5.7868,-5.7629,-5.7042,-5.6216,-5.5244,-5.4656,-5.3517,-5.2119,-5.1386,-5.0635,-4.9947,-4.9286,-4.9018,-4.9018,-4.9018,-4.8883,-4.8612,-4.8142,-4.7855,-4.7513,-4.6667,-4.5579,-4.4784,-4.4615,-4.4615,-4.4615,-4.4598,-4.4598,-4.4598,-4.4598,-4.4598,-4.4598,-4.4598,-4.4598,-4.453,-4.4333,-4.3961,-4.346,-4.3088,-4.2236,-4.1339,-4.1035,-3.9961,-3.8266,-3.8137,-3.7456,-3.6368,-3.6783,-3.8117,-3.9594,-3.9166,-3.8553,-3.7777,-3.698,-3.6228,-3.5636,-3.5489,-3.5489,-3.5489,-3.5489,-3.5489,-3.5489,-3.5489,-3.5489,-3.5489,-3.5489,-3.5489,-3.5489,-3.5489,-3.5489,-3.5489,-3.5489,-3.5489,-3.5489,-3.5489,-3.5489,-3.5489,-3.5489,-3.5489,-3.5489,-3.5489,-3.5489,-3.5489,-3.5489,-3.5489,-3.5489,-3.5489,-3.5489,-3.5489,-3.5489,-3.5489,-3.5489,-3.5489,-3.5489,-3.5489,-3.5489,-3.5489,-3.5489,-3.5489,-3.5489,-3.5489,-3.5424,-3.5326,-3.482,-3.2961,-3.1719,-3.1267,-3.0945,-3.0533,-2.9779,-2.9779,-2.9779,-2.9779,-2.9779,-2.9779,-5.7978,-5.796,-5.7501,-5.6657,-5.557,-5.4797,-5.3427,-5.1761,-5.0955,-5.0241,-4.9593,-4.9182,-4.9001,-4.9018,-4.9018,-4.9018,-4.8934,-4.8578,-4.8409,-4.8257,-4.7597,-4.6464,-4.5382,-4.506,-4.4891,-4.4615,-4.4598,-4.4598,-4.4598,-4.4598,-4.4598,-4.4598,-4.4598,-4.4598,-4.4598,-4.4581,-4.4412,-4.3927,-4.3606,-4.2902,-4.2202,-4.1491,-4.0414,-3.8869,-3.8245,-3.7249,-3.6631,-3.6905,-3.7819,-3.8663,-3.837,-3.7745,-3.7293,-3.6554,-3.5943,-3.5489,-3.5489,-3.5489,-3.5489,-3.5489,-3.5489,-3.5489,-3.5489,-3.5489,-3.5489,-3.5489,-3.5489,-3.5489,-3.5489,-3.5489,-3.5489,-3.5489,-3.5489,-3.5489,-3.5489,-3.5489,-3.5489,-3.5489,-3.5489,-3.5489,-3.5489,-3.5489,-3.5489,-3.5489,-3.5489,-3.5489,-3.5489,-3.5489,-3.5489,-3.5489,-3.5489,-3.5489,-3.5489,-3.5489,-3.5489,-3.5489,-3.5489,-3.5489,-3.5489,-3.5489,-3.5489,-3.5457,-3.5213,-3.4787,-3.3463,-3.2415,-3.1829,-3.1132,-3.0279,-2.9779,-2.9779,-2.9779,-2.9779,-2.9779,-2.9779,-5.7978,-5.7978,-5.7978,-5.7116,-5.5764,-5.4989,-5.3475,-5.1405,-5.0579,-4.9792,-4.9152,-4.9032,-4.9018,-4.9018,-4.9018,-4.9018,-4.9018,-4.8934,-4.8951,-4.8731,-4.824,-4.7263,-4.6177,-4.5669,-4.5314,-4.4869,-4.4699,-4.4598,-4.4598,-4.4598,-4.4598,-4.4598,-4.4598,-4.4598,-4.4598,-4.4598,-4.4598,-4.4401,-4.3944,-4.3494,-4.3037,-4.2192,-4.1151,-4.0066,-3.8434,-3.7716,-3.7415,-3.7427,-3.7501,-3.756,-3.6964,-3.6964,-3.6737,-3.6038,-3.5554,-3.5489,-3.5489,-3.5489,-3.5489,-3.5489,-3.5489,-3.5489,-3.5489,-3.5489,-3.5489,-3.5489,-3.5489,-3.5489,-3.5489,-3.5489,-3.5489,-3.5489,-3.5489,-3.5489,-3.5489,-3.5489,-3.5489,-3.5489,-3.5489,-3.5489,-3.5489,-3.5489,-3.5489,-3.5489,-3.5489,-3.5489,-3.5489,-3.5489,-3.5489,-3.5489,-3.5489,-3.5489,-3.5489,-3.5489,-3.5489,-3.5489,-3.5489,-3.5489,-3.5489,-3.5489,-3.5489,-3.5392,-3.5001,-3.4409,-3.3754,-3.282,-3.1865,-3.1057,-3.0203,-2.9779,-2.9779,-2.9779,-2.9779,-2.9779,-2.9779,-5.7978,-5.7978,-5.7978,-5.7446,-5.6506,-5.5697,-5.4092,-5.1997,-5.1167,-5.0022,-4.9212,-4.9018,-4.9018,-4.9018,-4.9018,-4.9018,-4.9018,-4.9018,-4.9018,-4.8968,-4.8883,-4.8291,-4.7263,-4.6397,-4.5669,-4.5314,-4.4852,-4.4632,-4.4598,-4.4598,-4.4598,-4.4598,-4.4598,-4.4598,-4.4598,-4.4598,-4.4598,-4.4564,-4.4367,-4.3978,-4.3538,-4.3088,-4.2181,-4.0892,-3.8926,-3.7557,-3.6846,-3.629,-3.599,-3.6227,-3.6965,-3.7499,-3.7115,-3.6164,-3.5554,-3.5489,-3.5489,-3.5489,-3.5489,-3.5489,-3.5489,-3.5489,-3.5489,-3.5489,-3.5489,-3.5489,-3.5489,-3.5489,-3.5489,-3.5489,-3.5489,-3.5489,-3.5489,-3.5489,-3.5489,-3.5489,-3.5489,-3.5489,-3.5489,-3.5489,-3.5489,-3.5489,-3.5489,-3.5489,-3.5489,-3.5489,-3.5489,-3.5489,-3.5489,-3.5489,-3.5489,-3.5489,-3.5489,-3.5489,-3.5489,-3.5489,-3.5489,-3.5489,-3.5489,-3.5489,-3.5489,-3.5489,-3.5213,-3.4839,-3.4394,-3.3359,-3.2069,-3.1254,-3.0444,-3.0139,-2.9779,-2.9779,-2.9779,-2.9779,-2.9779,-5.7978,-5.7978,-5.7978,-5.7538,-5.664,-5.5238,-5.3728,-5.2174,-5.0683,-4.971,-4.9138,-4.9018,-4.9018,-4.9018,-4.9018,-4.9018,-4.9018,-4.9018,-4.9018,-4.9001,-4.8984,-4.8798,-4.8359,-4.7293,-4.6464,-4.5771,-4.4942,-4.4649,-4.4598,-4.4598,-4.4598,-4.4598,-4.4598,-4.4598,-4.4598,-4.4598,-4.4598,-4.4598,-4.4598,-4.435,-4.4012,-4.3544,-4.2718,-4.1319,-3.9645,-3.8458,-3.7769,-3.7375,-3.7191,-3.7308,-3.779,-3.7732,-3.6829,-3.599,-3.5554,-3.5489,-3.5489,-3.5489,-3.5489,-3.5489,-3.5489,-3.5489,-3.5489,-3.5489,-3.5489,-3.5489,-3.5489,-3.5489,-3.5489,-3.5489,-3.5489,-3.5489,-3.5489,-3.5489,-3.5489,-3.5489,-3.5489,-3.5489,-3.5489,-3.5489,-3.5489,-3.5489,-3.5489,-3.5489,-3.5489,-3.5489,-3.5489,-3.5489,-3.5489,-3.5489,-3.5489,-3.5489,-3.5489,-3.5489,-3.5489,-3.5489,-3.5489,-3.5489,-3.5489,-3.5489,-3.5489,-3.5489,-3.5457,-3.5052,-3.4576,-3.3463,-3.2285,-3.1476,-3.0696,-3.0101,-2.9779,-2.9779,-2.9779,-2.9779,-2.9779,-5.7978,-5.7978,-5.7978,-5.7611,-5.6699,-5.4673,-5.3309,-5.2262,-5.013,-4.9273,-4.9018,-4.9018,-4.9018,-4.9018,-4.9018,-4.9018,-4.9018,-4.9018,-4.9018,-4.9018,-4.9018,-4.8968,-4.8697,-4.8037,-4.7196,-4.6024,-4.5229,-4.4852,-4.4649,-4.4598,-4.4598,-4.4598,-4.4598,-4.4598,-4.4598,-4.4598,-4.4598,-4.4598,-4.4598,-4.4581,-4.4479,-4.3927,-4.2998,-4.1855,-4.0918,-4.0038,-3.9337,-3.8849,-3.8649,-3.8727,-3.8629,-3.744,-3.6164,-3.5636,-3.5554,-3.5554,-3.5489,-3.5489,-3.5489,-3.5489,-3.5489,-3.5489,-3.5489,-3.5489,-3.5489,-3.5489,-3.5489,-3.5489,-3.5489,-3.5489,-3.5489,-3.5489,-3.5489,-3.5489,-3.5489,-3.5489,-3.5489,-3.5489,-3.5489,-3.5489,-3.5489,-3.5489,-3.5489,-3.5489,-3.5489,-3.5489,-3.5489,-3.5489,-3.5489,-3.5489,-3.5489,-3.5489,-3.5489,-3.5489,-3.5489,-3.5489,-3.5489,-3.5489,-3.5489,-3.5489,-3.5489,-3.5489,-3.5424,-3.518,-3.4558,-3.3581,-3.2642,-3.1865,-3.1057,-3.0177,-2.9779,-2.9779,-2.9779,-2.9779,-2.9779,-5.7978,-5.7978,-5.7978,-5.7905,-5.7464,-5.5359,-5.3977,-5.2998,-5.0804,-4.9521,-4.9046,-4.9018,-4.9018,-4.9018,-4.9018,-4.9018,-4.9018,-4.9018,-4.9018,-4.9018,-4.9018,-4.9018,-4.8866,-4.8376,-4.7753,-4.7246,-4.6278,-4.5348,-4.4801,-4.4598,-4.4598,-4.4598,-4.4598,-4.4598,-4.4598,-4.4598,-4.4598,-4.4598,-4.4598,-4.4598,-4.453,-4.435,-4.3905,-4.292,-4.2199,-4.1453,-4.0623,-3.957,-3.8595,-3.7962,-3.7322,-3.66,-3.5972,-3.6132,-3.6023,-3.5636,-3.5489,-3.5489,-3.5489,-3.5489,-3.5489,-3.5489,-3.5489,-3.5489,-3.5489,-3.5489,-3.5489,-3.5489,-3.5489,-3.5489,-3.5489,-3.5489,-3.5489,-3.5489,-3.5489,-3.5489,-3.5489,-3.5489,-3.5489,-3.5489,-3.5489,-3.5489,-3.5489,-3.5489,-3.5489,-3.5489,-3.5489,-3.5489,-3.5489,-3.5489,-3.5489,-3.5489,-3.5489,-3.5489,-3.5489,-3.5489,-3.5489,-3.5489,-3.5489,-3.5489,-3.5489,-3.5489,-3.5392,-3.5246,-3.4854,-3.4124,-3.322,-3.2177,-3.1156,-3.0177,-2.9921,-2.9779,-2.9779,-2.9779,-2.9779,-5.7978,-5.7978,-5.7978,-5.7978,-5.7592,-5.5571,-5.4406,-5.3687,-5.1227,-4.9821,-4.9492,-4.9182,-4.9018,-4.9018,-4.9018,-4.9018,-4.9018,-4.9018,-4.9018,-4.9018,-4.9018,-4.9018,-4.9018,-4.8578,-4.824,-4.7834,-4.7107,-4.6177,-4.5213,-4.4767,-4.4649,-4.4598,-4.4598,-4.4598,-4.4598,-4.4598,-4.4598,-4.4598,-4.4598,-4.4598,-4.4598,-4.4598,-4.4299,-4.3951,-4.3284,-4.2527,-4.1774,-4.1221,-4.0069,-3.9109,-3.8613,-3.7757,-3.6971,-3.6427,-3.6259,-3.5668,-3.5489,-3.5489,-3.5489,-3.5489,-3.5489,-3.5489,-3.5489,-3.5489,-3.5489,-3.5489,-3.5489,-3.5489,-3.5489,-3.5489,-3.5489,-3.5489,-3.5489,-3.5489,-3.5489,-3.5489,-3.5489,-3.5489,-3.5489,-3.5489,-3.5489,-3.5489,-3.5489,-3.5489,-3.5489,-3.5489,-3.5489,-3.5489,-3.5489,-3.5489,-3.5489,-3.5489,-3.5489,-3.5489,-3.5489,-3.5489,-3.5489,-3.5489,-3.5489,-3.5489,-3.5489,-3.5489,-3.5489,-3.5424,-3.4953,-3.4293,-3.322,-3.201,-3.1057,-3.0254,-2.996,-2.9779,-2.9779,-2.9779,-2.9779,-5.7978,-5.7978,-5.7978,-5.7978,-5.7629,-5.5571,-5.4616,-5.3983,-5.132,-4.9987,-4.989,-4.9346,-4.9018,-4.9018,-4.9018,-4.9018,-4.9018,-4.9018,-4.9018,-4.9018,-4.9018,-4.9018,-4.9018,-4.8951,-4.8697,-4.8291,-4.7834,-4.7111,-4.5771,-4.5145,-4.479,-4.4632,-4.4598,-4.4598,-4.4598,-4.4598,-4.4598,-4.4598,-4.4598,-4.4598,-4.4598,-4.4598,-4.4598,-4.4581,-4.3978,-4.3362,-4.2906,-4.2478,-4.1692,-4.0694,-3.9946,-3.921,-3.7826,-3.697,-3.627,-3.5634,-3.5489,-3.5489,-3.5489,-3.5489,-3.5489,-3.5489,-3.5489,-3.5489,-3.5489,-3.5489,-3.5489,-3.5489,-3.5489,-3.5489,-3.5489,-3.5489,-3.5489,-3.5489,-3.5489,-3.5489,-3.5489,-3.5489,-3.5489,-3.5489,-3.5489,-3.5489,-3.5489,-3.5489,-3.5489,-3.5489,-3.5489,-3.5489,-3.5489,-3.5489,-3.5489,-3.5489,-3.5489,-3.5489,-3.5489,-3.5489,-3.5489,-3.5489,-3.5489,-3.5489,-3.5489,-3.5489,-3.5489,-3.5457,-3.4677,-3.3925,-3.2855,-3.2105,-3.1439,-3.0809,-3.0177,-2.9818,-2.9779,-2.9779,-2.9779,-5.7978,-5.7978,-5.7978,-5.7978,-5.767,-5.5595,-5.4598,-5.4233,-5.1411,-5.0004,-5.0044,-4.9359,-4.9063,-4.9018,-4.9018,-4.9018,-4.9018,-4.9018,-4.9018,-4.9018,-4.9018,-4.9018,-4.9018,-4.9018,-4.8951,-4.8663,-4.8223,-4.709,-4.6126,-4.5686,-4.5196,-4.4818,-4.4649,-4.4598,-4.4598,-4.4598,-4.4598,-4.4598,-4.4598,-4.4598,-4.4598,-4.4598,-4.4598,-4.4564,-4.4434,-4.426,-4.4002,-4.3557,-4.2797,-4.1972,-4.0626,-3.9304,-3.7888,-3.6947,-3.6228,-3.5731,-3.5489,-3.5489,-3.5489,-3.5489,-3.5489,-3.5489,-3.5489,-3.5489,-3.5489,-3.5489,-3.5489,-3.5489,-3.5489,-3.5489,-3.5489,-3.5489,-3.5489,-3.5489,-3.5489,-3.5489,-3.5489,-3.5489,-3.5489,-3.5489,-3.5489,-3.5489,-3.5489,-3.5489,-3.5489,-3.5489,-3.5489,-3.5489,-3.5489,-3.5489,-3.5489,-3.5489,-3.5489,-3.5489,-3.5489,-3.5489,-3.5489,-3.5489,-3.5489,-3.5489,-3.5489,-3.5489,-3.5489,-3.5264,-3.4528,-3.4027,-3.3463,-3.2784,-3.2033,-3.1119,-3.0177,-2.9856,-2.9779,-2.9779,-2.9779,-5.7978,-5.7978,-5.7978,-5.7978,-5.7753,-5.5962,-5.5158,-5.4607,-5.2384,-5.0981,-5.0527,-4.9913,-4.9424,-4.9124,-4.9018,-4.9018,-4.9018,-4.9018,-4.9018,-4.9018,-4.9018,-4.9018,-4.9018,-4.9018,-4.9018,-4.8917,-4.8646,-4.8122,-4.7039,-4.6109,-4.5483,-4.5246,-4.4835,-4.4598,-4.4666,-4.4615,-4.4598,-4.4598,-4.4598,-4.4598,-4.4598,-4.4598,-4.4598,-4.4598,-4.4598,-4.4598,-4.4513,-4.4333,-4.368,-4.2874,-4.1733,-4.0778,-3.9439,-3.8213,-3.7006,-3.6775,-3.5914,-3.5552,-3.5489,-3.5519,-3.5489,-3.5489,-3.5489,-3.5489,-3.5489,-3.5489,-3.5489,-3.5489,-3.5489,-3.5489,-3.5489,-3.5489,-3.5489,-3.5489,-3.5489,-3.5489,-3.5489,-3.5489,-3.5489,-3.5489,-3.5489,-3.5489,-3.5489,-3.5489,-3.5489,-3.5489,-3.5489,-3.5489,-3.5489,-3.5489,-3.5489,-3.5489,-3.5489,-3.5489,-3.5489,-3.5489,-3.5489,-3.5489,-3.5489,-3.5489,-3.5489,-3.5489,-3.5489,-3.5504,-3.5133,-3.4624,-3.4075,-3.2925,-3.1683,-3.0833,-3.0075,-2.9934,-2.9779,-2.9779,-2.9779,-5.7978,-5.7978,-5.7978,-5.7978,-5.7831,-5.6271,-5.5592,-5.5306,-5.307,-5.1808,-5.1215,-5.0452,-4.9727,-4.9286,-4.9107,-4.9018,-4.9018,-4.9018,-4.9018,-4.9018,-4.9018,-4.9018,-4.9018,-4.9018,-4.9018,-4.9018,-4.8951,-4.8595,-4.7953,-4.7073,-4.6312,-4.5957,-4.5297,-4.4976,-4.484,-4.4716,-4.4598,-4.4598,-4.4598,-4.4598,-4.4598,-4.4598,-4.4598,-4.4598,-4.4598,-4.4598,-4.4598,-4.4564,-4.4145,-4.3689,-4.2884,-4.2008,-4.1024,-3.9659,-3.8418,-3.79,-3.7002,-3.6444,-3.6129,-3.5833,-3.5564,-3.5489,-3.5489,-3.5489,-3.5489,-3.5489,-3.5489,-3.5489,-3.5489,-3.5489,-3.5489,-3.5489,-3.5489,-3.5489,-3.5489,-3.5489,-3.5489,-3.5489,-3.5489,-3.5489,-3.5489,-3.5489,-3.5489,-3.5489,-3.5489,-3.5489,-3.5489,-3.5489,-3.5489,-3.5489,-3.5489,-3.5489,-3.5489,-3.5489,-3.5489,-3.5489,-3.5489,-3.5489,-3.5489,-3.5489,-3.5489,-3.5489,-3.5489,-3.5472,-3.5407,-3.4491,-3.3463,-3.2357,-3.1291,-3.0796,-3.0343,-2.996,-2.9779,-2.9779,-2.9779,-5.7978,-5.7978,-5.7978,-5.7978,-5.7886,-5.6271,-5.5614,-5.5405,-5.3139,-5.2131,-5.1765,-5.0716,-5.0061,-4.9792,-4.9389,-4.9107,-4.9032,-4.9001,-4.9018,-4.9018,-4.9018,-4.9018,-4.9018,-4.9018,-4.9018,-4.9018,-4.9018,-4.8968,-4.8748,-4.8054,-4.731,-4.6701,-4.5889,-4.5686,-4.5348,-4.4919,-4.4632,-4.4598,-4.4598,-4.4598,-4.4598,-4.4598,-4.4598,-4.4598,-4.4598,-4.4598,-4.4598,-4.4598,-4.4525,-4.431,-4.3677,-4.3115,-4.2279,-4.1132,-4.0005,-3.9188,-3.8511,-3.7938,-3.7425,-3.6313,-3.5609,-3.5519,-3.5504,-3.5549,-3.5669,-3.5579,-3.5534,-3.5609,-3.5684,-3.5564,-3.5549,-3.5489,-3.5489,-3.5489,-3.5489,-3.5489,-3.5489,-3.5489,-3.5489,-3.5489,-3.5489,-3.5489,-3.5489,-3.5489,-3.5489,-3.5489,-3.5489,-3.5489,-3.5489,-3.5489,-3.5489,-3.5489,-3.5489,-3.5489,-3.5489,-3.5489,-3.5489,-3.5489,-3.5489,-3.5489,-3.5489,-3.5489,-3.5489,-3.5246,-3.5019,-3.3973,-3.2996,-3.2141,-3.1476,-3.1044,-3.0582,-3.0024,-2.9779,-2.9779,-2.9779,-5.7978,-5.7978,-5.7978,-5.7978,-5.7886,-5.6271,-5.5614,-5.5295,-5.361,-5.249,-5.2065,-5.112,-5.0662,-5.049,-4.9965,-4.9622,-4.9534,-4.9138,-4.9063,-4.9001,-4.9018,-4.9018,-4.9018,-4.9018,-4.9018,-4.9018,-4.9018,-4.9018,-4.8934,-4.8629,-4.8545,-4.7817,-4.6583,-4.5872,-4.5449,-4.5026,-4.4682,-4.4598,-4.4598,-4.4598,-4.4598,-4.4598,-4.4598,-4.4598,-4.4598,-4.4598,-4.4598,-4.4598,-4.4598,-4.4497,-4.4224,-4.3887,-4.3487,-4.2436,-4.1553,-4.0725,-4.0083,-3.9345,-3.8678,-3.7275,-3.6016,-3.5534,-3.5519,-3.5699,-3.6043,-3.6103,-3.6118,-3.6118,-3.6088,-3.6028,-3.5579,-3.5519,-3.5489,-3.5489,-3.5489,-3.5489,-3.5489,-3.5489,-3.5489,-3.5489,-3.5489,-3.5489,-3.5489,-3.5489,-3.5489,-3.5489,-3.5489,-3.5489,-3.5489,-3.5489,-3.5489,-3.5489,-3.5489,-3.5489,-3.5489,-3.5489,-3.5489,-3.5489,-3.5489,-3.5489,-3.5489,-3.5489,-3.5424,-3.5133,-3.4691,-3.3788,-3.2925,-3.2177,-3.1439,-3.0696,-3.0241,-2.9882,-2.9779,-2.9779,-2.9779,-5.7978,-5.7978,-5.7978,-5.7978,-5.7776,-5.6271,-5.5614,-5.5317,-5.3864,-5.2937,-5.2381,-5.1716,-5.1393,-5.1197,-5.0662,-5.0129,-4.9907,-4.9534,-4.9195,-4.9077,-4.9018,-4.9018,-4.9018,-4.9018,-4.9018,-4.9018,-4.9018,-4.9018,-4.9018,-4.9018,-4.89,-4.8359,-4.7361,-4.6549,-4.5855,-4.5077,-4.4615,-4.4598,-4.4598,-4.4598,-4.4598,-4.4598,-4.4598,-4.4598,-4.4598,-4.4598,-4.4598,-4.4598,-4.4598,-4.4598,-4.4525,-4.457,-4.4181,-4.3685,-4.2933,-4.2229,-4.149,-4.0586,-3.9756,-3.8477,-3.6881,-3.6364,-3.6193,-3.6417,-3.6611,-3.6761,-3.6761,-3.6761,-3.6731,-3.6552,-3.6013,-3.6043,-3.5938,-3.5953,-3.5564,-3.5489,-3.5489,-3.5489,-3.5489,-3.5489,-3.5489,-3.5489,-3.5489,-3.5489,-3.5489,-3.5489,-3.5489,-3.5489,-3.5489,-3.5489,-3.5489,-3.5489,-3.5489,-3.5489,-3.5489,-3.5489,-3.5489,-3.5489,-3.5489,-3.5489,-3.5489,-3.5489,-3.5457,-3.5311,-3.4706,-3.3719,-3.2855,-3.2046,-3.1057,-3.0075,-2.9856,-2.9779,-2.9779,-2.9779,-2.9779,-5.7978,-5.7978,-5.7978,-5.7978,-5.7813,-5.6294,-5.5614,-5.5412,-5.3922,-5.3164,-5.298,-5.2376,-5.2089,-5.1928,-5.135,-5.085,-5.0307,-5.0033,-4.9634,-4.9256,-4.9063,-4.9032,-4.9018,-4.9018,-4.9018,-4.9018,-4.9018,-4.9018,-4.9018,-4.9018,-4.9018,-4.8815,-4.8003,-4.7225,-4.6667,-4.5343,-4.4666,-4.4615,-4.4666,-4.4598,-4.4598,-4.4598,-4.4598,-4.4598,-4.4598,-4.4598,-4.4598,-4.4598,-4.4598,-4.4598,-4.4598,-4.4598,-4.4474,-4.4412,-4.3937,-4.3304,-4.2528,-4.1661,-4.0709,-3.9392,-3.8246,-3.7271,-3.6926,-3.715,-3.733,-3.7404,-3.7404,-3.7404,-3.7389,-3.736,-3.7105,-3.6836,-3.6582,-3.6327,-3.5968,-3.5684,-3.5714,-3.5489,-3.5489,-3.5489,-3.5489,-3.5489,-3.5489,-3.5489,-3.5489,-3.5489,-3.5489,-3.5489,-3.5489,-3.5489,-3.5489,-3.5489,-3.5489,-3.5489,-3.5489,-3.5489,-3.5489,-3.5489,-3.5489,-3.5489,-3.5489,-3.5489,-3.5472,-3.5407,-3.4491,-3.3325,-3.2571,-3.1829,-3.0809,-2.9895,-2.9818,-2.9779,-2.9779,-2.9779,-2.9779,-5.7978,-5.7978,-5.7978,-5.7978,-5.7758,-5.6271,-5.5614,-5.5317,-5.3995,-5.3185,-5.3164,-5.2875,-5.2831,-5.2617,-5.2112,-5.1593,-5.1274,-5.0167,-4.9734,-4.9664,-4.9286,-4.9032,-4.9001,-4.9032,-4.9001,-4.9018,-4.9018,-4.9018,-4.9018,-4.9018,-4.9018,-4.8832,-4.8359,-4.7547,-4.6752,-4.5805,-4.5331,-4.5229,-4.4953,-4.4598,-4.4598,-4.4598,-4.4598,-4.4598,-4.4598,-4.4598,-4.4598,-4.4598,-4.4598,-4.4598,-4.4598,-4.4598,-4.4598,-4.4598,-4.444,-4.4138,-4.368,-4.3031,-4.1821,-4.0487,-3.9174,-3.8137,-3.7539,-3.7734,-3.7958,-3.8048,-3.8063,-3.8063,-3.8078,-3.7913,-3.7404,-3.727,-3.7075,-3.6971,-3.6656,-3.6327,-3.6133,-3.5714,-3.5489,-3.5489,-3.5489,-3.5489,-3.5489,-3.5489,-3.5489,-3.5489,-3.5489,-3.5489,-3.5489,-3.5489,-3.5489,-3.5489,-3.5489,-3.5489,-3.5489,-3.5489,-3.5489,-3.5489,-3.5489,-3.5489,-3.5489,-3.5489,-3.5489,-3.5472,-3.4192,-3.2925,-3.2119,-3.1267,-3.0495,-2.9908,-2.9818,-2.9779,-2.9779,-2.9779,-2.9779,-5.7978,-5.7978,-5.7978,-5.7978,-5.7776,-5.6565,-5.5757,-5.5042,-5.3812,-5.3185,-5.3185,-5.3185,-5.3164,-5.302,-5.2729,-5.2247,-5.2024,-5.1249,-5.0472,-5.0352,-4.9681,-4.9479,-4.9329,-4.9107,-4.9001,-4.9018,-4.9018,-4.9018,-4.9018,-4.9018,-4.9018,-4.8883,-4.8545,-4.8189,-4.7394,-4.6599,-4.5635,-4.5432,-4.5026,-4.4598,-4.4598,-4.4598,-4.4598,-4.4598,-4.4598,-4.4598,-4.4598,-4.4598,-4.4598,-4.4598,-4.4598,-4.4598,-4.4598,-4.4598,-4.4598,-4.457,-4.4121,-4.3213,-4.174,-4.1049,-3.9692,-3.8437,-3.8123,-3.8302,-3.8646,-3.8736,-3.8751,-3.8766,-3.8736,-3.8512,-3.8133,-3.7968,-3.7719,-3.7614,-3.727,-3.6926,-3.6447,-3.6028,-3.5699,-3.5669,-3.5504,-3.5504,-3.5489,-3.5489,-3.5489,-3.5489,-3.5489,-3.5489,-3.5489,-3.5489,-3.5489,-3.5489,-3.5489,-3.5489,-3.5489,-3.5489,-3.5489,-3.5489,-3.5489,-3.5489,-3.5489,-3.5489,-3.5489,-3.5279,-3.3939,-3.2692,-3.1599,-3.0722,-3.0113,-2.9869,-2.9818,-2.9779,-2.9779,-2.9779,-2.9779,-5.7978,-5.7978,-5.7978,-5.7978,-5.785,-5.706,-5.5886,-5.4399,-5.3534,-5.3185,-5.3185,-5.3185,-5.3185,-5.3185,-5.3164,-5.2791,-5.2271,-5.2,-5.1569,-5.106,-5.038,-5.0129,-4.9751,-4.9389,-4.9182,-4.9063,-4.9018,-4.9018,-4.9018,-4.9018,-4.9018,-4.9018,-4.8883,-4.8697,-4.8088,-4.7158,-4.6177,-4.5821,-4.5263,-4.4835,-4.4666,-4.4598,-4.4598,-4.4598,-4.4598,-4.4598,-4.4598,-4.4598,-4.4598,-4.4598,-4.4598,-4.4598,-4.4598,-4.4598,-4.4598,-4.4367,-4.3827,-4.2583,-4.1609,-4.118,-4.0416,-3.9395,-3.9242,-3.9334,-3.9269,-3.9194,-3.92,-3.9215,-3.92,-3.9239,-3.9194,-3.8826,-3.8422,-3.8138,-3.7793,-3.736,-3.6851,-3.6447,-3.6103,-3.5878,-3.5609,-3.5519,-3.5504,-3.5489,-3.5489,-3.5489,-3.5489,-3.5489,-3.5489,-3.5489,-3.5489,-3.5489,-3.5489,-3.5489,-3.5489,-3.5489,-3.5489,-3.5489,-3.5489,-3.5489,-3.5489,-3.5489,-3.5489,-3.5019,-3.365,-3.2371,-3.1033,-3.033,-2.996,-2.9779,-2.9779,-2.9779,-2.9779,-2.9779,-2.9779,-5.7978,-5.7978,-5.7978,-5.7978,-5.7868,-5.7134,-5.5886,-5.4399,-5.3555,-5.3185,-5.3185,-5.3185,-5.3185,-5.3185,-5.3185,-5.3042,-5.2747,-5.2381,-5.2047,-5.1593,-5.1112,-5.0527,-5.0072,-4.9763,-4.9449,-4.9138,-4.9018,-4.9018,-4.9018,-4.9018,-4.9018,-4.9018,-4.9018,-4.9018,-4.8612,-4.7821,-4.7107,-4.6329,-4.5635,-4.5077,-4.4716,-4.4598,-4.4598,-4.4598,-4.4598,-4.4598,-4.4598,-4.4598,-4.4598,-4.4598,-4.4598,-4.4598,-4.4598,-4.4598,-4.457,-4.4497,-4.3844,-4.3,-4.2458,-4.1412,-4.0588,-4.0205,-3.9793,-3.9445,-3.9388,-3.9388,-3.9388,-3.9388,-3.9388,-3.9388,-3.9388,-3.9155,-3.8945,-3.8751,-3.8377,-3.7928,-3.7404,-3.6836,-3.6477,-3.5968,-3.5699,-3.5519,-3.5489,-3.5489,-3.5489,-3.5489,-3.5489,-3.5489,-3.5489,-3.5489,-3.5489,-3.5489,-3.5489,-3.5489,-3.5489,-3.5489,-3.5489,-3.5489,-3.5489,-3.5489,-3.5489,-3.5489,-3.5489,-3.4773,-3.3463,-3.1878,-3.0254,-2.9869,-2.9779,-2.9779,-2.9779,-2.9779,-2.9779,-2.9779,-2.9779,-5.7978,-5.7978,-5.7978,-5.7978,-5.7795,-5.6785,-5.5702,-5.4803,-5.4014,-5.3537,-5.3203,-5.3185,-5.3185,-5.3185,-5.3185,-5.3164,-5.3124,-5.2831,-5.2554,-5.2399,-5.1808,-5.1146,-5.0635,-5.01,-4.9563,-4.9226,-4.9001,-4.9018,-4.9018,-4.9018,-4.9018,-4.9018,-4.9018,-4.9018,-4.8832,-4.8443,-4.775,-4.687,-4.6041,-4.5348,-4.4902,-4.4598,-4.4598,-4.4598,-4.4598,-4.4598,-4.4598,-4.4598,-4.4598,-4.4598,-4.4598,-4.4598,-4.4598,-4.4598,-4.4598,-4.4497,-4.4224,-4.3621,-4.3078,-4.2395,-4.1543,-4.0792,-4.0239,-3.9844,-3.9517,-3.9388,-3.9388,-3.9388,-3.9388,-3.9388,-3.9388,-3.9373,-3.9373,-3.9343,-3.8975,-3.8556,-3.7928,-3.7285,-3.6716,-3.6133,-3.5804,-3.5579,-3.5489,-3.5489,-3.5489,-3.5489,-3.5489,-3.5489,-3.5489,-3.5489,-3.5489,-3.5489,-3.5489,-3.5489,-3.5489,-3.5489,-3.5489,-3.5489,-3.5489,-3.5489,-3.5489,-3.5279,-3.51,-3.4327,-3.329,-3.1696,-3.0113,-2.9895,-2.9779,-2.9779,-2.9779,-2.9779,-2.9779,-2.9779,-2.9779,-5.7978,-5.7978,-5.7978,-5.7923,-5.7685,-5.6363,-5.5647,-5.5427,-5.4601,-5.394,-5.3295,-5.3185,-5.3185,-5.3185,-5.3185,-5.3185,-5.3185,-5.306,-5.2999,-5.3164,-5.2531,-5.185,-5.1164,-5.0527,-5.0072,-4.9432,-4.9107,-4.9212,-4.9032,-4.9018,-4.9018,-4.9018,-4.9018,-4.9018,-4.8968,-4.89,-4.8223,-4.7192,-4.6312,-4.5551,-4.4869,-4.4598,-4.4598,-4.4598,-4.4598,-4.4598,-4.4598,-4.4598,-4.4598,-4.4598,-4.4598,-4.4598,-4.4598,-4.4598,-4.4598,-4.457,-4.444,-4.4167,-4.368,-4.3108,-4.2332,-4.1543,-4.0826,-4.0378,-4.006,-3.9517,-3.9424,-3.9388,-3.9388,-3.9388,-3.9388,-3.9388,-3.9388,-3.9388,-3.9164,-3.8856,-3.8407,-3.7629,-3.6776,-3.6193,-3.5684,-3.5489,-3.5489,-3.5489,-3.5489,-3.5489,-3.5489,-3.5489,-3.5489,-3.5489,-3.5489,-3.5489,-3.5489,-3.5489,-3.5489,-3.5489,-3.5489,-3.5489,-3.5489,-3.5489,-3.5489,-3.5133,-3.4658,-3.3685,-3.2678,-3.1549,-3.0343,-3.0024,-2.9779,-2.9779,-2.9779,-2.9779,-2.9779,-2.9779,-2.9779,-5.7978,-5.7978,-5.7978,-5.7648,-5.7079,-5.6675,-5.5776,-5.4711,-5.4509,-5.394,-5.3316,-5.3185,-5.3185,-5.3185,-5.3185,-5.3185,-5.3185,-5.3185,-5.3185,-5.3185,-5.2893,-5.2399,-5.1928,-5.1426,-5.0752,-5.01,-4.9693,-4.9389,-4.9077,-4.9018,-4.9018,-4.9018,-4.9018,-4.9018,-4.9018,-4.9001,-4.846,-4.7496,-4.687,-4.5906,-4.5004,-4.4682,-4.4598,-4.4598,-4.4598,-4.4598,-4.4598,-4.4598,-4.4598,-4.4598,-4.4598,-4.4598,-4.4598,-4.4598,-4.4598,-4.4598,-4.4598,-4.4384,-4.415,-4.371,-4.3047,-4.263,-4.1997,-4.1247,-4.0569,-3.9829,-3.9445,-3.946,-3.9388,-3.9388,-3.9388,-3.9388,-3.9388,-3.9388,-3.9358,-3.9074,-3.8745,-3.7778,-3.6791,-3.6193,-3.5624,-3.5489,-3.5489,-3.5489,-3.5489,-3.5489,-3.5489,-3.5489,-3.5489,-3.5489,-3.5489,-3.5489,-3.5489,-3.5489,-3.5489,-3.5489,-3.5489,-3.5489,-3.5489,-3.5489,-3.5489,-3.4872,-3.4225,-3.308,-3.201,-3.1057,-3.0343,-2.996,-2.9779,-2.9779,-2.9779,-2.9779,-2.9779,-2.9779,-2.9779,-5.7978,-5.7978,-5.7978,-5.7538,-5.6822,-5.6436,-5.5537,-5.4473,-5.4032,-5.3628,-5.3243,-5.3185,-5.3185,-5.3185,-5.3185,-5.3185,-5.3185,-5.3185,-5.3185,-5.3185,-5.3103,-5.268,-5.2381,-5.2112,-5.1068,-5.0324,-4.9693,-4.9286,-4.9063,-4.9018,-4.9018,-4.9018,-4.9018,-4.9018,-4.9018,-4.8951,-4.8646,-4.7902,-4.7462,-4.6633,-4.5449,-4.5072,-4.4666,-4.4598,-4.4598,-4.4598,-4.4598,-4.4598,-4.4598,-4.4598,-4.4598,-4.4598,-4.4598,-4.4598,-4.4598,-4.4598,-4.4598,-4.4598,-4.444,-4.4167,-4.3667,-4.3276,-4.3017,-4.2157,-4.1511,-4.0808,-4.006,-3.997,-3.9481,-3.9388,-3.9388,-3.9388,-3.9388,-3.9388,-3.9254,-3.9029,-3.8138,-3.6971,-3.6297,-3.5833,-3.5489,-3.5489,-3.5489,-3.5489,-3.5489,-3.5489,-3.5489,-3.5489,-3.5489,-3.5489,-3.5489,-3.5489,-3.5489,-3.5489,-3.5489,-3.5489,-3.5489,-3.5489,-3.5489,-3.5489,-3.5392,-3.4576,-3.3719,-3.2784,-3.1865,-3.0945,-3.0305,-2.9921,-2.9779,-2.9779,-2.9779,-2.9779,-2.9779,-2.9779,-2.9779,-5.7978,-5.7978,-5.7978,-5.7464,-5.662,-5.5923,-5.5078,-5.4216,-5.3518,-5.3222,-5.3203,-5.3185,-5.3185,-5.3185,-5.3185,-5.3185,-5.3185,-5.3185,-5.3185,-5.3185,-5.3185,-5.2915,-5.2599,-5.2206,-5.1393,-5.0407,-4.9534,-4.9226,-4.9001,-4.9018,-4.9018,-4.9018,-4.9018,-4.9018,-4.9018,-4.8951,-4.8697,-4.8274,-4.7868,-4.753,-4.6583,-4.5551,-4.5055,-4.4784,-4.4649,-4.4615,-4.4598,-4.4598,-4.4598,-4.4598,-4.4598,-4.4598,-4.4598,-4.4598,-4.4598,-4.4598,-4.4598,-4.4598,-4.457,-4.4497,-4.4064,-4.3726,-4.3532,-4.3108,-4.2395,-4.182,-4.1095,-4.0481,-3.997,-3.9553,-3.9553,-3.9388,-3.9388,-3.9358,-3.9194,-3.8886,-3.7644,-3.6507,-3.6088,-3.5654,-3.5489,-3.5489,-3.5489,-3.5489,-3.5489,-3.5489,-3.5489,-3.5489,-3.5489,-3.5489,-3.5489,-3.5489,-3.5489,-3.5489,-3.5489,-3.5489,-3.5489,-3.5489,-3.5489,-3.5489,-3.5279,-3.4543,-3.3705,-3.2784,-3.1829,-3.0908,-3.0279,-2.9856,-2.9779,-2.9779,-2.9779,-2.9779,-2.9779,-2.9779,-2.9779,-5.7978,-5.7978,-5.7978,-5.7171,-5.5923,-5.5629,-5.4766,-5.3555,-5.3295,-5.3185,-5.3185,-5.3185,-5.3185,-5.3185,-5.3185,-5.3185,-5.3185,-5.3185,-5.3185,-5.3185,-5.3185,-5.3082,-5.2915,-5.2576,-5.1994,-5.0929,-4.9739,-4.9107,-4.9001,-4.9018,-4.9018,-4.9018,-4.9018,-4.9018,-4.9018,-4.8968,-4.89,-4.8562,-4.8227,-4.7855,-4.7462,-4.6532,-4.5686,-4.528,-4.4936,-4.4733,-4.4598,-4.4598,-4.4598,-4.4598,-4.4598,-4.4598,-4.4598,-4.4598,-4.4598,-4.4598,-4.4598,-4.4598,-4.4598,-4.4598,-4.4253,-4.4253,-4.4064,-4.3873,-4.3336,-4.3047,-4.2332,-4.1609,-4.0995,-4.0185,-3.9955,-3.9502,-3.9409,-3.9313,-3.9194,-3.8527,-3.7554,-3.6941,-3.6477,-3.5938,-3.5489,-3.5489,-3.5489,-3.5489,-3.5489,-3.5489,-3.5489,-3.5489,-3.5489,-3.5489,-3.5489,-3.5489,-3.5489,-3.5489,-3.5489,-3.5489,-3.5489,-3.5489,-3.5489,-3.5489,-3.5198,-3.4576,-3.3705,-3.2784,-3.1829,-3.0908,-3.0343,-2.9779,-2.9779,-2.9779,-2.9779,-2.9779,-2.9779,-2.9779,-2.9779]},{"header":{"parameterUnit":"m.s-1","parameterCategory":1,"la1":31.0,"la2":29.5877,"lo1":-88.7671,"lo2":-86.6584,"dy":0.0162,"dx":0.0185,"nx":115,"ny":88,"refTime":"2024-07-05T18:00:00:Z","depth":0,"parameterNumber":3,"parameterNumberName":"V-component_of_WINDS"},"data":[0.0,0.0,0.0,0.0,0.0,0.0,0.0,0.0,0.0,0.0,0.0,0.0,0.0,0.0,0.0,0.0,0.0,0.0,0.0,0.0,0.0,0.0,0.0,0.0,0.0,0.0,0.0,0.0,0.0,0.0,0.0,0.0,0.0,0.0,0.0,0.0,0.0,0.0,0.0,0.0,0.0,0.0,0.0,0.0,0.0,0.0,0.0,0.0,0.0,0.0,0.0,0.0,0.0,0.0,0.0,0.0,0.0,0.0,0.0,0.0,0.0,0.0,0.0,0.0,0.0,0.0,0.0,0.0,0.0,0.0,0.0,0.0,0.0,0.0,0.0,0.0,0.0,0.0,0.0,0.0,0.0,0.0,0.0,0.0,0.0,0.0,0.0,0.0,0.0,0.0,0.0,0.0,0.0,0.0,0.0,0.0,0.0,0.0,0.0,0.0,0.0,0.0,0.0,0.0,0.0,0.0,0.0,0.0,0.0,0.0,0.0,0.0,0.0,0.0,0.0,0.0,0.0,0.0,0.0,0.0,0.0,0.0,0.0,0.0,0.0,0.0,0.0,0.0,0.0,0.0,0.0,0.0,0.0,0.0,0.0,0.0,0.0,0.0,0.0,0.0,0.0,0.0,0.0,0.0,0.0,0.0,0.0,0.0,0.0,0.0,0.0,0.0,0.0,0.0,0.0,0.0,0.0,0.0,0.0,0.0,0.0,0.0,0.0,0.0,0.0,0.0,0.0,0.0,0.0,0.0,0.0,0.0,0.0,0.0,0.0,0.0,0.0,0.0,0.0,0.0,0.0,0.0,0.0,0.0,0.0,0.0,0.0,0.0,0.0,0.0,0.0,0.0,0.0,0.0,0.0,0.0,0.0,0.0,0.0,0.0,0.0,0.0,0.0,0.0,0.0,0.0,0.0,0.0,0.0,0.0,0.0,0.0,0.0,0.0,0.0,0.0,0.0,0.0,0.0,0.0,0.0,0.0,0.0,0.0,0.0,0.0,0.0,0.0,0.0,0.0,0.0,0.0,0.0,0.0,0.0,0.0,0.0,0.0,0.0,0.0,0.0,0.0,0.0,0.0,0.0,0.0,0.0,0.0,0.0,0.0,0.0,0.0,0.0,0.0,0.0,0.0,0.0,0.0,0.0,0.0,0.0,0.0,0.0,0.0,0.0,0.0,0.0,0.0,0.0,0.0,0.0,0.0,0.0,0.0,0.0,0.0,0.0,0.0,0.0,0.0,0.0,0.0,0.0,0.0,0.0,0.0,0.0,0.0,0.0,0.0,0.0,0.0,0.0,0.0,0.0,0.0,0.0,0.0,0.0,0.0,0.0,0.0,0.0,0.0,0.0,0.0,0.0,0.0,0.0,0.0,0.0,0.0,0.0,0.0,0.0,0.0,0.0,0.0,0.0,0.0,0.0,0.0,0.0,0.0,0.0,0.0,0.0,0.0,0.0,0.0,0.0,0.0,0.0,0.0,0.0,0.0,0.0,0.0,0.0,0.0,0.0,0.0,0.0,0.0,0.0,0.0,0.0,0.0,0.0,0.0,0.0,0.0,0.0,0.0,0.0,0.0,0.0,0.0,0.0,0.0,0.0,0.0,0.0,0.0,0.0,0.0,0.0,0.0,0.0,0.0,0.0,0.0,0.0,0.0,0.0,0.0,0.0,0.0,0.0,0.0,0.0,0.0,0.0,0.0,0.0,0.0,0.0,0.0,0.0,0.0,0.0,0.0,0.0,0.0,0.0,0.0,0.0,0.0,0.0,0.0,0.0,0.0,0.0,0.0,0.0,0.0,0.0,0.0,0.0,0.0,0.0,0.0,0.0,0.0,0.0,0.0,0.0,0.0,0.0,0.0,0.0,0.0,0.0,0.0,0.0,0.0,0.0,0.0,0.0,0.0,0.0,0.0,0.0,0.0,0.0,0.0,0.0,0.0,0.0,0.0,0.0,0.0,0.0,0.0,0.0,0.0,0.0,0.0,0.0,0.0,0.0,0.0,0.0,0.0,0.0,0.0,0.0,0.0,0.0,0.0,0.0,0.0,0.0,0.0,0.0,0.0,0.0,0.0,0.0,0.0,0.0,0.0,0.0,0.0,0.0,0.0,0.0,0.0,0.0,0.0,0.0,0.0,0.0,0.0,0.0,0.0,0.0,0.0,0.0,0.0,0.0,0.0,0.0,0.0,0.0,0.0,0.0,0.0,0.0,0.0,0.0,0.0,0.0,0.0,0.0,0.0,0.0,0.0,0.0,0.0,0.0,0.0,0.0,0.0,0.0,0.0,0.0,0.0,0.0,0.0,0.0,0.0,0.0,0.0,0.0,0.0,0.0,0.0,0.0,0.0,0.0,0.0,0.0,0.0,0.0,0.0,0.0,0.0,0.0,0.0,0.0,0.0,0.0,0.0,0.0,0.0,0.0,0.0,0.0,0.0,0.0,0.0,0.0,0.0,0.0,0.0,0.0,0.0,0.0,0.0,0.0,0.0,0.0,0.0,0.0,0.0,0.0,0.0,0.0,0.0,0.0,0.0,0.0,0.0,0.0,0.0,0.0,0.0,0.0,0.0,0.0,0.0,0.0,0.0,0.0,0.0,0.0,0.0,0.0,0.0,0.0,0.0,0.0,0.0,0.0,0.0,0.0,0.0,0.0,0.0,0.0,0.0,0.0,0.0,0.0,0.0,0.0,0.0,0.0,0.0,0.0,0.0,0.0,0.0,0.0,0.0,0.0,0.0,0.0,0.0,0.0,0.0,0.0,0.0,0.0,0.0,0.0,0.0,0.0,0.0,0.0,0.0,0.0,0.0,0.0,0.0,0.0,0.0,0.0,0.0,0.0,0.0,0.0,0.0,0.0,0.0,0.0,0.0,0.0,0.0,0.0,0.0,0.0,0.0,0.0,0.0,0.0,0.0,0.0,0.0,0.0,0.0,0.0,0.0,0.0,0.0,0.0,0.0,0.0,0.0,0.0,0.0,0.0,0.0,0.0,0.0,0.0,0.0,0.0,0.0,0.0,0.0,0.0,0.0,0.0,0.0,0.0,0.0,0.0,0.0,0.0,0.0,0.0,0.0,0.0,0.0,0.0,0.0,0.0,0.0,0.0,0.0,0.0,0.0,0.0,0.0,0.0,0.0,0.0,0.0,0.0,0.0,0.0,0.0,0.0,0.0,0.0,0.0,0.0,0.0,0.0,0.0,0.0,0.0,0.0,0.0,0.0,0.0,0.0,0.0,0.0,0.0,0.0,0.0,0.0,0.0,0.0,0.0,0.0,0.0,0.0,0.0,0.0,0.0,0.0,0.0,0.0,0.0,0.0,0.0,0.0,0.0,0.0,0.0,0.0,0.0,0.0,0.0,0.0,0.0,0.0,0.0,0.0,0.0,0.0,0.0,0.0,0.0,0.0,0.0,0.0,0.0,0.0,0.0,0.0,0.0,0.0,0.0,0.0,0.0,0.0,0.0,0.0,0.0,0.0,0.0,0.0,0.0,0.0,0.0,0.0,0.0,0.0,0.0,0.0,0.0,0.0,0.0,0.0,0.0,0.0,0.0,0.0,0.0,0.0,0.0,0.0,0.0,0.0,0.0,0.0,0.0,0.0,0.0,0.0,0.0,0.0,0.0,0.0,0.0,0.0,0.0,0.0,0.0,0.0,0.0,0.0,0.0,0.0,0.0,0.0,0.0,0.0,0.0,0.0,0.0,0.0,0.0,0.0,0.0,0.0,0.0,0.0,0.0,0.0,0.0,0.0,0.0,0.0,0.0,0.0,0.0,0.0,0.0,0.0,0.0,0.0,0.0,0.0,0.0,0.0,0.0,0.0,0.0,0.0,0.0,0.0,0.0,0.0,0.0,0.0,0.0,0.0,0.0,0.0,0.0,0.0,0.0,0.0,0.0,0.0,0.0,0.0,0.0,0.0,0.0,0.0,0.0,0.0,0.0,0.0,0.0,0.0,0.0,0.0,0.0,0.0,0.0,0.0,0.0,0.0,0.0,0.0,0.0,0.0,0.0,0.0,0.0,0.0,0.0,0.0,0.0,0.0,0.0,0.0,0.0,0.0,0.0,0.0,0.0,0.0,0.0,0.0,0.0,0.0,0.0,0.0,0.0,0.0,0.0,0.0,0.0,0.0,0.0,0.0,0.0,0.0,0.0,0.0,0.0,0.0,0.0,0.0,0.0,0.0,0.0,0.0,0.0,0.0,0.0,0.0,0.0,0.0,0.0,0.0,0.0,0.0,0.0,0.0,0.0,0.0,0.0,0.0,0.0,0.0,0.0,-0.9925,0.0,0.0,0.0,0.0,0.0,0.0,0.0,0.0,0.0,0.0,0.0,0.0,0.0,0.0,0.0,0.0,0.0,0.0,0.0,0.0,0.0,0.0,0.0,0.0,0.0,0.0,0.0,0.0,0.0,0.0,0.0,0.0,0.0,0.0,0.0,0.0,0.0,0.0,0.0,0.0,0.0,0.0,0.0,0.0,0.0,0.0,0.0,0.0,0.0,0.0,0.0,0.0,0.0,0.0,0.0,0.0,0.0,0.0,0.0,0.0,0.0,0.0,0.0,0.0,0.0,0.0,0.0,0.0,0.0,0.0,0.0,0.0,0.0,0.0,0.0,0.0,0.0,0.0,0.0,0.0,0.0,0.0,0.0,0.0,0.0,0.0,0.0,0.0,0.0,0.0,0.0,0.0,0.0,0.0,0.0,0.0,0.0,0.0,0.0,0.0,0.0,0.0,0.0,0.0,0.0,0.0,0.0,0.0,0.0,0.0,-0.9228,-0.9356,-0.964,-0.997,-1.0328,0.0,0.0,0.0,0.0,0.0,0.0,0.0,0.0,0.0,0.0,0.0,0.0,0.0,0.0,0.0,0.0,0.0,0.0,0.0,0.0,0.0,0.0,0.0,0.0,0.0,0.0,0.0,0.0,0.0,0.0,0.0,0.0,0.0,0.0,0.0,0.0,0.0,0.0,0.0,0.0,0.0,0.0,0.0,0.0,0.0,0.0,0.0,0.0,0.0,0.0,0.0,0.0,0.0,0.0,0.0,0.0,0.0,0.0,0.0,0.0,0.0,0.0,0.0,0.0,0.0,0.0,0.0,0.0,0.0,0.0,0.0,0.0,0.0,0.0,0.0,0.0,0.0,0.0,0.0,0.0,0.0,0.0,0.0,0.0,0.0,0.0,0.0,0.0,0.0,0.0,0.0,0.0,0.0,0.0,0.0,0.0,0.0,0.0,0.0,0.0,0.0,0.0,0.0,0.0,0.0,0.0,0.0,0.0,0.0,0.0,0.0,0.0,-1.002,-1.0397,-1.091,0.0,0.0,0.0,0.0,0.0,0.0,0.0,0.0,0.0,0.0,0.0,0.0,0.0,0.0,0.0,0.0,0.0,0.0,0.0,0.0,0.0,0.0,0.0,0.0,0.0,0.0,0.0,0.0,0.0,0.0,0.0,0.0,0.0,0.0,0.0,0.0,0.0,0.0,0.0,0.0,0.0,0.0,0.0,0.0,0.0,0.0,0.0,0.0,0.0,0.0,0.0,0.0,0.0,0.0,0.0,0.0,0.0,0.0,0.0,0.0,0.0,0.0,0.0,0.0,0.0,0.0,0.0,0.0,0.0,0.0,0.0,0.0,0.0,0.0,0.0,0.0,0.0,0.0,0.0,0.0,0.0,0.0,0.0,0.0,0.0,0.0,0.0,0.0,0.0,0.0,0.0,0.0,0.0,0.0,0.0,0.0,0.0,0.0,0.0,0.0,0.0,0.0,0.0,0.0,0.0,0.0,0.0,0.0,0.0,0.0,-0.9352,-0.9707,-0.9741,0.0,-1.1217,0.0,0.0,0.0,0.0,0.0,0.0,0.0,0.0,0.0,0.0,0.0,0.0,0.0,0.0,0.0,0.0,0.0,0.0,0.0,0.0,0.0,0.0,0.0,0.0,0.0,0.0,0.0,0.0,0.0,0.0,0.0,0.0,0.0,0.0,0.0,0.0,0.0,0.0,0.0,0.0,0.0,0.0,0.0,0.0,0.0,0.0,0.0,0.0,0.0,0.0,0.0,0.0,0.0,0.0,0.0,0.0,0.0,0.0,0.0,0.0,0.0,0.0,0.0,0.0,0.0,0.0,0.0,0.0,0.0,0.0,0.0,0.0,0.0,0.0,0.0,0.0,0.0,0.0,0.0,0.0,0.0,0.0,0.0,0.0,0.0,0.0,0.0,0.0,0.0,0.0,0.0,0.0,0.0,0.0,0.0,0.0,0.0,0.0,0.0,0.0,0.0,0.0,0.0,0.0,0.0,0.0,0.0,0.0,0.0,0.0,-0.9901,-1.0301,-1.0679,-1.128,0.0,0.0,0.0,0.0,0.0,0.0,0.0,0.0,0.0,0.0,0.0,0.0,0.0,0.0,0.0,0.0,0.0,0.0,0.0,0.0,0.0,0.0,0.0,0.0,0.0,0.0,0.0,0.0,0.0,0.0,0.0,0.0,0.0,0.0,0.0,0.0,0.0,0.0,0.0,0.0,0.0,0.0,0.0,0.0,0.0,0.0,0.0,0.0,0.0,0.0,0.0,0.0,0.0,0.0,0.0,0.0,0.0,0.0,0.0,0.0,0.0,0.0,0.0,0.0,0.0,0.0,0.0,0.0,0.0,0.0,0.0,0.0,0.0,0.0,0.0,0.0,0.0,0.0,0.0,0.0,0.0,0.0,0.0,0.0,0.0,0.0,0.0,0.0,0.0,0.0,0.0,0.0,0.0,0.0,0.0,0.0,0.0,0.0,0.0,0.0,0.0,0.0,0.0,0.0,0.0,0.0,0.0,0.0,0.0,0.0,-0.9753,-1.0157,-1.0538,-1.1172,-1.175,-1.2291,0.0,0.0,0.0,0.0,0.0,0.0,0.0,0.0,0.0,0.0,0.0,0.0,0.0,0.0,0.0,0.0,0.0,0.0,0.0,0.0,0.0,0.0,0.0,0.0,0.0,0.0,0.0,0.0,0.0,0.0,0.0,0.0,0.0,0.0,0.0,0.0,0.0,0.0,0.0,0.0,0.0,0.0,0.0,0.0,0.0,0.0,0.0,0.0,0.0,0.0,0.0,0.0,0.0,0.0,0.0,0.0,0.0,0.0,0.0,0.0,0.0,0.0,0.0,0.0,0.0,0.0,0.0,0.0,0.0,0.0,0.0,0.0,0.0,0.0,0.0,0.0,0.0,0.0,0.0,0.0,0.0,0.0,0.0,0.0,0.0,0.0,0.0,0.0,0.0,0.0,0.0,0.0,0.0,0.0,0.0,0.0,0.0,0.0,0.0,0.0,0.0,0.0,0.0,0.0,0.0,0.0,0.0,0.0,-1.0412,-0.996,-0.9863,-1.0167,-1.0654,-1.1055,0.0,0.0,0.0,0.0,0.0,0.0,0.0,0.0,0.0,0.0,0.0,0.0,0.0,0.0,0.0,0.0,0.0,0.0,0.0,0.0,0.0,0.0,0.0,0.0,0.0,0.0,0.0,0.0,0.0,0.0,0.0,0.0,0.0,0.0,0.0,0.0,0.0,0.0,0.0,0.0,0.0,0.0,0.0,0.0,0.0,0.0,0.0,0.0,0.0,0.0,0.0,0.0,0.0,0.0,0.0,0.0,0.0,0.0,0.0,0.0,0.0,0.0,0.0,0.0,0.0,0.0,0.0,0.0,0.0,0.0,0.0,0.0,0.0,0.0,0.0,0.0,0.0,0.0,0.0,0.0,0.0,0.0,0.0,0.0,0.0,0.0,0.0,0.0,0.0,0.0,0.0,0.0,0.0,0.0,0.0,0.0,0.0,0.0,0.0,0.0,0.0,0.0,0.0,0.0,0.0,0.0,0.0,0.0,0.0,-0.9419,-0.9593,-1.0187,-1.1149,-1.0526,-1.074,0.0,0.0,0.0,0.0,0.0,0.0,0.0,0.0,0.0,0.0,0.0,0.0,0.0,0.0,0.0,0.0,0.0,0.0,0.0,0.0,0.0,0.0,0.0,0.0,0.0,0.0,0.0,0.0,0.0,0.0,0.0,0.0,0.0,0.0,0.0,0.0,0.0,0.0,0.0,0.0,0.0,0.0,0.0,0.0,0.0,0.0,0.0,0.0,0.0,0.0,0.0,0.0,0.0,0.0,0.0,0.0,0.0,0.0,0.0,0.0,0.0,0.0,0.0,0.0,0.0,0.0,0.0,0.0,0.0,0.0,0.0,0.0,0.0,0.0,0.0,0.0,0.0,0.0,0.0,0.0,0.0,0.0,0.0,0.0,0.0,0.0,0.0,0.0,0.0,0.0,0.0,0.0,0.0,0.0,0.0,0.0,0.0,0.0,0.0,0.0,0.0,0.0,0.0,0.0,0.0,0.0,0.0,0.0,0.0,-0.9372,0.0,-1.0635,-1.139,-1.0915,-1.1032,0.0,0.0,0.0,0.0,0.0,0.0,0.0,0.0,0.0,0.0,0.0,0.0,0.0,0.0,0.0,0.0,0.0,0.0,0.0,0.0,0.0,0.0,0.0,0.0,0.0,0.0,0.0,0.0,0.0,0.0,0.0,0.0,0.0,0.0,0.0,0.0,0.0,0.0,0.0,0.0,0.0,0.0,0.0,0.0,0.0,0.0,0.0,0.0,0.0,0.0,0.0,0.0,0.0,0.0,0.0,0.0,0.0,0.0,0.0,0.0,0.0,0.0,0.0,0.0,0.0,0.0,0.0,0.0,0.0,0.0,0.0,0.0,0.0,0.0,0.0,0.0,0.0,0.0,0.0,0.0,0.0,0.0,0.0,0.0,0.0,0.0,0.0,0.0,0.0,0.0,0.0,0.0,0.0,0.0,0.0,0.0,0.0,0.0,0.0,0.0,0.0,0.0,0.0,0.0,0.0,0.0,0.0,0.0,-0.9392,-1.0526,-1.1069,-1.1142,-1.0703,-1.1722,-1.1848,0.0,0.0,0.0,0.0,0.0,0.0,0.0,0.0,0.0,0.0,0.0,0.0,0.0,0.0,0.0,0.0,0.0,0.0,0.0,0.0,0.0,0.0,0.0,0.0,0.0,0.0,0.0,0.0,0.0,0.0,0.0,0.0,0.0,0.0,0.0,0.0,0.0,0.0,0.0,0.0,0.0,0.0,0.0,0.0,0.0,0.0,0.0,0.0,0.0,0.0,0.0,0.0,0.0,0.0,0.0,0.0,0.0,0.0,0.0,0.0,0.0,0.0,0.0,0.0,0.0,0.0,0.0,0.0,0.0,0.0,0.0,0.0,0.0,0.0,0.0,0.0,0.0,0.0,0.0,0.0,0.0,0.0,0.0,0.0,0.0,0.0,0.0,0.0,0.0,0.0,0.0,0.0,0.0,0.0,0.0,0.0,0.0,0.0,0.0,0.0,0.0,0.0,0.0,0.0,0.0,0.0,0.0,0.0,0.0,-1.0261,-1.0628,-1.1359,-1.2374,-1.1654,-1.1788,0.0,0.0,0.0,0.0,0.0,0.0,0.0,0.0,0.0,0.0,0.0,0.0,0.0,0.0,0.0,0.0,0.0,0.0,0.0,0.0,0.0,0.0,0.0,0.0,0.0,0.0,0.0,0.0,0.0,0.0,0.0,0.0,0.0,0.0,0.0,0.0,0.0,0.0,0.0,0.0,0.0,0.0,0.0,0.0,0.0,0.0,0.0,0.0,0.0,0.0,0.0,0.0,0.0,0.0,0.0,0.0,0.0,0.0,0.0,0.0,0.0,0.0,0.0,0.0,0.0,0.0,0.0,0.0,0.0,0.0,0.0,0.0,0.0,0.0,0.0,0.0,0.0,0.0,0.0,0.0,0.0,0.0,0.0,0.0,0.0,0.0,0.0,0.0,0.0,0.0,0.0,0.0,0.0,0.0,0.0,0.0,0.0,0.0,0.0,0.0,0.0,0.0,0.0,0.0,0.0,0.0,0.0,0.0,0.0,-1.1882,-1.1445,-1.1662,-1.2554,-1.1944,-1.2097,-1.306,0.0,0.0,0.0,0.0,0.0,0.0,0.0,0.0,0.0,0.0,0.0,0.0,0.0,0.0,0.0,0.0,0.0,0.0,0.0,0.0,0.0,0.0,0.0,0.0,0.0,0.0,0.0,0.0,0.0,0.0,0.0,0.0,0.0,0.0,0.0,0.0,0.0,0.0,0.0,0.0,0.0,0.0,0.0,0.0,0.0,0.0,0.0,0.0,0.0,0.0,0.0,0.0,0.0,0.0,0.0,0.0,0.0,0.0,0.0,0.0,0.0,0.0,0.0,0.0,0.0,0.0,0.0,0.0,0.0,0.0,0.0,0.0,0.0,0.0,0.0,0.0,0.0,0.0,0.0,0.0,0.0,0.0,0.0,0.0,0.0,0.0,0.0,0.0,0.0,0.0,0.0,0.0,0.0,0.0,0.0,0.0,0.0,0.0,0.0,0.0,0.0,0.0,0.0,0.0,0.0,0.0,0.0,0.0,-1.4806,-1.3251,-1.2258,-1.1868,-1.2777,-1.2891,0.0,0.0,0.0,0.0,0.0,0.0,0.0,0.0,0.0,0.0,0.0,0.0,0.0,0.0,0.0,0.0,0.0,0.0,0.0,0.0,0.0,0.0,0.0,0.0,0.0,0.0,0.0,0.0,0.0,0.0,0.0,0.0,0.0,0.0,0.0,0.0,0.0,0.0,0.0,0.0,0.0,0.0,0.0,0.0,0.0,0.0,0.0,0.0,0.0,0.0,0.0,0.0,0.0,0.0,0.0,0.0,0.0,0.0,0.0,0.0,0.0,0.0,0.0,0.0,0.0,0.0,0.0,0.0,0.0,0.0,0.0,0.0,0.0,0.0,0.0,0.0,0.0,0.0,0.0,0.0,0.0,0.0,0.0,0.0,0.0,0.0,0.0,0.0,0.0,0.0,0.0,0.0,0.0,0.0,0.0,0.0,0.0,0.0,0.0,0.0,0.0,0.0,0.0,0.0,0.0,0.0,0.0,0.0,0.0,-1.3933,-1.4097,-1.4628,-1.5635,-1.5083,-1.4827,0.0,0.0,0.0,0.0,0.0,0.0,0.0,0.0,0.0,0.0,0.0,0.0,0.0,0.0,0.0,0.0,0.0,0.0,0.0,0.0,0.0,0.0,0.0,0.0,0.0,0.0,0.0,0.0,0.0,0.0,0.0,0.0,0.0,0.0,0.0,0.0,0.0,0.0,0.0,0.0,0.0,0.0,0.0,0.0,0.0,0.0,0.0,0.0,0.0,0.0,0.0,0.0,0.0,0.0,0.0,0.0,0.0,0.0,0.0,0.0,0.0,0.0,0.0,0.0,0.0,0.0,0.0,0.0,0.0,0.0,0.0,0.0,0.0,0.0,0.0,0.0,0.0,0.0,0.0,0.0,0.0,0.0,0.0,0.0,0.0,0.0,0.0,0.0,0.0,0.0,0.0,0.0,0.0,0.0,0.0,0.0,0.0,0.0,0.0,0.0,0.0,0.0,0.0,0.0,0.0,0.0,0.0,0.0,-1.3821,-1.5617,-1.6256,-1.715,-1.8322,-1.6894,-1.5999,0.0,0.0,0.0,0.0,0.0,0.0,0.0,0.0,0.0,0.0,0.0,0.0,0.0,0.0,0.0,0.0,0.0,0.0,0.0,0.0,0.0,0.0,0.0,0.0,0.0,0.0,0.0,0.0,0.0,0.0,0.0,0.0,0.0,0.0,0.0,0.0,0.0,0.0,0.0,0.0,0.0,0.0,0.0,0.0,0.0,0.0,0.0,0.0,0.0,0.0,0.0,0.0,0.0,0.0,0.0,0.0,0.0,0.0,0.0,0.0,0.0,0.0,0.0,0.0,0.0,0.0,0.0,0.0,0.0,0.0,0.0,0.0,0.0,0.0,0.0,0.0,0.0,0.0,0.0,0.0,0.0,0.0,0.0,0.0,0.0,0.0,0.0,0.0,0.0,0.0,0.0,0.0,0.0,0.0,0.0,0.0,0.0,0.0,0.0,0.0,0.0,0.0,0.0,0.0,0.0,0.0,0.0,0.0,-1.5753,-1.8228,-1.8749,-1.9256,-1.9734,-1.822,-1.6778,0.0,0.0,0.0,0.0,0.0,0.0,0.0,0.0,0.0,0.0,0.0,0.0,0.0,0.0,0.0,0.0,0.0,0.0,0.0,0.0,0.0,0.0,0.0,0.0,0.0,0.0,0.0,0.0,0.0,0.0,0.0,0.0,0.0,0.0,0.0,0.0,0.0,0.0,0.0,0.0,0.0,0.0,0.0,0.0,0.0,0.0,0.0,0.0,0.0,0.0,0.0,0.0,0.0,0.0,0.0,0.0,0.0,0.0,0.0,0.0,0.0,0.0,0.0,0.0,0.0,0.0,0.0,0.0,0.0,0.0,0.0,0.0,0.0,0.0,0.0,0.0,0.0,0.0,0.0,0.0,0.0,0.0,0.0,0.0,0.0,0.0,0.0,0.0,0.0,0.0,0.0,0.0,0.0,0.0,0.0,0.0,0.0,0.0,0.0,0.0,0.0,0.0,0.0,0.0,0.0,0.0,0.0,0.0,-1.6429,-1.8219,-1.8758,-1.9079,-1.9185,-1.8626,-1.7883,0.0,0.0,0.0,0.0,0.0,0.0,0.0,0.0,0.0,0.0,0.0,0.0,0.0,0.0,0.0,0.0,0.0,0.0,0.0,0.0,0.0,0.0,0.0,0.0,0.0,0.0,0.0,0.0,0.0,0.0,0.0,0.0,0.0,0.0,0.0,0.0,0.0,0.0,0.0,0.0,0.0,0.0,0.0,0.0,0.0,0.0,0.0,0.0,-1.7149,0.0,0.0,0.0,0.0,0.0,0.0,0.0,0.0,0.0,0.0,0.0,0.0,0.0,0.0,0.0,0.0,0.0,0.0,0.0,0.0,0.0,0.0,0.0,0.0,0.0,0.0,0.0,0.0,0.0,0.0,0.0,0.0,0.0,0.0,0.0,0.0,0.0,0.0,0.0,0.0,0.0,0.0,0.0,0.0,0.0,0.0,0.0,0.0,0.0,0.0,0.0,0.0,0.0,0.0,0.0,0.0,0.0,0.0,0.0,-1.6688,-1.8554,-1.8509,-1.8856,-1.9668,-1.9389,-1.875,0.0,0.0,0.0,0.0,0.0,0.0,0.0,0.0,0.0,0.0,0.0,0.0,0.0,0.0,0.0,0.0,0.0,0.0,0.0,0.0,0.0,0.0,0.0,0.0,0.0,0.0,0.0,0.0,0.0,0.0,0.0,0.0,0.0,0.0,0.0,0.0,0.0,0.0,0.0,0.0,0.0,0.0,0.0,0.0,0.0,0.0,0.0,0.0,0.0,0.0,0.0,0.0,0.0,0.0,0.0,0.0,0.0,0.0,0.0,0.0,0.0,0.0,0.0,0.0,0.0,0.0,0.0,0.0,0.0,0.0,0.0,0.0,0.0,0.0,0.0,0.0,0.0,0.0,0.0,0.0,0.0,0.0,0.0,0.0,0.0,0.0,0.0,0.0,0.0,0.0,0.0,0.0,0.0,0.0,0.0,0.0,0.0,0.0,0.0,0.0,0.0,0.0,0.0,0.0,0.0,0.0,0.0,-1.5631,-1.7147,-1.9307,-1.8713,-1.9105,-2.0625,-2.0176,-1.9316,-1.8057,0.0,0.0,0.0,0.0,0.0,0.0,0.0,0.0,0.0,0.0,0.0,0.0,0.0,0.0,0.0,0.0,0.0,0.0,0.0,0.0,0.0,0.0,0.0,0.0,0.0,0.0,0.0,0.0,0.0,0.0,0.0,0.0,0.0,0.0,0.0,0.0,0.0,0.0,-1.676,-1.7275,0.0,0.0,0.0,0.0,0.0,0.0,0.0,0.0,-1.7965,0.0,0.0,0.0,0.0,0.0,0.0,0.0,0.0,0.0,0.0,0.0,0.0,0.0,0.0,0.0,0.0,0.0,0.0,0.0,0.0,0.0,0.0,0.0,0.0,0.0,0.0,0.0,0.0,0.0,0.0,0.0,0.0,0.0,0.0,0.0,0.0,0.0,0.0,0.0,0.0,0.0,0.0,0.0,0.0,0.0,0.0,0.0,0.0,0.0,0.0,0.0,0.0,0.0,0.0,0.0,0.0,-1.8817,-1.8114,-1.8887,-2.1325,-2.0922,-2.078,-2.1073,-2.0332,-1.9316,-1.8066,0.0,0.0,0.0,0.0,0.0,0.0,0.0,0.0,0.0,0.0,0.0,0.0,0.0,0.0,0.0,0.0,0.0,0.0,0.0,0.0,0.0,0.0,0.0,0.0,0.0,0.0,0.0,0.0,0.0,0.0,0.0,0.0,0.0,0.0,0.0,0.0,0.0,0.0,0.0,-1.8405,-1.877,0.0,0.0,0.0,0.0,0.0,0.0,0.0,0.0,-1.8306,0.0,0.0,0.0,0.0,0.0,0.0,0.0,0.0,0.0,0.0,0.0,0.0,0.0,0.0,0.0,0.0,0.0,0.0,0.0,0.0,0.0,0.0,0.0,0.0,0.0,0.0,0.0,0.0,0.0,0.0,0.0,0.0,0.0,0.0,0.0,0.0,0.0,0.0,0.0,0.0,0.0,0.0,0.0,0.0,0.0,0.0,0.0,0.0,0.0,0.0,0.0,0.0,0.0,0.0,0.0,-1.8478,-1.8909,-1.9997,-2.1804,-2.1024,-2.0765,-2.114,-2.0128,-1.9092,0.0,0.0,0.0,0.0,0.0,0.0,0.0,0.0,0.0,0.0,0.0,0.0,0.0,0.0,0.0,0.0,0.0,0.0,0.0,0.0,0.0,0.0,0.0,0.0,0.0,0.0,0.0,0.0,0.0,0.0,0.0,0.0,0.0,0.0,0.0,0.0,0.0,0.0,0.0,0.0,-1.8882,-1.9409,-1.9409,0.0,0.0,0.0,0.0,0.0,0.0,-1.8782,-1.8694,0.0,0.0,0.0,0.0,0.0,0.0,0.0,0.0,0.0,0.0,0.0,0.0,0.0,0.0,0.0,0.0,0.0,0.0,0.0,0.0,0.0,0.0,0.0,0.0,0.0,0.0,0.0,0.0,0.0,0.0,0.0,0.0,0.0,0.0,0.0,0.0,0.0,0.0,0.0,0.0,0.0,0.0,0.0,0.0,0.0,0.0,0.0,0.0,0.0,0.0,0.0,0.0,0.0,0.0,0.0,-1.7759,-1.917,-2.0611,-2.2016,-2.0997,-2.0712,-2.1317,-2.0088,-1.8975,0.0,0.0,0.0,0.0,0.0,0.0,0.0,0.0,0.0,0.0,0.0,0.0,0.0,0.0,0.0,0.0,0.0,0.0,0.0,0.0,0.0,0.0,0.0,0.0,0.0,0.0,0.0,0.0,0.0,0.0,0.0,0.0,0.0,0.0,0.0,0.0,0.0,0.0,0.0,0.0,0.0,-2.01,-1.9987,-1.9974,0.0,0.0,0.0,0.0,-1.9334,-1.9421,0.0,0.0,0.0,0.0,0.0,0.0,0.0,0.0,0.0,0.0,0.0,0.0,0.0,0.0,0.0,0.0,0.0,0.0,0.0,0.0,0.0,0.0,0.0,0.0,0.0,0.0,0.0,0.0,0.0,0.0,0.0,0.0,0.0,0.0,0.0,0.0,0.0,0.0,0.0,0.0,0.0,0.0,0.0,0.0,0.0,0.0,0.0,0.0,0.0,0.0,0.0,0.0,0.0,0.0,0.0,0.0,-1.8988,-1.9331,-2.062,-2.2785,-2.2139,-2.1722,-2.1787,-2.0527,-1.9221,0.0,0.0,0.0,0.0,0.0,0.0,0.0,0.0,0.0,0.0,0.0,0.0,0.0,0.0,0.0,0.0,0.0,0.0,0.0,0.0,0.0,0.0,0.0,0.0,0.0,0.0,0.0,0.0,0.0,0.0,0.0,0.0,0.0,0.0,0.0,0.0,0.0,0.0,0.0,0.0,0.0,-2.1117,-2.0654,-2.0591,-2.0742,0.0,0.0,-2.0503,-2.0503,-2.0918,0.0,0.0,0.0,0.0,0.0,0.0,0.0,0.0,0.0,0.0,0.0,0.0,0.0,0.0,0.0,0.0,0.0,0.0,0.0,0.0,0.0,0.0,0.0,0.0,0.0,0.0,0.0,0.0,0.0,0.0,0.0,0.0,0.0,0.0,0.0,0.0,0.0,0.0,0.0,0.0,0.0,0.0,0.0,0.0,0.0,0.0,0.0,0.0,0.0,0.0,0.0,0.0,0.0,0.0,0.0,-1.7695,-1.9287,-2.0293,-2.1563,-2.3013,-2.2324,-2.1936,-2.1926,-2.0099,-1.8711,0.0,0.0,0.0,0.0,0.0,0.0,0.0,0.0,0.0,0.0,0.0,0.0,0.0,0.0,0.0,0.0,0.0,0.0,0.0,0.0,0.0,0.0,0.0,0.0,0.0,0.0,0.0,0.0,0.0,0.0,0.0,0.0,0.0,0.0,0.0,0.0,0.0,0.0,0.0,0.0,0.0,0.0,-2.1194,-2.1405,0.0,0.0,0.0,-2.1142,-2.1169,0.0,0.0,0.0,0.0,0.0,0.0,0.0,0.0,0.0,0.0,0.0,0.0,0.0,0.0,0.0,0.0,0.0,0.0,0.0,0.0,0.0,0.0,0.0,0.0,0.0,0.0,0.0,0.0,0.0,0.0,0.0,0.0,0.0,0.0,0.0,0.0,0.0,0.0,0.0,0.0,0.0,0.0,0.0,0.0,0.0,0.0,0.0,0.0,0.0,0.0,0.0,0.0,0.0,0.0,0.0,0.0,0.0,-1.9297,-2.0996,-2.2295,-2.3033,-2.2324,-2.1936,-2.1855,-1.9873,0.0,0.0,0.0,0.0,0.0,0.0,0.0,0.0,0.0,0.0,0.0,0.0,0.0,0.0,0.0,0.0,0.0,0.0,0.0,0.0,0.0,0.0,0.0,0.0,0.0,0.0,0.0,-1.5454,0.0,0.0,0.0,0.0,0.0,0.0,0.0,0.0,0.0,0.0,0.0,0.0,0.0,0.0,-2.1694,-2.1694,-2.2046,-2.2221,0.0,0.0,-2.1694,-2.1694,-2.1496,-2.1157,0.0,0.0,0.0,0.0,0.0,0.0,0.0,0.0,0.0,0.0,0.0,0.0,0.0,0.0,0.0,0.0,0.0,0.0,0.0,0.0,0.0,0.0,0.0,0.0,0.0,0.0,0.0,0.0,0.0,0.0,0.0,0.0,0.0,0.0,0.0,0.0,0.0,0.0,0.0,0.0,0.0,0.0,0.0,0.0,0.0,0.0,0.0,0.0,0.0,0.0,0.0,0.0,0.0,0.0,-1.8037,-1.9297,-2.1006,-2.2295,-2.3033,-2.2324,-2.1936,-2.1855,-2.0176,-1.8697,0.0,0.0,0.0,0.0,0.0,0.0,0.0,0.0,0.0,0.0,0.0,0.0,0.0,0.0,0.0,0.0,0.0,0.0,0.0,0.0,0.0,0.0,0.0,0.0,0.0,0.0,0.0,0.0,0.0,0.0,0.0,0.0,0.0,0.0,0.0,0.0,0.0,0.0,0.0,0.0,0.0,-2.2259,-2.2259,-2.2284,-2.2456,0.0,-2.2556,-2.2259,-2.2259,-2.2631,-2.2418,-2.0943,0.0,0.0,0.0,0.0,0.0,0.0,0.0,0.0,0.0,0.0,0.0,0.0,0.0,0.0,0.0,0.0,0.0,0.0,0.0,0.0,0.0,0.0,0.0,0.0,0.0,0.0,0.0,0.0,0.0,0.0,0.0,0.0,0.0,0.0,0.0,0.0,0.0,0.0,0.0,0.0,0.0,0.0,0.0,0.0,0.0,0.0,0.0,0.0,0.0,0.0,0.0,0.0,0.0,-1.8135,-1.9668,-2.1123,-2.2295,-2.3023,-2.2324,-2.1936,-2.1936,-2.0195,-1.8691,0.0,0.0,0.0,0.0,0.0,0.0,0.0,0.0,0.0,0.0,0.0,0.0,0.0,0.0,0.0,0.0,0.0,0.0,0.0,0.0,0.0,0.0,0.0,0.0,0.0,0.0,0.0,0.0,-1.6513,-1.6513,-1.6513,0.0,0.0,0.0,0.0,0.0,0.0,0.0,0.0,0.0,0.0,-2.2907,-2.3288,-2.3351,0.0,0.0,-2.3221,-2.3213,-2.2844,-2.2681,-2.2268,-2.1358,-2.218,0.0,0.0,0.0,0.0,0.0,0.0,0.0,0.0,0.0,0.0,0.0,0.0,0.0,0.0,0.0,0.0,0.0,0.0,0.0,0.0,0.0,0.0,0.0,0.0,0.0,0.0,0.0,0.0,0.0,0.0,0.0,0.0,0.0,0.0,0.0,0.0,0.0,0.0,0.0,0.0,0.0,0.0,0.0,0.0,0.0,0.0,0.0,0.0,0.0,0.0,0.0,0.0,-1.834,-1.9902,-2.1338,-2.2412,-2.3071,-2.2314,-2.1936,-2.1887,-2.0322,-1.8877,0.0,0.0,0.0,0.0,0.0,0.0,0.0,0.0,0.0,0.0,0.0,0.0,0.0,0.0,0.0,0.0,0.0,0.0,0.0,0.0,0.0,0.0,0.0,0.0,0.0,0.0,0.0,0.0,-1.6513,-1.6513,-1.6513,0.0,0.0,0.0,0.0,0.0,0.0,0.0,0.0,0.0,0.0,-2.3509,-2.3941,-2.4142,-2.4054,-2.3446,-2.3728,-2.3853,-2.3421,-2.3032,-2.2711,-2.2416,0.0,0.0,0.0,0.0,0.0,0.0,0.0,0.0,0.0,0.0,0.0,0.0,0.0,0.0,0.0,0.0,0.0,0.0,0.0,0.0,0.0,0.0,0.0,0.0,0.0,0.0,0.0,-0.9666,0.0,0.0,-0.9418,0.0,0.0,0.0,0.0,0.0,0.0,0.0,0.0,0.0,0.0,0.0,0.0,0.0,0.0,0.0,0.0,0.0,0.0,0.0,0.0,0.0,0.0,-1.8633,-1.9912,-2.1611,-2.2705,-2.3062,-2.2314,-2.1936,-2.1865,-2.0596,-1.9297,-1.8018,0.0,0.0,0.0,0.0,0.0,0.0,0.0,0.0,0.0,0.0,0.0,0.0,0.0,0.0,0.0,0.0,0.0,0.0,0.0,0.0,0.0,0.0,0.0,0.0,0.0,0.0,-1.6513,-1.6513,-1.6513,0.0,0.0,0.0,0.0,0.0,0.0,0.0,0.0,0.0,-2.2012,-2.3182,-2.3991,-2.4029,-2.4469,-2.4575,-2.4054,-2.4017,-2.4004,-2.401,-2.3954,-2.406,0.0,0.0,0.0,0.0,0.0,0.0,0.0,0.0,0.0,0.0,0.0,0.0,0.0,0.0,0.0,0.0,0.0,0.0,0.0,0.0,0.0,0.0,0.0,0.0,0.0,0.0,0.0,-1.2517,-1.2155,0.0,0.0,0.0,0.0,0.0,0.0,0.0,0.0,0.0,0.0,0.0,-1.8682,-1.9412,0.0,0.0,0.0,0.0,0.0,0.0,0.0,0.0,0.0,0.0,0.0,0.0,-1.8779,-2.037,-2.1777,-2.2715,-2.3062,-2.2314,-2.1936,-2.1875,-2.0615,-1.9189,-1.7646,0.0,0.0,0.0,0.0,0.0,0.0,0.0,0.0,0.0,0.0,0.0,0.0,0.0,0.0,0.0,0.0,0.0,0.0,0.0,0.0,0.0,0.0,0.0,0.0,0.0,-1.6513,0.0,0.0,0.0,0.0,0.0,0.0,0.0,0.0,0.0,0.0,-2.2089,-2.288,-2.3746,-2.4559,-2.5071,-2.5059,-2.5209,-2.5146,0.0,0.0,0.0,0.0,0.0,0.0,0.0,0.0,0.0,0.0,0.0,0.0,0.0,0.0,-2.9463,-2.6213,-2.5241,-2.5016,-2.5217,0.0,0.0,0.0,0.0,0.0,0.0,0.0,0.0,0.0,0.0,0.0,0.0,0.0,0.0,-1.4656,-1.4419,-1.4689,0.0,0.0,0.0,0.0,0.0,0.0,0.0,0.0,-2.0225,-2.0596,-2.0215,-2.0762,-2.0772,-2.0225,-2.0332,-1.948,0.0,0.0,0.0,0.0,0.0,0.0,0.0,0.0,-1.9385,-2.0781,-2.207,-2.2818,-2.3052,-2.2461,-2.2031,-2.1865,-2.0605,-1.9258,-1.7861,-1.6855,-1.5908,0.0,0.0,0.0,0.0,0.0,0.0,0.0,0.0,0.0,0.0,0.0,0.0,0.0,0.0,0.0,0.0,0.0,0.0,0.0,0.0,0.0,0.0,0.0,-1.6651,0.0,0.0,0.0,0.0,0.0,0.0,0.0,0.0,0.0,-2.2531,-2.3233,-2.4111,-2.5247,-2.5674,-2.59,-2.59,0.0,0.0,0.0,0.0,0.0,0.0,0.0,-2.5826,-2.7883,-2.7729,-2.779,-2.9084,-3.0907,-3.2123,-3.1884,0.0,0.0,-2.8267,-2.7305,-2.7066,-2.7275,-2.7305,-2.7365,-2.7615,-2.7634,-2.7634,0.0,0.0,0.0,0.0,-1.5026,0.0,0.0,0.0,-1.6567,-1.6424,0.0,-1.6137,0.0,0.0,0.0,0.0,-1.813,-1.9766,0.0,0.0,-2.1885,-2.2295,-2.1924,-2.1914,-2.1924,-2.1953,-2.2305,-2.1836,-2.0605,-1.9365,-1.8256,0.0,0.0,0.0,0.0,0.0,-2.0391,-2.122,-2.2448,-2.3101,-2.3081,-2.2672,-2.2295,-2.1846,-2.0596,-1.9521,-1.8676,-1.8178,-1.7217,-1.5576,-1.5087,0.0,0.0,0.0,0.0,0.0,0.0,0.0,0.0,0.0,0.0,0.0,0.0,0.0,0.0,0.0,0.0,0.0,0.0,0.0,0.0,-1.6525,0.0,0.0,0.0,0.0,0.0,0.0,0.0,0.0,0.0,-2.4424,-2.3459,-2.4211,-2.5285,-2.6411,0.0,0.0,0.0,0.0,-2.6549,-2.6549,-2.6584,-2.7126,-2.8549,-2.7988,-2.8294,-3.0988,0.0,0.0,-3.2361,-3.3095,-3.3305,-3.2706,-3.3125,-3.311,-3.175,-3.0492,-2.9921,-3.0387,-2.9594,-2.9011,-2.9505,-2.9609,-2.9579,-1.6118,0.0,0.0,0.0,0.0,-1.6941,-1.7942,-1.9716,-1.9362,-1.9101,-1.8967,-1.8849,0.0,0.0,0.0,0.0,0.0,0.0,-2.1211,-2.1543,-2.2207,-2.2607,-2.273,-2.2783,-2.2783,-2.274,-2.2857,-2.2607,-2.1963,-2.1582,-2.0185,-1.7881,0.0,0.0,0.0,0.0,-2.1133,-2.1728,-2.2613,-2.3101,-2.3091,-2.2725,-2.2168,-2.1395,-2.0439,-1.9805,-1.9541,-1.8555,-1.7783,-1.7275,-1.5967,0.0,0.0,0.0,0.0,0.0,0.0,0.0,0.0,0.0,0.0,0.0,0.0,0.0,0.0,0.0,0.0,0.0,0.0,0.0,-1.7099,-1.7159,-1.7727,0.0,0.0,0.0,0.0,0.0,0.0,0.0,0.0,0.0,-2.6088,-2.6364,-2.6841,0.0,0.0,-2.7632,-2.7632,-2.7645,-2.7632,-2.7632,-2.82,0.0,-3.0018,-2.9692,-3.0117,-3.2498,-3.281,-3.3002,-3.3796,-3.4099,-3.4128,-3.3933,-3.4084,-3.3918,-3.3125,-3.2662,-3.2437,-3.2542,-3.1958,-3.1465,-3.1599,-3.1286,-3.0943,-1.8913,-2.0182,-1.8312,-1.7971,-1.8697,-1.8886,-2.0063,-2.1736,-2.1367,-2.1226,-2.1225,-2.1065,-2.0205,-1.8879,-1.9198,0.0,0.0,0.0,-2.1931,-2.2393,-2.2637,-2.2857,-2.3081,-2.3101,-2.3101,-2.3101,-2.3101,-2.2964,-2.2764,-2.2721,-2.168,-1.9619,0.0,-1.9932,-1.967,-2.0849,-2.1709,-2.2139,-2.2793,-2.3101,-2.3091,-2.2568,-2.2012,-2.1494,-2.0635,-2.0088,-1.9902,-1.917,-1.85,-1.8027,-1.6855,-1.584,0.0,0.0,0.0,0.0,0.0,0.0,0.0,0.0,0.0,0.0,0.0,-1.7915,-1.7227,0.0,0.0,0.0,-1.7691,-1.8066,-1.8668,-1.9083,0.0,0.0,0.0,0.0,0.0,0.0,0.0,-2.6126,-2.6954,-2.7557,-2.7883,-2.8134,-2.8323,-2.8423,-2.8235,-2.8185,-2.8398,0.0,-2.8318,-2.8922,-2.9513,-3.0368,-3.1816,-3.1517,-3.1673,-3.3413,-3.4042,-3.4412,-3.4801,-3.4891,-3.4891,-3.4908,-3.4876,-3.4771,-3.4367,-3.4292,-3.4083,-3.3604,-3.3185,-3.2856,-3.2557,-3.2168,-3.1824,-2.1813,-2.3634,-1.9309,-1.8474,-1.9948,-2.0837,-2.1945,-2.3101,-2.2783,-2.2769,-2.3062,-2.2734,-2.2344,-2.1963,-2.1562,0.0,-2.2002,-2.2383,-2.2721,-2.3091,-2.3101,-2.3101,-2.3101,-2.3101,-2.3101,-2.3101,-2.3101,-2.3101,-2.3091,-2.3091,-2.2701,-2.1992,-2.1551,-2.1307,-2.1268,-2.1748,-2.2178,-2.2559,-2.2896,-2.3101,-2.3081,-2.2353,-2.1924,-2.1916,-2.1104,-2.041,-1.999,-1.9893,-1.9316,-1.8174,-1.7646,-1.6816,-1.5556,0.0,0.0,0.0,0.0,0.0,0.0,0.0,0.0,0.0,0.0,0.0,0.0,0.0,0.0,0.0,-1.9623,0.0,-2.083,-2.1769,0.0,0.0,0.0,-2.4418,-2.5008,-2.6025,-2.6889,-2.7356,0.0,0.0,-2.8963,-2.9453,-2.9603,-2.9026,-2.8549,-2.8423,-2.8888,-2.8549,-2.8742,-3.0048,-3.0464,-3.1378,-3.3202,-3.3169,-3.3155,-3.4047,-3.4872,-3.5397,-3.5459,-3.5459,-3.5489,-3.5459,-3.5489,-3.5459,-3.5489,-3.54,-3.513,-3.3918,-3.3619,-3.3395,-3.2901,-3.2602,-3.2273,-1.9286,-2.0702,-2.028,-2.129,-2.3249,-2.3484,-2.3603,-2.3633,-2.3535,-2.3359,-2.3091,-2.2984,-2.2886,-2.2789,-2.2691,-2.2701,-2.2799,-2.2896,-2.2994,-2.3091,-2.3101,-2.3101,-2.3101,-2.3101,-2.3101,-2.3101,-2.3101,-2.3101,-2.3101,-2.3101,-2.2994,-2.2799,-2.2701,-2.2321,-2.1787,-2.2471,-2.2847,-2.2945,-2.3052,-2.3101,-2.3081,-2.2594,-2.2207,-2.1894,-2.1367,-2.0859,-2.042,-1.9822,-1.9297,-1.8975,-1.7959,-1.709,-1.6414,-1.5283,0.0,0.0,0.0,0.0,0.0,0.0,0.0,0.0,0.0,-1.9987,-1.8329,0.0,-2.0577,0.0,-2.0778,-2.1493,-2.2418,-2.2757,0.0,0.0,-2.5833,-2.6285,-2.7218,-2.7934,-2.8398,-2.8524,-2.9164,-2.9578,-2.9591,-2.9704,-2.9741,-2.9591,-2.9465,-2.944,-2.9578,-2.949,-2.9504,-3.0011,-3.1189,-3.2278,-3.2954,-3.4041,-3.4854,-3.51,-3.5344,-3.5504,-3.5489,-3.5489,-3.5489,-3.5489,-3.5489,-3.5489,-3.5489,-3.5489,-3.5415,-3.507,-3.4622,-3.4234,-3.4054,-3.323,-3.2452,-2.0687,-2.2357,-2.2897,-2.3823,-2.4923,-2.459,-2.4287,-2.4072,-2.4062,-2.3935,-2.3656,-2.3666,-2.3603,-2.3437,-2.3428,-2.3286,-2.3101,-2.3101,-2.3101,-2.3101,-2.3101,-2.3101,-2.3101,-2.3101,-2.3101,-2.3101,-2.3101,-2.3101,-2.3101,-2.3101,-2.3101,-2.3101,-2.3101,-2.2867,-2.248,-2.2857,-2.3101,-2.3101,-2.3101,-2.3101,-2.3081,-2.2549,-2.2129,-2.1885,-2.1269,-2.082,-2.0605,-1.9922,-1.9482,-1.9314,-1.8428,-1.7656,-1.7009,-1.6122,-1.5547,0.0,0.0,0.0,0.0,0.0,0.0,0.0,0.0,0.0,0.0,0.0,-2.1832,-2.1782,-2.2711,-2.3678,-2.4531,-2.5252,-2.6079,-2.7092,-2.7681,-2.8121,-2.8448,-2.8938,-2.9315,-2.9315,-2.9591,-2.9779,-2.9779,-2.9779,-2.9779,-2.9779,-2.9779,-2.9779,-2.9779,-2.9779,-3.0075,-3.0972,-3.1938,-3.2961,-3.3719,-3.4773,-3.5489,-3.5489,-3.5489,-3.5489,-3.5489,-3.5489,-3.5489,-3.5489,-3.5489,-3.5489,-3.5489,-3.5489,-3.5489,-3.5459,-3.5205,-3.4878,-3.4563,-3.3919,-3.3335,-2.3201,-2.5214,-2.5253,-2.543,-2.5635,-2.4865,-2.4551,-2.4502,-2.4502,-2.4463,-2.4424,-2.4424,-2.4219,-2.3867,-2.3867,-2.3672,-2.3266,-2.3257,-2.3227,-2.3179,-2.3179,-2.3149,-2.3101,-2.3101,-2.3101,-2.3101,-2.3101,-2.3101,-2.3101,-2.3101,-2.3101,-2.3101,-2.3101,-2.3101,-2.3101,-2.3101,-2.3101,-2.3101,-2.3101,-2.3101,-2.3091,-2.2422,-2.1992,-2.1865,-2.1173,-2.0723,-2.0595,-2.0146,-1.9746,-1.9375,-1.8919,-1.8389,-1.7666,-1.7135,-1.6926,0.0,-1.7114,0.0,0.0,0.0,0.0,0.0,0.0,0.0,0.0,-2.3032,-2.312,-2.3597,-2.5034,-2.6185,-2.6751,-2.8072,-2.8725,-2.8411,-2.9189,-2.9591,-2.9126,-2.949,-2.9779,-2.9779,-2.9779,-2.9779,-2.9779,-2.9779,-2.9779,-2.9779,-2.9779,-2.9779,-2.9779,-2.9779,-3.0394,-3.2177,-3.2642,-3.3463,-3.492,-3.5424,-3.5489,-3.5489,-3.5489,-3.5489,-3.5489,-3.5489,-3.5489,-3.5489,-3.5489,-3.5489,-3.5489,-3.5489,-3.5489,-3.5489,-3.5459,-3.528,-3.4786,-3.4518,-3.4324,-2.1698,-2.2792,-2.2783,-2.3898,-2.5674,-2.5508,-2.5283,-2.4951,-2.4988,-2.4746,-2.4424,-2.4424,-2.4365,-2.4297,-2.4297,-2.4212,-2.417,-2.417,-2.3994,-2.3672,-2.3662,-2.3477,-2.311,-2.3101,-2.3101,-2.3101,-2.3101,-2.3101,-2.3101,-2.3101,-2.3101,-2.3101,-2.3101,-2.3101,-2.3101,0.0,0.0,0.0,-2.3101,-2.3101,-2.3091,-2.2945,-2.2578,-2.1924,-2.177,0.0,-2.0635,-2.0146,-1.9883,-1.9785,-1.9394,0.0,0.0,0.0,0.0,0.0,0.0,0.0,0.0,0.0,0.0,0.0,-2.4298,-2.3979,-2.3891,-2.536,-2.6377,-2.6502,-2.7193,-2.7858,-2.8411,-2.8737,-2.9089,-2.944,-2.9654,-2.9741,-2.9628,-2.9729,-2.9779,-2.9779,-2.9779,-2.9779,-2.9779,-2.9779,-2.9779,-2.9779,-2.9779,-2.9779,-2.9779,-2.9779,-3.0254,-3.1328,-3.2713,-3.4109,-3.5326,-3.5489,-3.5489,-3.5489,-3.5489,-3.5489,-3.5489,-3.5489,-3.5489,-3.5489,-3.5489,-3.5489,-3.5489,-3.5489,-3.5489,-3.5489,-3.5489,-3.5459,-3.5325,-3.4893,-3.4474,-2.1349,-2.231,-2.2858,-2.3805,0.0,-2.5468,-2.5605,-2.5391,-2.54,-2.5273,-2.5078,-2.5011,-2.4941,-2.4746,-2.4736,-2.4629,-2.4424,-2.4424,-2.4307,-2.4111,-2.4102,-2.3984,-2.3725,-2.351,-2.3467,-2.3457,-2.3208,-2.3101,-2.3101,-2.3101,-2.3101,-2.3101,-2.3101,-2.3101,-2.3101,-2.3101,-2.3101,-2.3101,-2.3101,-2.3101,-2.3081,-2.2896,-2.2627,-2.2207,-2.1992,0.0,0.0,0.0,0.0,0.0,0.0,0.0,0.0,0.0,0.0,-1.9641,-1.974,-2.0576,-2.2278,-2.3134,-2.439,-2.6292,-2.6656,-2.6468,-2.5686,-2.6892,-2.7808,-2.8072,-2.8348,-2.8737,-2.9277,-2.9365,-2.9465,-2.9754,-2.9779,-2.9779,-2.9779,-2.9779,-2.9779,-2.9779,-2.9779,-2.9779,-2.9779,-2.9779,-2.9779,-2.9779,-2.9779,-2.9779,-2.9779,-2.9779,-3.0241,-3.1683,-3.3017,-3.4346,-3.5246,-3.5489,-3.5489,-3.5489,-3.5489,-3.5489,-3.5489,-3.5489,-3.5489,-3.5489,-3.5489,-3.5489,-3.5489,-3.5489,-3.5489,-3.5489,-3.5489,-3.5489,-3.5489,-3.522,-3.4996,-2.2291,-2.309,-2.393,-2.444,-2.4665,-2.5513,-2.5762,-2.5684,-2.5684,0.0,0.0,-2.5684,-2.5537,-2.5233,-2.5185,-2.499,-2.4612,-2.4648,-2.46,-2.4531,-2.4531,-2.4492,-2.4404,-2.4062,-2.3896,-2.3887,-2.3457,-2.3208,-2.3208,-2.313,-2.3101,-2.3101,-2.3101,-2.3101,-2.3101,-2.3101,-2.3101,-2.3101,-2.3101,-2.3101,-2.3091,-2.276,-2.2588,-2.2519,-2.2178,-2.1963,-2.1875,-2.1222,-2.084,-2.082,-2.0127,-1.9746,-1.9746,-1.9756,-2.0005,-2.0472,-2.1275,-2.2391,-2.3909,-2.5195,-2.6396,-2.7521,-2.8499,-2.8649,-2.7645,-2.8084,-2.8586,-2.9013,-2.9038,-2.9289,-2.9741,-2.9779,-2.9779,-2.9779,-2.9779,-2.9779,-2.9779,-2.9779,-2.9779,-2.9779,-2.9779,-2.9779,-2.9779,-2.9779,-2.9779,-2.9779,-2.9779,-2.9779,-2.983,-2.996,-3.0633,-3.196,-3.3157,-3.4312,-3.4986,-3.5424,-3.5457,-3.5489,-3.5489,-3.5489,-3.5489,-3.5489,-3.5489,-3.5489,-3.5489,-3.5489,-3.5489,-3.5489,-3.5489,-3.5489,-3.5489,-3.5489,-3.5489,-3.5489,-3.5459,-2.518,-2.5032,-2.5138,-2.5746,-2.657,-2.6374,-2.6084,-2.5693,-2.5684,-2.5684,-2.5684,-2.5684,-2.5703,-2.5596,-2.5644,-2.5557,-2.5508,-2.5508,-2.5342,-2.5028,-2.4971,-2.4785,-2.4424,-2.4355,-2.4336,-2.4297,-2.3896,-2.3701,-2.3662,-2.332,-2.3101,-2.3101,-2.3101,-2.3101,-2.3101,-2.3101,-2.3101,-2.3101,-2.3101,-2.3101,-2.3101,-2.3033,-2.2838,-2.2529,-2.2461,-2.2246,-2.1904,-2.1768,-2.1699,-2.1699,-2.1582,-2.1523,-2.1523,-2.1484,-2.1919,-2.2721,-2.295,-2.3926,-2.5922,-2.6306,-2.7084,-2.8525,-2.9302,-2.939,-2.875,-2.9227,-2.9591,-2.9666,-2.9641,-2.9691,-2.9779,-2.9779,-2.9779,-2.9779,-2.9779,-2.9779,-2.9779,-2.9779,-2.9779,-2.9779,-2.9779,-2.9779,-2.9779,-2.9779,-2.9779,-2.9779,-2.9779,-2.9779,-2.9895,-3.0482,-3.1031,-3.1573,-3.2876,-3.3925,-3.4361,-3.4986,-3.5359,-3.5489,-3.5489,-3.5489,-3.5489,-3.5489,-3.5489,-3.5489,-3.5489,-3.5489,-3.5489,-3.5489,-3.5489,-3.5489,-3.5489,-3.5489,-3.5489,-3.5489,-3.5489,-2.3991,-2.449,-2.4293,-2.4978,-2.6115,-2.6297,-2.6279,-2.6074,-2.5791,-2.5684,-2.5684,-2.5684,-2.5684,-2.5684,-2.5684,-2.5684,-2.5684,-2.5684,-2.5577,-2.5439,-2.5439,-2.5322,-2.5117,-2.4883,-2.4775,-2.4736,-2.4346,-2.4131,-2.4092,-2.3701,-2.3452,-2.3477,-2.3218,-2.3101,-2.3101,-2.3101,-2.3101,-2.3101,-2.3101,-2.3101,-2.3101,-2.3101,-2.3013,-2.2818,-2.2852,-2.273,-2.2568,-2.2344,-2.2227,-2.2217,-2.2002,-2.1936,-2.1936,-2.1936,-2.2113,-2.2523,-2.3612,-2.4802,-2.6014,-2.7469,-2.8619,-2.9339,-2.9628,-2.9691,-2.9428,-2.9628,-2.9779,-2.9779,-2.9779,-2.9779,-2.9779,-2.9779,-2.9779,-2.9779,-2.9779,-2.9779,-2.9779,-2.9779,-2.9779,-2.9779,-2.9779,-2.9779,-2.9779,-2.9779,-2.9779,-2.9779,-2.9779,-2.9779,-2.9779,-3.0126,-3.0671,-3.1143,-3.1947,-3.2876,-3.3774,-3.4346,-3.4872,-3.5392,-3.5489,-3.5489,-3.5489,-3.5489,-3.5489,-3.5489,-3.5489,-3.5489,-3.5489,-3.5489,-3.5489,-3.5489,-3.5489,-3.5489,-3.5489,-3.5489,-3.5489,-2.2766,-2.3733,-2.3478,-2.4122,-2.5449,-2.5933,-2.6299,-2.6484,-2.6074,-2.584,-2.583,-2.5742,-2.5684,-2.5684,-2.5684,-2.5684,-2.5684,-2.5684,-2.5684,-2.5684,-2.5684,-2.5684,-2.5654,-2.5371,-2.5262,-2.5176,-2.4775,-2.457,-2.4512,-2.4043,-2.374,-2.3623,-2.3257,-2.3101,-2.3101,-2.3101,-2.3101,-2.3101,-2.3101,-2.3101,-2.3101,-2.3101,-2.3101,-2.3101,-2.3091,-2.3101,-2.3081,-2.2779,-2.2656,-2.2637,-2.2344,-2.2168,-2.2178,-2.2168,-2.2168,-2.2325,-2.39,-2.5367,-2.6348,-2.847,-2.9779,-2.9779,-2.9779,-2.9779,-2.9779,-2.9779,-2.9779,-2.9779,-2.9779,-2.9779,-2.9779,-2.9779,-2.9779,-2.9779,-2.9779,-2.9779,-2.9779,-2.9779,-2.9779,-2.9779,-2.9779,-2.9779,-2.9779,-2.9779,-2.9779,-2.9779,-2.9779,-2.9779,-2.9779,-2.9779,-3.0139,-3.0658,-3.1044,-3.1852,-3.338,-3.3925,-3.4428,-3.5311,-3.5489,-3.5489,-3.5489,-3.5489,-3.5489,-3.5489,-3.5489,-3.5489,-3.5489,-3.5489,-3.5489,-3.5489,-3.5489,-3.5489,-3.5489,-3.5489,-3.5489,-2.3654,-2.3766,-2.3717,-2.4343,-2.5352,-2.5466,-2.6035,-2.6822,-2.6504,-2.6328,-2.6269,-2.5869,-2.5693,-2.5684,-2.5684,-2.5684,-2.5684,-2.5684,-2.5684,-2.5684,-2.5684,-2.5684,-2.5684,-2.5635,-2.5625,-2.5557,-2.5215,-2.501,-2.4961,-2.4209,-2.3603,-2.3198,-2.311,-2.3101,-2.3101,-2.3101,-2.3101,-2.3101,-2.3101,-2.3101,-2.3101,-2.3101,-2.3101,-2.3101,-2.3101,-2.3101,-2.3101,-2.3062,-2.3033,-2.3033,-2.2984,-2.2964,-2.2964,-2.2964,-2.2964,-2.3051,-2.4195,-2.5677,-2.7681,-2.9081,-2.9779,-2.9779,-2.9779,-2.9779,-2.9779,-2.9779,-2.9779,-2.9779,-2.9779,-2.9779,-2.9779,-2.9779,-2.9779,-2.9779,-2.9779,-2.9779,-2.9779,-2.9779,-2.9779,-2.9779,-2.9779,-2.9779,-2.9779,-2.9779,-2.9779,-2.9779,-2.9779,-2.9779,-2.9779,-2.9779,-2.9818,-3.0113,-3.0595,-3.1499,-3.2558,-3.3484,-3.4211,-3.5166,-3.5504,-3.5504,-3.5489,-3.5489,-3.5489,-3.5489,-3.5489,-3.5489,-3.5489,-3.5489,-3.5489,-3.5489,-3.5489,-3.5489,-3.5489,-3.5489,-3.5489,-2.3166,-2.3718,-2.287,-2.3238,-2.4407,-2.5111,-2.5625,-2.61,-2.6567,-2.6631,-2.6387,-2.6201,-2.5977,-2.5684,-2.5684,-2.5684,-2.5684,-2.5684,-2.5684,-2.5684,-2.5684,-2.5684,-2.5684,-2.5684,-2.5684,-2.5674,-2.5547,-2.5469,-2.5322,-2.458,-2.3945,-2.3525,-2.3227,-2.3101,-2.3101,-2.3101,-2.3101,-2.3101,-2.3101,-2.3101,-2.3101,-2.3101,-2.3101,-2.3101,-2.3101,-2.3101,-2.3101,-2.3101,-2.3101,-2.3101,-2.3101,-2.3101,-2.3101,-2.3101,-2.343,-2.4135,-2.5786,-2.7429,-2.8988,-2.9534,-2.9779,-2.9779,-2.9779,-2.9779,-2.9779,-2.9779,-2.9779,-2.9779,-2.9779,-2.9779,-2.9779,-2.9779,-2.9779,-2.9779,-2.9779,-2.9779,-2.9779,-2.9779,-2.9779,-2.9779,-2.9779,-2.9779,-2.9779,-2.9779,-2.9779,-2.9779,-2.9779,-2.9779,-2.9779,-2.9779,-2.9779,-2.9818,-3.0139,-3.0746,-3.1646,-3.2558,-3.3484,-3.4409,-3.5133,-3.5457,-3.5504,-3.5489,-3.5489,-3.5489,-3.5489,-3.5489,-3.5489,-3.5489,-3.5489,-3.5489,-3.5489,-3.5489,-3.5489,-3.5489,-3.5489,-2.1879,-2.2462,-2.1467,-2.187,-2.3239,-2.4027,-2.4841,-2.5612,-2.6285,-2.6634,-2.6728,-2.6494,-2.6221,-2.5879,-2.5752,-2.5684,-2.5684,-2.5684,-2.5684,-2.5684,-2.5684,-2.5684,-2.5684,-2.5684,-2.5684,-2.5684,-2.5674,-2.5615,-2.5508,-2.4941,-2.4326,-2.3818,-2.3467,-2.3208,-2.311,-2.3101,-2.3101,-2.3101,-2.3101,-2.3101,-2.3101,-2.3101,-2.3101,-2.3101,-2.3101,-2.3101,-2.3101,-2.3101,-2.3101,-2.3101,-2.3101,-2.3256,-2.356,-2.356,-2.4211,-2.5619,-2.7174,-2.8597,-2.9702,-2.9779,-2.9779,-2.9779,-2.9779,-2.9779,-2.9779,-2.9779,-2.9779,-2.9779,-2.9779,-2.9779,-2.9779,-2.9779,-2.9779,-2.9779,-2.9779,-2.9779,-2.9779,-2.9779,-2.9779,-2.9779,-2.9779,-2.9779,-2.9779,-2.9779,-2.9779,-2.9779,-2.9779,-2.9779,-2.9779,-2.9779,-2.9779,-2.9779,-2.9779,-3.0203,-3.1044,-3.1742,-3.2629,-3.3739,-3.4658,-3.5085,-3.5392,-3.5504,-3.5489,-3.5489,-3.5489,-3.5489,-3.5489,-3.5489,-3.5489,-3.5489,-3.5489,-3.5489,-3.5489,-3.5489,-3.5489,-1.9912,-1.9963,-1.9647,-2.0422,-2.1692,-2.1896,-2.3502,-2.5837,-2.5755,-2.6334,-2.7389,-2.6828,-2.6387,-2.6309,-2.5898,-2.5693,-2.5684,-2.5684,-2.5684,-2.5684,-2.5684,-2.5684,-2.5684,-2.5684,-2.5684,-2.5684,-2.5684,-2.5547,-2.5166,-2.5096,-2.4609,-2.3857,-2.376,-2.3535,-2.3188,-2.311,-2.3101,-2.3101,-2.3101,-2.3101,-2.3101,-2.3101,-2.3101,-2.3101,-2.3135,-2.3178,-2.3135,-2.3135,-2.3135,-2.3101,-2.3101,-2.3551,-2.4489,-2.4702,-2.5661,-2.755,-2.8044,-2.8597,-2.9611,-2.9779,-2.9779,-2.9779,-2.9779,-2.9779,-2.9779,-2.9779,-2.9779,-2.9779,-2.9779,-2.9779,-2.9779,-2.9779,-2.9779,-2.9779,-2.9779,-2.9779,-2.9779,-2.9779,-2.9779,-2.9779,-2.9779,-2.9779,-2.9779,-2.9779,-2.9779,-2.9779,-2.9779,-2.9779,-2.9779,-2.9779,-2.9779,-2.9779,-2.9856,-3.0101,-3.0983,-3.1389,-3.2164,-3.3066,-3.3705,-3.4279,-3.5019,-3.5489,-3.5424,-3.5457,-3.5472,-3.5472,-3.5504,-3.5489,-3.5489,-3.5489,-3.5489,-3.5489,-3.5489,-3.5489,-3.5489,-2.0134,-1.9773,-1.9492,-1.97,-2.0371,-2.2202,-2.3646,-2.4756,-2.6506,-2.7405,-2.7594,-2.7334,-2.6914,-2.6377,-2.623,-2.6006,-2.5703,-2.5684,-2.5684,-2.5684,-2.5684,-2.5684,-2.5684,-2.5684,-2.5684,-2.5684,-2.5684,-2.5615,-2.5478,-2.5225,-2.4959,-2.456,-2.4043,-2.3701,-2.3525,-2.3227,-2.3101,-2.3101,-2.3101,-2.3101,-2.3101,-2.3101,-2.3101,-2.3135,-2.3844,-2.4168,-2.4168,-2.4211,-2.3887,-2.3135,-2.3101,-2.3299,-2.38,-2.5094,-2.6543,-2.7924,-2.8767,-2.9365,-2.974,-2.9779,-2.9779,-2.9779,-2.9779,-2.9779,-2.9779,-2.9779,-2.9779,-2.9779,-2.9779,-2.9779,-2.9779,-2.9779,-2.9779,-2.9779,-2.9779,-2.9779,-2.9779,-2.9779,-2.9779,-2.9779,-2.9779,-2.9779,-2.9779,-2.9779,-2.9779,-2.9779,-2.9779,-2.9779,-2.9779,-2.9779,-2.9779,-2.9779,-2.9779,-2.9882,-3.0165,-3.0857,-3.1523,-3.2019,-3.2593,-3.3066,-3.3636,-3.4361,-3.4428,-3.4758,-3.4953,-3.5392,-3.5392,-3.5489,-3.5489,-3.5489,-3.5489,-3.5489,-3.5489,-3.5489,-3.5489,-2.0334,-1.9806,-1.9593,-1.9452,-1.9655,-2.1487,-2.2653,-2.3319,-2.5772,-2.6955,-2.7155,-2.7505,-2.7334,-2.6836,-2.665,-2.6357,-2.5957,-2.5762,-2.5684,-2.5684,-2.5684,-2.5684,-2.5684,-2.5684,-2.5684,-2.5684,-2.5684,-2.5684,-2.5654,-2.5439,-2.5225,-2.5067,-2.4453,-2.4121,-2.3955,-2.3564,-2.335,-2.334,-2.3179,-2.3101,-2.3101,-2.3101,-2.3299,-2.3671,-2.4414,-2.4617,-2.4296,-2.4253,-2.3963,-2.3222,-2.3101,-2.343,-2.4264,-2.5975,-2.7493,-2.8597,-2.9365,-2.9779,-2.9779,-2.9779,-2.9779,-2.9779,-2.9779,-2.9779,-2.9779,-2.9779,-2.9779,-2.9779,-2.9779,-2.9779,-2.9779,-2.9779,-2.9779,-2.9779,-2.9779,-2.9779,-2.9779,-2.9779,-2.9779,-2.9779,-2.9779,-2.9779,-2.9779,-2.9779,-2.9779,-2.9779,-2.9779,-2.9779,-2.9779,-2.9779,-2.9779,-2.9779,-2.9779,-2.9779,-2.9921,-3.0343,-3.0932,-3.1426,-3.1669,-3.2033,-3.2486,-3.3136,-3.3622,-3.3979,-3.4461,-3.5019,-3.5344,-3.5457,-3.5489,-3.5489,-3.5489,-3.5489,-3.5489,-3.5489,-3.5489,-2.0347,-1.9873,-1.98,-1.9633,-1.9535,-1.9887,-2.0479,-2.1919,-2.3487,-2.5188,-2.6371,-2.7261,-2.7718,-2.7581,-2.7168,-2.6787,-2.6377,-2.5937,-2.5723,-2.5693,-2.5684,-2.5684,-2.5684,-2.5684,-2.5684,-2.5684,-2.5684,-2.5684,-2.5674,-2.5625,-2.5478,-2.5156,-2.5067,-2.4746,-2.4424,-2.4023,-2.3779,-2.3682,-2.3379,-2.313,-2.3101,-2.3101,-2.3594,-2.4542,-2.4787,-2.4414,-2.343,-2.3343,-2.3299,-2.3135,-2.3101,-2.4178,-2.5975,-2.7238,-2.8478,-2.9404,-2.9792,-2.9792,-2.9779,-2.9779,-2.9779,-2.9779,-2.9779,-2.9779,-2.9779,-2.9779,-2.9779,-2.9779,-2.9779,-2.9779,-2.9779,-2.9779,-2.9779,-2.9779,-2.9779,-2.9779,-2.9779,-2.9779,-2.9779,-2.9779,-2.9779,-2.9779,-2.9779,-2.9779,-2.9779,-2.9779,-2.9779,-2.9779,-2.9779,-2.9779,-2.9779,-2.9779,-2.9779,-2.9779,-2.9779,-2.9856,-3.0419,-3.0908,-3.1007,-3.1254,-3.1756,-3.2321,-3.2735,-3.3122,-3.3959,-3.4509,-3.4986,-3.5133,-3.5457,-3.5489,-3.5489,-3.5489,-3.5489,-3.5489,-3.5489,-2.0568,-2.0361,-1.996,-1.9753,-1.9809,-2.0571,-2.1252,-2.187,-2.4267,-2.5654,-2.63,-2.7538,-2.8002,-2.7748,-2.7562,-2.7226,-2.6807,-2.6387,-2.6025,-2.5742,-2.5693,-2.5684,-2.5684,-2.5684,-2.5684,-2.5684,-2.5684,-2.5684,-2.5684,-2.5684,-2.5596,-2.5508,-2.5215,-2.501,-2.4853,-2.4443,-2.4102,-2.3799,-2.3662,-2.3457,-2.313,-2.3101,-2.3671,-2.467,-2.4798,-2.4914,-2.5389,-2.4681,-2.393,-2.3178,-2.3091,-2.4135,-2.6088,-2.6801,-2.7867,-2.9495,-2.9779,-2.9779,-2.9779,-2.9779,-2.9779,-2.9779,-2.9779,-2.9779,-2.9779,-2.9779,-2.9779,-2.9779,-2.9779,-2.9779,-2.9779,-2.9779,-2.9779,-2.9779,-2.9779,-2.9779,-2.9779,-2.9779,-2.9779,-2.9779,-2.9779,-2.9779,-2.9779,-2.9779,-2.9779,-2.9779,-2.9779,-2.9779,-2.9779,-2.9779,-2.9779,-2.9779,-2.9779,-2.9779,-2.9779,-2.9779,-3.0062,-3.0381,-3.0444,-3.0558,-3.102,-3.1402,-3.1815,-3.2593,-3.338,-3.4109,-3.4576,-3.4986,-3.5344,-3.5489,-3.5489,-3.5489,-3.5489,-3.5489,-3.5489,-2.0775,-2.0635,-2.0281,-1.9987,-1.9852,-2.0669,-2.119,-2.1934,-2.4147,-2.5544,-2.6264,-2.7663,-2.8164,-2.793,-2.7891,-2.7656,-2.7266,-2.6973,-2.6631,-2.6142,-2.5781,-2.5693,-2.5684,-2.5684,-2.5684,-2.5684,-2.5684,-2.5684,-2.5684,-2.5684,-2.5684,-2.5615,-2.5449,-2.5322,-2.5273,-2.4893,-2.4502,-2.4268,-2.3955,-2.3662,-2.3408,-2.3179,-2.3627,-2.4628,-2.4798,-2.5378,-2.6307,-2.542,-2.4457,-2.3887,-2.3714,-2.4638,-2.6307,-2.6924,-2.7919,-2.9326,-2.9779,-2.9779,-2.9779,-2.9779,-2.9779,-2.9779,-2.9779,-2.9779,-2.9779,-2.9779,-2.9779,-2.9779,-2.9779,-2.9779,-2.9779,-2.9779,-2.9779,-2.9779,-2.9779,-2.9779,-2.9779,-2.9779,-2.9779,-2.9779,-2.9779,-2.9779,-2.9779,-2.9779,-2.9779,-2.9779,-2.9779,-2.9779,-2.9779,-2.9779,-2.9779,-2.9779,-2.9779,-2.9779,-2.9779,-2.9779,-2.9779,-2.9856,-2.9921,-2.9998,-3.0241,-3.052,-3.0871,-3.2285,-3.3276,-3.4293,-3.4839,-3.5166,-3.5489,-3.5489,-3.5489,-3.5489,-3.5489,-3.5489,-3.5489,-2.0949,-2.077,-2.0675,-2.0327,-1.9867,-1.9905,-2.0573,-2.1729,-2.3263,-2.4765,-2.6155,-2.7618,-2.8291,-2.8281,-2.8223,-2.8018,-2.7787,-2.764,-2.7353,-2.6875,-2.6269,-2.584,-2.5703,-2.5684,-2.5684,-2.5684,-2.5684,-2.5684,-2.5684,-2.5684,-2.5684,-2.5674,-2.5645,-2.5674,-2.5605,-2.5293,-2.5106,-2.4863,-2.4268,-2.3916,-2.375,-2.3408,-2.3797,-2.4893,-2.5052,-2.5619,-2.6678,-2.5953,-2.5031,-2.4702,-2.4542,-2.521,-2.6431,-2.7522,-2.8518,-2.9663,-2.9779,-2.9779,-2.9779,-2.9779,-2.9779,-2.9779,-2.9779,-2.9779,-2.9779,-2.9779,-2.9779,-2.9779,-2.9779,-2.9779,-2.9779,-2.9779,-2.9779,-2.9779,-2.9779,-2.9779,-2.9779,-2.9779,-2.9779,-2.9779,-2.9779,-2.9779,-2.9779,-2.9779,-2.9779,-2.9779,-2.9779,-2.9779,-2.9779,-2.9779,-2.9779,-2.9779,-2.9779,-2.9779,-2.9779,-2.9779,-2.9779,-2.9779,-2.9779,-2.9779,-2.9779,-2.9998,-3.0139,-3.1549,-3.3052,-3.4109,-3.4806,-3.4986,-3.5311,-3.5489,-3.5489,-3.5489,-3.5489,-3.5489,-3.5489,-2.1062,-2.0975,-2.0762,-2.0461,-2.0107,-1.9893,-2.0543,-2.1722,-2.3215,-2.4765,-2.6209,-2.7672,-2.8301,-2.8301,-2.8301,-2.8223,-2.8066,-2.7865,-2.7699,-2.7432,-2.6943,-2.6249,-2.5791,-2.5693,-2.5693,-2.5693,-2.5684,-2.5684,-2.5684,-2.5684,-2.5684,-2.5684,-2.5684,-2.5684,-2.5645,-2.5596,-2.5381,-2.5155,-2.494,-2.4385,-2.3867,-2.3691,-2.4428,-2.5872,-2.6027,-2.6964,-2.8542,-2.7844,-2.5953,-2.379,-2.4414,-2.5336,-2.6513,-2.7614,-2.8688,-2.9573,-2.9779,-2.9779,-2.9779,-2.9779,-2.9779,-2.9779,-2.9779,-2.9779,-2.9779,-2.9779,-2.9779,-2.9779,-2.9779,-2.9779,-2.9779,-2.9779,-2.9779,-2.9779,-2.9779,-2.9779,-2.9779,-2.9779,-2.9779,-2.9779,-2.9779,-2.9779,-2.9779,-2.9779,-2.9779,-2.9779,-2.9779,-2.9779,-2.9779,-2.9779,-2.9779,-2.9779,-2.9779,-2.9779,-2.9779,-2.9779,-2.9779,-2.9779,-2.9779,-2.9779,-2.9779,-2.9856,-2.9972,-3.047,-3.2249,-3.3498,-3.3973,-3.4293,-3.4739,-3.5489,-3.5489,-3.5489,-3.5489,-3.5489,-3.5489,-2.1102,-2.1096,-2.0929,-2.0621,-2.0295,-2.0693,-2.1518,-2.2708,-2.41,-2.5599,-2.6997,-2.7897,-2.8291,-2.8301,-2.8301,-2.8301,-2.8252,-2.8047,-2.7949,-2.7861,-2.748,-2.6826,-2.6201,-2.6016,-2.5918,-2.5693,-2.5684,-2.5684,-2.5684,-2.5684,-2.5684,-2.5684,-2.5684,-2.5684,-2.5684,-2.5674,-2.5577,-2.5361,-2.5176,-2.4832,-2.4365,-2.3955,-2.4584,-2.5849,-2.6285,-2.725,-2.8171,-2.7747,-2.6419,-2.5168,-2.5577,-2.6491,-2.7157,-2.8239,-2.9106,-2.9779,-2.9779,-2.9779,-2.9779,-2.9779,-2.9779,-2.9779,-2.9779,-2.9779,-2.9779,-2.9779,-2.9779,-2.9779,-2.9779,-2.9779,-2.9779,-2.9779,-2.9779,-2.9779,-2.9779,-2.9779,-2.9779,-2.9779,-2.9779,-2.9779,-2.9779,-2.9779,-2.9779,-2.9779,-2.9779,-2.9779,-2.9779,-2.9779,-2.9779,-2.9779,-2.9779,-2.9779,-2.9779,-2.9779,-2.9779,-2.9779,-2.9779,-2.9779,-2.9779,-2.9779,-2.9779,-2.9818,-3.0075,-3.0508,-3.1756,-3.277,-3.3394,-3.4124,-3.4986,-3.5489,-3.5489,-3.5489,-3.5489,-3.5489,-3.5489,-2.1102,-2.1102,-2.1102,-2.0788,-2.0503,-2.1661,-2.263,-2.397,-2.5012,-2.6545,-2.795,-2.8237,-2.8301,-2.8301,-2.8301,-2.8301,-2.8301,-2.8252,-2.8262,-2.8135,-2.7851,-2.7356,-2.666,-2.6367,-2.6162,-2.584,-2.5742,-2.5684,-2.5684,-2.5684,-2.5684,-2.5684,-2.5684,-2.5684,-2.5684,-2.5684,-2.5684,-2.5635,-2.5371,-2.5174,-2.491,-2.4421,-2.4726,-2.5586,-2.6663,-2.6903,-2.7121,-2.7005,-2.6935,-2.6853,-2.7602,-2.7602,-2.7936,-2.8988,-2.9702,-2.9779,-2.9779,-2.9779,-2.9779,-2.9779,-2.9779,-2.9779,-2.9779,-2.9779,-2.9779,-2.9779,-2.9779,-2.9779,-2.9779,-2.9779,-2.9779,-2.9779,-2.9779,-2.9779,-2.9779,-2.9779,-2.9779,-2.9779,-2.9779,-2.9779,-2.9779,-2.9779,-2.9779,-2.9779,-2.9779,-2.9779,-2.9779,-2.9779,-2.9779,-2.9779,-2.9779,-2.9779,-2.9779,-2.9779,-2.9779,-2.9779,-2.9779,-2.9779,-2.9779,-2.9779,-2.9779,-2.9895,-3.0292,-3.0846,-3.1476,-3.2393,-3.3359,-3.4192,-3.5052,-3.5489,-3.5489,-3.5489,-3.5489,-3.5489,-3.5489,-2.1102,-2.1102,-2.1102,-2.0909,-2.0636,-2.0686,-2.2061,-2.4178,-2.4337,-2.6109,-2.7843,-2.8301,-2.8301,-2.8301,-2.8301,-2.8301,-2.8301,-2.8301,-2.8301,-2.8271,-2.8223,-2.7881,-2.7356,-2.6787,-2.6367,-2.6162,-2.583,-2.5703,-2.5684,-2.5684,-2.5684,-2.5684,-2.5684,-2.5684,-2.5684,-2.5684,-2.5684,-2.5664,-2.5615,-2.5391,-2.5137,-2.494,-2.5095,-2.5926,-2.7256,-2.7918,-2.8018,-2.8609,-2.9079,-2.8752,-2.7666,-2.6871,-2.7464,-2.8831,-2.9702,-2.9779,-2.9779,-2.9779,-2.9779,-2.9779,-2.9779,-2.9779,-2.9779,-2.9779,-2.9779,-2.9779,-2.9779,-2.9779,-2.9779,-2.9779,-2.9779,-2.9779,-2.9779,-2.9779,-2.9779,-2.9779,-2.9779,-2.9779,-2.9779,-2.9779,-2.9779,-2.9779,-2.9779,-2.9779,-2.9779,-2.9779,-2.9779,-2.9779,-2.9779,-2.9779,-2.9779,-2.9779,-2.9779,-2.9779,-2.9779,-2.9779,-2.9779,-2.9779,-2.9779,-2.9779,-2.9779,-2.9779,-3.0075,-3.0419,-3.0833,-3.1865,-3.3136,-3.3959,-3.4791,-3.5133,-3.5489,-3.5489,-3.5489,-3.5489,-3.5489,-2.1102,-2.1102,-2.1102,-2.0942,-2.0895,-2.1828,-2.3083,-2.4399,-2.5547,-2.678,-2.8014,-2.8301,-2.8301,-2.8301,-2.8301,-2.8301,-2.8301,-2.8301,-2.8301,-2.8291,-2.8281,-2.8174,-2.792,-2.7305,-2.6826,-2.6426,-2.5947,-2.5713,-2.5684,-2.5684,-2.5684,-2.5684,-2.5684,-2.5684,-2.5684,-2.5684,-2.5684,-2.5684,-2.5684,-2.5605,-2.541,-2.5204,-2.5415,-2.5944,-2.6867,-2.7242,-2.763,-2.7342,-2.7395,-2.7168,-2.6461,-2.6543,-2.7879,-2.9079,-2.9702,-2.9779,-2.9779,-2.9779,-2.9779,-2.9779,-2.9779,-2.9779,-2.9779,-2.9779,-2.9779,-2.9779,-2.9779,-2.9779,-2.9779,-2.9779,-2.9779,-2.9779,-2.9779,-2.9779,-2.9779,-2.9779,-2.9779,-2.9779,-2.9779,-2.9779,-2.9779,-2.9779,-2.9779,-2.9779,-2.9779,-2.9779,-2.9779,-2.9779,-2.9779,-2.9779,-2.9779,-2.9779,-2.9779,-2.9779,-2.9779,-2.9779,-2.9779,-2.9779,-2.9779,-2.9779,-2.9779,-2.9779,-2.9818,-3.0203,-3.0658,-3.1756,-3.2925,-3.3754,-3.4543,-3.5166,-3.5489,-3.5489,-3.5489,-3.5489,-3.5489,-2.1102,-2.1102,-2.1102,-2.0969,-2.1128,-2.3207,-2.4224,-2.4718,-2.6865,-2.7736,-2.8301,-2.8301,-2.8301,-2.8301,-2.8301,-2.8301,-2.8301,-2.8301,-2.8301,-2.8301,-2.8301,-2.8271,-2.8115,-2.7734,-2.7317,-2.6572,-2.6113,-2.583,-2.5713,-2.5684,-2.5684,-2.5684,-2.5684,-2.5684,-2.5684,-2.5684,-2.5684,-2.5684,-2.5684,-2.5674,-2.5615,-2.5361,-2.5518,-2.5711,-2.6067,-2.6312,-2.6658,-2.6265,-2.5581,-2.5391,-2.5326,-2.6953,-2.8831,-2.9573,-2.9702,-2.9702,-2.9779,-2.9779,-2.9779,-2.9779,-2.9779,-2.9779,-2.9779,-2.9779,-2.9779,-2.9779,-2.9779,-2.9779,-2.9779,-2.9779,-2.9779,-2.9779,-2.9779,-2.9779,-2.9779,-2.9779,-2.9779,-2.9779,-2.9779,-2.9779,-2.9779,-2.9779,-2.9779,-2.9779,-2.9779,-2.9779,-2.9779,-2.9779,-2.9779,-2.9779,-2.9779,-2.9779,-2.9779,-2.9779,-2.9779,-2.9779,-2.9779,-2.9779,-2.9779,-2.9779,-2.9779,-2.9779,-2.9856,-3.0113,-3.0709,-3.1659,-3.2571,-3.3359,-3.4192,-3.51,-3.5489,-3.5489,-3.5489,-3.5489,-3.5489,-2.1102,-2.1102,-2.1102,-2.1076,-2.12,-2.2367,-2.354,-2.4713,-2.5956,-2.7168,-2.8174,-2.8301,-2.8301,-2.8301,-2.8301,-2.8301,-2.8301,-2.8301,-2.8301,-2.8301,-2.8301,-2.8301,-2.8213,-2.793,-2.764,-2.7346,-2.6719,-2.6182,-2.5801,-2.5684,-2.5684,-2.5684,-2.5684,-2.5684,-2.5684,-2.5684,-2.5684,-2.5684,-2.5684,-2.5684,-2.5645,-2.5605,-2.5477,-2.5535,-2.586,-2.6281,-2.6381,-2.6628,-2.715,-2.7962,-2.7743,-2.8339,-2.9194,-2.8934,-2.8976,-2.9573,-2.9779,-2.9779,-2.9779,-2.9779,-2.9779,-2.9779,-2.9779,-2.9779,-2.9779,-2.9779,-2.9779,-2.9779,-2.9779,-2.9779,-2.9779,-2.9779,-2.9779,-2.9779,-2.9779,-2.9779,-2.9779,-2.9779,-2.9779,-2.9779,-2.9779,-2.9779,-2.9779,-2.9779,-2.9779,-2.9779,-2.9779,-2.9779,-2.9779,-2.9779,-2.9779,-2.9779,-2.9779,-2.9779,-2.9779,-2.9779,-2.9779,-2.9779,-2.9779,-2.9779,-2.9779,-2.9779,-2.9895,-3.0037,-3.0432,-3.1132,-3.201,-3.3031,-3.4075,-3.51,-3.5344,-3.5489,-3.5489,-3.5489,-3.5489,-2.1102,-2.1102,-2.1102,-2.1102,-2.1247,-2.21,-2.2884,-2.3763,-2.5332,-2.649,-2.7222,-2.7897,-2.8301,-2.8301,-2.8301,-2.8301,-2.8301,-2.8301,-2.8301,-2.8301,-2.8301,-2.8301,-2.8301,-2.8047,-2.7851,-2.7617,-2.7197,-2.666,-2.6103,-2.5781,-2.5713,-2.5684,-2.5684,-2.5684,-2.5684,-2.5684,-2.5684,-2.5684,-2.5684,-2.5684,-2.5684,-2.5684,-2.5576,-2.5631,-2.5687,-2.5997,-2.6358,-2.5695,-2.6584,-2.764,-2.7226,-2.7812,-2.8562,-2.8846,-2.8648,-2.9534,-2.9779,-2.9779,-2.9779,-2.9779,-2.9779,-2.9779,-2.9779,-2.9779,-2.9779,-2.9779,-2.9779,-2.9779,-2.9779,-2.9779,-2.9779,-2.9779,-2.9779,-2.9779,-2.9779,-2.9779,-2.9779,-2.9779,-2.9779,-2.9779,-2.9779,-2.9779,-2.9779,-2.9779,-2.9779,-2.9779,-2.9779,-2.9779,-2.9779,-2.9779,-2.9779,-2.9779,-2.9779,-2.9779,-2.9779,-2.9779,-2.9779,-2.9779,-2.9779,-2.9779,-2.9779,-2.9779,-2.9779,-2.9856,-3.0317,-3.0945,-3.201,-3.322,-3.4192,-3.5034,-3.5311,-3.5489,-3.5489,-3.5489,-3.5489,-2.1102,-2.1102,-2.1102,-2.1102,-2.126,-2.21,-2.2483,-2.2984,-2.51,-2.6091,-2.6318,-2.7565,-2.8301,-2.8301,-2.8301,-2.8301,-2.8301,-2.8301,-2.8301,-2.8301,-2.8301,-2.8301,-2.8301,-2.8262,-2.8115,-2.7881,-2.7617,-2.7268,-2.6426,-2.6064,-2.5859,-2.5703,-2.5684,-2.5684,-2.5684,-2.5684,-2.5684,-2.5684,-2.5684,-2.5684,-2.5684,-2.5684,-2.5684,-2.5674,-2.5391,-2.567,-2.6164,-2.5398,-2.5863,-2.6807,-2.6944,-2.6948,-2.8439,-2.869,-2.898,-2.9636,-2.9779,-2.9779,-2.9779,-2.9779,-2.9779,-2.9779,-2.9779,-2.9779,-2.9779,-2.9779,-2.9779,-2.9779,-2.9779,-2.9779,-2.9779,-2.9779,-2.9779,-2.9779,-2.9779,-2.9779,-2.9779,-2.9779,-2.9779,-2.9779,-2.9779,-2.9779,-2.9779,-2.9779,-2.9779,-2.9779,-2.9779,-2.9779,-2.9779,-2.9779,-2.9779,-2.9779,-2.9779,-2.9779,-2.9779,-2.9779,-2.9779,-2.9779,-2.9779,-2.9779,-2.9779,-2.9779,-2.9779,-2.9818,-3.0545,-3.1291,-3.2357,-3.3101,-3.3788,-3.4442,-3.51,-3.5457,-3.5489,-3.5489,-3.5489,-2.1102,-2.1102,-2.1102,-2.1102,-2.1204,-2.204,-2.2476,-2.2742,-2.4867,-2.61,-2.5982,-2.7501,-2.8184,-2.8301,-2.8301,-2.8301,-2.8301,-2.8301,-2.8301,-2.8301,-2.8301,-2.8301,-2.8301,-2.8301,-2.8262,-2.8096,-2.7842,-2.7187,-2.6631,-2.6377,-2.6094,-2.581,-2.5713,-2.5684,-2.5684,-2.5684,-2.5684,-2.5684,-2.5684,-2.5684,-2.5684,-2.5684,-2.5684,-2.5664,-2.5654,-2.5682,-2.5854,-2.5338,-2.5778,-2.6739,-2.7403,-2.7906,-2.8811,-2.9852,-2.993,-2.9916,-2.9779,-2.9779,-2.9779,-2.9779,-2.9779,-2.9779,-2.9779,-2.9779,-2.9779,-2.9779,-2.9779,-2.9779,-2.9779,-2.9779,-2.9779,-2.9779,-2.9779,-2.9779,-2.9779,-2.9779,-2.9779,-2.9779,-2.9779,-2.9779,-2.9779,-2.9779,-2.9779,-2.9779,-2.9779,-2.9779,-2.9779,-2.9779,-2.9779,-2.9779,-2.9779,-2.9779,-2.9779,-2.9779,-2.9779,-2.9779,-2.9779,-2.9779,-2.9779,-2.9779,-2.9779,-2.9779,-2.9779,-2.9985,-3.0683,-3.118,-3.1756,-3.2429,-3.3171,-3.4109,-3.51,-3.5424,-3.5489,-3.5489,-3.5489,-2.1102,-2.1102,-2.1102,-2.1102,-2.1092,-2.1202,-2.1173,-2.151,-2.2845,-2.4044,-2.4986,-2.64,-2.7466,-2.8077,-2.8301,-2.8301,-2.8301,-2.8301,-2.8301,-2.8301,-2.8301,-2.8301,-2.8301,-2.8301,-2.8301,-2.8242,-2.8086,-2.7783,-2.7158,-2.6621,-2.626,-2.6123,-2.582,-2.5684,-2.5723,-2.5693,-2.5684,-2.5684,-2.5684,-2.5684,-2.5684,-2.5684,-2.5684,-2.5684,-2.5684,-2.5684,-2.5635,-2.5596,-2.6052,-2.6921,-2.7361,-2.77,-2.8523,-2.9189,-2.9436,-2.9318,-2.9605,-2.9765,-2.9779,-2.9804,-2.9779,-2.9779,-2.9779,-2.9779,-2.9779,-2.9779,-2.9779,-2.9779,-2.9779,-2.9779,-2.9779,-2.9779,-2.9779,-2.9779,-2.9779,-2.9779,-2.9779,-2.9779,-2.9779,-2.9779,-2.9779,-2.9779,-2.9779,-2.9779,-2.9779,-2.9779,-2.9779,-2.9779,-2.9779,-2.9779,-2.9779,-2.9779,-2.9779,-2.9779,-2.9779,-2.9779,-2.9779,-2.9779,-2.9779,-2.9779,-2.9779,-2.9779,-2.9779,-2.9792,-3.0139,-3.0633,-3.1156,-3.2285,-3.3533,-3.4394,-3.5213,-3.5359,-3.5489,-3.5489,-3.5489,-2.1102,-2.1102,-2.1102,-2.1102,-2.1049,-2.0481,-2.0234,-2.0335,-2.1307,-2.2258,-2.3543,-2.5223,-2.6789,-2.7672,-2.8067,-2.8301,-2.8301,-2.8301,-2.8301,-2.8301,-2.8301,-2.8301,-2.8301,-2.8301,-2.8301,-2.8301,-2.8262,-2.8057,-2.7685,-2.7178,-2.6738,-2.6533,-2.6152,-2.5967,-2.5889,-2.5752,-2.5684,-2.5684,-2.5684,-2.5684,-2.5684,-2.5684,-2.5684,-2.5684,-2.5684,-2.5684,-2.5684,-2.5664,-2.6264,-2.6642,-2.7123,-2.7476,-2.7998,-2.8551,-2.9016,-2.9148,-2.9565,-2.9975,-3.0049,-3.0068,-2.9842,-2.9779,-2.9779,-2.9779,-2.9779,-2.9779,-2.9779,-2.9779,-2.9779,-2.9779,-2.9779,-2.9779,-2.9779,-2.9779,-2.9779,-2.9779,-2.9779,-2.9779,-2.9779,-2.9779,-2.9779,-2.9779,-2.9779,-2.9779,-2.9779,-2.9779,-2.9779,-2.9779,-2.9779,-2.9779,-2.9779,-2.9779,-2.9779,-2.9779,-2.9779,-2.9779,-2.9779,-2.9779,-2.9779,-2.9779,-2.9779,-2.9779,-2.9779,-2.983,-2.9908,-3.0784,-3.1756,-3.2855,-3.3925,-3.4428,-3.4905,-3.5311,-3.5489,-3.5489,-3.5489,-2.1102,-2.1102,-2.1102,-2.1102,-2.1069,-2.0481,-2.0173,-2.0234,-2.1133,-2.1593,-2.2307,-2.4599,-2.5991,-2.6545,-2.7447,-2.8067,-2.8237,-2.8291,-2.8301,-2.8301,-2.8301,-2.8301,-2.8301,-2.8301,-2.8301,-2.8301,-2.8301,-2.8271,-2.8144,-2.7744,-2.7314,-2.6963,-2.6494,-2.6377,-2.6182,-2.5869,-2.5703,-2.5684,-2.5684,-2.5684,-2.5684,-2.5684,-2.5684,-2.5684,-2.5684,-2.5684,-2.5684,-2.5684,-2.5771,-2.61,-2.67,-2.6941,-2.7129,-2.7875,-2.847,-2.8866,-2.9152,-2.9641,-3.0037,-3.0134,-2.988,-2.9804,-2.9792,-2.9829,-2.993,-2.9854,-2.9817,-2.988,-2.9942,-2.9842,-2.9829,-2.9779,-2.9779,-2.9779,-2.9779,-2.9779,-2.9779,-2.9779,-2.9779,-2.9779,-2.9779,-2.9779,-2.9779,-2.9779,-2.9779,-2.9779,-2.9779,-2.9779,-2.9779,-2.9779,-2.9779,-2.9779,-2.9779,-2.9779,-2.9779,-2.9779,-2.9779,-2.9779,-2.9779,-2.9779,-2.9779,-2.9779,-2.9779,-3.0037,-3.0241,-3.1267,-3.2213,-3.3066,-3.3754,-3.4177,-3.4643,-3.5231,-3.5489,-3.5489,-3.5489,-2.1102,-2.1102,-2.1102,-2.1102,-2.1069,-2.0481,-2.0173,-2.0194,-2.0244,-2.0809,-2.1699,-2.3702,-2.471,-2.5105,-2.6218,-2.6943,-2.7105,-2.8014,-2.8184,-2.8291,-2.8301,-2.8301,-2.8301,-2.8301,-2.8301,-2.8301,-2.8301,-2.8301,-2.8252,-2.8076,-2.8027,-2.7607,-2.6894,-2.6484,-2.624,-2.5996,-2.5732,-2.5684,-2.5684,-2.5684,-2.5684,-2.5684,-2.5684,-2.5684,-2.5684,-2.5684,-2.5684,-2.5684,-2.5684,-2.582,-2.6245,-2.624,-2.6259,-2.71,-2.7634,-2.8055,-2.8394,-2.8981,-2.9545,-2.985,-3.0154,-2.9817,-2.9804,-2.9955,-3.0244,-3.0294,-3.0306,-3.0306,-3.0281,-3.0231,-2.9854,-2.9804,-2.9779,-2.9779,-2.9779,-2.9779,-2.9779,-2.9779,-2.9779,-2.9779,-2.9779,-2.9779,-2.9779,-2.9779,-2.9779,-2.9779,-2.9779,-2.9779,-2.9779,-2.9779,-2.9779,-2.9779,-2.9779,-2.9779,-2.9779,-2.9779,-2.9779,-2.9779,-2.9779,-2.9779,-2.9779,-2.9779,-2.9856,-3.0139,-3.0558,-3.1439,-3.2285,-3.3031,-3.3788,-3.4543,-3.5019,-3.5377,-3.5489,-3.5489,-3.5489,-2.1102,-2.1102,-2.1102,-2.1102,-2.1029,-2.0481,-2.0173,-2.0134,-1.9671,-1.9924,-2.1031,-2.242,-2.3151,-2.3535,-2.471,-2.5818,-2.6327,-2.7105,-2.7833,-2.8121,-2.8301,-2.8301,-2.8301,-2.8301,-2.8301,-2.8301,-2.8301,-2.8301,-2.8301,-2.8301,-2.8232,-2.792,-2.7344,-2.6875,-2.6475,-2.6025,-2.5693,-2.5684,-2.5684,-2.5684,-2.5684,-2.5684,-2.5684,-2.5684,-2.5684,-2.5684,-2.5684,-2.5684,-2.5684,-2.5684,-2.5771,-2.5732,-2.5895,-2.6119,-2.6568,-2.7098,-2.7657,-2.8221,-2.895,-2.9391,-3.0335,-3.0378,-3.0369,-3.0557,-3.0721,-3.0846,-3.0846,-3.0846,-3.0821,-3.067,-3.0218,-3.0244,-3.0156,-3.0168,-2.9842,-2.9779,-2.9779,-2.9779,-2.9779,-2.9779,-2.9779,-2.9779,-2.9779,-2.9779,-2.9779,-2.9779,-2.9779,-2.9779,-2.9779,-2.9779,-2.9779,-2.9779,-2.9779,-2.9779,-2.9779,-2.9779,-2.9779,-2.9779,-2.9779,-2.9779,-2.9779,-2.9779,-2.9818,-2.996,-3.057,-3.1513,-3.2357,-3.3185,-3.4192,-3.5213,-3.5424,-3.5489,-3.5489,-3.5489,-3.5489,-2.1102,-2.1102,-2.1102,-2.1102,-2.1042,-2.042,-2.0173,-2.01,-1.9626,-1.9482,-1.9809,-2.1095,-2.1643,-2.1975,-2.3199,-2.4322,-2.5426,-2.6045,-2.6879,-2.7726,-2.8184,-2.8237,-2.8301,-2.8301,-2.8301,-2.8301,-2.8301,-2.8301,-2.8301,-2.8301,-2.8301,-2.8184,-2.7715,-2.7266,-2.6943,-2.6113,-2.5723,-2.5693,-2.5723,-2.5684,-2.5684,-2.5684,-2.5684,-2.5684,-2.5684,-2.5684,-2.5684,-2.5684,-2.5684,-2.5684,-2.5684,-2.5684,-2.5742,-2.5771,-2.627,-2.7191,-2.8283,-2.9443,-3.0746,-3.0091,-3.0354,-3.0998,-3.0984,-3.1173,-3.1323,-3.1386,-3.1386,-3.1386,-3.1373,-3.1348,-3.1135,-3.0909,-3.0696,-3.0482,-3.0181,-2.9942,-2.9967,-2.9779,-2.9779,-2.9779,-2.9779,-2.9779,-2.9779,-2.9779,-2.9779,-2.9779,-2.9779,-2.9779,-2.9779,-2.9779,-2.9779,-2.9779,-2.9779,-2.9779,-2.9779,-2.9779,-2.9779,-2.9779,-2.9779,-2.9779,-2.9779,-2.9779,-2.983,-2.9908,-3.0784,-3.1901,-3.2642,-3.3394,-3.4442,-3.5392,-3.5457,-3.5489,-3.5489,-3.5489,-3.5489,-2.1102,-2.1102,-2.1102,-2.1102,-2.1022,-2.0481,-2.0173,-2.0134,-1.9653,-1.9424,-1.9482,-2.0033,-2.0148,-2.0594,-2.1586,-2.2702,-2.3367,-2.57,-2.6653,-2.6825,-2.7672,-2.8237,-2.8291,-2.8237,-2.8291,-2.8301,-2.8301,-2.8301,-2.8301,-2.8301,-2.8301,-2.8193,-2.792,-2.7451,-2.6992,-2.6445,-2.6172,-2.6113,-2.5888,-2.5684,-2.5684,-2.5684,-2.5684,-2.5684,-2.5684,-2.5684,-2.5684,-2.5684,-2.5684,-2.5684,-2.5684,-2.5684,-2.5684,-2.5684,-2.5917,-2.639,-2.703,-2.7945,-2.9556,-3.0164,-3.0882,-3.1298,-3.1499,-3.1662,-3.1851,-3.1926,-3.1938,-3.1938,-3.1951,-3.1813,-3.1386,-3.1273,-3.111,-3.1022,-3.0758,-3.0482,-3.0319,-2.9967,-2.9779,-2.9779,-2.9779,-2.9779,-2.9779,-2.9779,-2.9779,-2.9779,-2.9779,-2.9779,-2.9779,-2.9779,-2.9779,-2.9779,-2.9779,-2.9779,-2.9779,-2.9779,-2.9779,-2.9779,-2.9779,-2.9779,-2.9779,-2.9779,-2.9779,-2.983,-3.1057,-3.2285,-3.3115,-3.3973,-3.4773,-3.5407,-3.5457,-3.5489,-3.5489,-3.5489,-3.5489,-2.1102,-2.1102,-2.1102,-2.1102,-2.1029,-2.0588,-2.0294,-2.0034,-1.9586,-1.9424,-1.9424,-1.9424,-1.9482,-1.9758,-2.0307,-2.1309,-2.1749,-2.3423,-2.5096,-2.538,-2.6834,-2.7286,-2.7555,-2.8067,-2.8291,-2.8301,-2.8301,-2.8301,-2.8301,-2.8301,-2.8301,-2.8223,-2.8027,-2.7822,-2.7363,-2.6904,-2.6348,-2.623,-2.5996,-2.5684,-2.5684,-2.5684,-2.5684,-2.5684,-2.5684,-2.5684,-2.5684,-2.5684,-2.5684,-2.5684,-2.5684,-2.5684,-2.5684,-2.5684,-2.5684,-2.5732,-2.638,-2.7662,-2.9704,-3.0652,-3.1361,-3.2039,-3.1989,-3.2139,-3.2428,-3.2503,-3.2516,-3.2528,-3.2503,-3.2315,-3.2068,-3.193,-3.165,-3.1562,-3.1273,-3.0984,-3.0583,-3.0231,-2.9955,-2.993,-2.9792,-2.9792,-2.9779,-2.9779,-2.9779,-2.9779,-2.9779,-2.9779,-2.9779,-2.9779,-2.9779,-2.9779,-2.9779,-2.9779,-2.9779,-2.9779,-2.9779,-2.9779,-2.9779,-2.9779,-2.9779,-2.9779,-2.9779,-2.9998,-3.1304,-3.255,-3.3665,-3.4572,-3.518,-3.5439,-3.5457,-3.5489,-3.5489,-3.5489,-3.5489,-2.1102,-2.1102,-2.1102,-2.1102,-2.1056,-2.0768,-2.0341,-1.98,-1.9551,-1.9424,-1.9424,-1.9424,-1.9424,-1.9424,-1.9482,-2.0199,-2.1252,-2.1805,-2.2758,-2.3877,-2.5325,-2.5818,-2.6662,-2.7447,-2.7897,-2.8184,-2.8301,-2.8301,-2.8301,-2.8301,-2.8301,-2.8301,-2.8223,-2.8115,-2.7764,-2.7226,-2.666,-2.6455,-2.6133,-2.582,-2.5723,-2.5684,-2.5684,-2.5684,-2.5684,-2.5684,-2.5684,-2.5684,-2.5684,-2.5684,-2.5684,-2.5684,-2.5684,-2.5684,-2.5684,-2.6004,-2.6791,-2.8588,-2.9954,-3.0541,-3.1577,-3.2259,-3.2782,-3.3006,-3.3023,-3.296,-3.2893,-3.2905,-3.2893,-3.2998,-3.296,-3.2579,-3.224,-3.2001,-3.1712,-3.1348,-3.0922,-3.0583,-3.0294,-3.0105,-2.988,-2.9804,-2.9792,-2.9779,-2.9779,-2.9779,-2.9779,-2.9779,-2.9779,-2.9779,-2.9779,-2.9779,-2.9779,-2.9779,-2.9779,-2.9779,-2.9779,-2.9779,-2.9779,-2.9779,-2.9779,-2.9779,-2.9779,-3.0241,-3.1586,-3.2869,-3.424,-3.4968,-3.5311,-3.5489,-3.5489,-3.5489,-3.5489,-3.5489,-3.5489,-2.1102,-2.1102,-2.1102,-2.1102,-2.1062,-2.0795,-2.0341,-1.98,-1.9492,-1.9424,-1.9424,-1.9424,-1.9424,-1.9424,-1.9424,-1.97,-2.0314,-2.1031,-2.1692,-2.2702,-2.3766,-2.4986,-2.5927,-2.6599,-2.734,-2.8014,-2.8301,-2.8301,-2.8301,-2.8301,-2.8301,-2.8301,-2.8301,-2.8301,-2.8066,-2.7679,-2.7197,-2.6748,-2.6348,-2.6025,-2.5752,-2.5684,-2.5684,-2.5684,-2.5684,-2.5684,-2.5684,-2.5684,-2.5684,-2.5684,-2.5684,-2.5684,-2.5684,-2.5684,-2.5732,-2.582,-2.6802,-2.7992,-2.8773,-3.0226,-3.1356,-3.1909,-3.2513,-3.3025,-3.3124,-3.3124,-3.3124,-3.3124,-3.3124,-3.3124,-3.3124,-3.2855,-3.2679,-3.2516,-3.2202,-3.1825,-3.1386,-3.0909,-3.0608,-3.0181,-2.9955,-2.9804,-2.9779,-2.9779,-2.9779,-2.9779,-2.9779,-2.9779,-2.9779,-2.9779,-2.9779,-2.9779,-2.9779,-2.9779,-2.9779,-2.9779,-2.9779,-2.9779,-2.9779,-2.9779,-2.9779,-2.9779,-2.9779,-3.0495,-3.1756,-3.3374,-3.5034,-3.5439,-3.5489,-3.5489,-3.5489,-3.5489,-3.5489,-3.5489,-3.5489,-2.1102,-2.1102,-2.1102,-2.1102,-2.1036,-2.0668,-2.0274,-1.9947,-1.9659,-1.9486,-1.943,-1.9424,-1.9424,-1.9424,-1.9424,-1.9482,-1.9533,-2.0148,-2.0702,-2.1038,-2.2258,-2.3646,-2.4765,-2.5873,-2.7051,-2.778,-2.8291,-2.8301,-2.8301,-2.8301,-2.8301,-2.8301,-2.8301,-2.8301,-2.8193,-2.7969,-2.7568,-2.706,-2.6582,-2.6182,-2.5859,-2.5684,-2.5684,-2.5684,-2.5684,-2.5684,-2.5684,-2.5684,-2.5684,-2.5684,-2.5684,-2.5684,-2.5684,-2.5684,-2.5684,-2.582,-2.6245,-2.7125,-2.7908,-2.8866,-3.0045,-3.1089,-3.1865,-3.2481,-3.2939,-3.3124,-3.3124,-3.3124,-3.3124,-3.3124,-3.3124,-3.3111,-3.3111,-3.3086,-3.2704,-3.2353,-3.1825,-3.1286,-3.0809,-3.0319,-3.0043,-2.9854,-2.9779,-2.9779,-2.9779,-2.9779,-2.9779,-2.9779,-2.9779,-2.9779,-2.9779,-2.9779,-2.9779,-2.9779,-2.9779,-2.9779,-2.9779,-2.9779,-2.9779,-2.9779,-2.9779,-2.9998,-3.0177,-3.0908,-3.1938,-3.3547,-3.518,-3.5392,-3.5489,-3.5489,-3.5489,-3.5489,-3.5489,-3.5489,-3.5489,-2.1102,-2.1102,-2.1102,-2.1082,-2.0995,-2.0514,-2.0254,-2.0174,-1.9873,-1.9633,-1.9464,-1.9424,-1.9424,-1.9424,-1.9424,-1.9424,-1.9424,-1.9707,-1.9815,-1.9482,-2.0759,-2.2209,-2.3654,-2.4986,-2.5927,-2.733,-2.8067,-2.7843,-2.8237,-2.8301,-2.8301,-2.8301,-2.8301,-2.8301,-2.8271,-2.8232,-2.7842,-2.7246,-2.6738,-2.6299,-2.584,-2.5684,-2.5684,-2.5684,-2.5684,-2.5684,-2.5684,-2.5684,-2.5684,-2.5684,-2.5684,-2.5684,-2.5684,-2.5684,-2.5684,-2.5732,-2.5917,-2.6342,-2.703,-2.7861,-2.8958,-3.0045,-3.1045,-3.1689,-3.2152,-3.2939,-3.3081,-3.3124,-3.3124,-3.3124,-3.3124,-3.3124,-3.3124,-3.3124,-3.2935,-3.2604,-3.2227,-3.1574,-3.0859,-3.0369,-2.9942,-2.9779,-2.9779,-2.9779,-2.9779,-2.9779,-2.9779,-2.9779,-2.9779,-2.9779,-2.9779,-2.9779,-2.9779,-2.9779,-2.9779,-2.9779,-2.9779,-2.9779,-2.9779,-2.9779,-2.9779,-3.0139,-3.0595,-3.1549,-3.2536,-3.3685,-3.4905,-3.5231,-3.5489,-3.5489,-3.5489,-3.5489,-3.5489,-3.5489,-3.5489,-2.1102,-2.1102,-2.1102,-2.0982,-2.0775,-2.0628,-2.0301,-1.9913,-1.984,-1.9633,-1.9406,-1.9424,-1.9424,-1.9424,-1.9424,-1.9424,-1.9424,-1.9424,-1.9424,-1.9424,-2.004,-2.1038,-2.1975,-2.3031,-2.448,-2.5873,-2.6771,-2.7447,-2.8121,-2.8301,-2.8301,-2.8301,-2.8301,-2.8301,-2.8301,-2.8291,-2.7978,-2.7422,-2.706,-2.6504,-2.5918,-2.5732,-2.5684,-2.5684,-2.5684,-2.5684,-2.5684,-2.5684,-2.5684,-2.5684,-2.5684,-2.5684,-2.5684,-2.5684,-2.5684,-2.5684,-2.5684,-2.6014,-2.6332,-2.6982,-2.7955,-2.8552,-2.9407,-3.0451,-3.1412,-3.2469,-3.3025,-3.3038,-3.3124,-3.3124,-3.3124,-3.3124,-3.3124,-3.3124,-3.3099,-3.286,-3.2583,-3.17,-3.0871,-3.0369,-2.9892,-2.9779,-2.9779,-2.9779,-2.9779,-2.9779,-2.9779,-2.9779,-2.9779,-2.9779,-2.9779,-2.9779,-2.9779,-2.9779,-2.9779,-2.9779,-2.9779,-2.9779,-2.9779,-2.9779,-2.9779,-3.0381,-3.102,-3.2155,-3.322,-3.4192,-3.4905,-3.5311,-3.5489,-3.5489,-3.5489,-3.5489,-3.5489,-3.5489,-3.5489,-2.1102,-2.1102,-2.1102,-2.0942,-2.0681,-2.0541,-2.0214,-1.9826,-1.9666,-1.9519,-1.9379,-1.9424,-1.9424,-1.9424,-1.9424,-1.9424,-1.9424,-1.9424,-1.9424,-1.9424,-1.9591,-2.0486,-2.1031,-2.1586,-2.3813,-2.5434,-2.6771,-2.7672,-2.8184,-2.8301,-2.8301,-2.8301,-2.8301,-2.8301,-2.8301,-2.8262,-2.8086,-2.7656,-2.7402,-2.6924,-2.624,-2.5957,-2.5723,-2.5684,-2.5684,-2.5684,-2.5684,-2.5684,-2.5684,-2.5684,-2.5684,-2.5684,-2.5684,-2.5684,-2.5684,-2.5684,-2.5684,-2.5684,-2.5917,-2.6342,-2.7088,-2.7636,-2.8002,-2.9177,-3.009,-3.1101,-3.2152,-3.2295,-3.2982,-3.3124,-3.3124,-3.3124,-3.3124,-3.3124,-3.3011,-3.2822,-3.2001,-3.1022,-3.0457,-3.0068,-2.9779,-2.9779,-2.9779,-2.9779,-2.9779,-2.9779,-2.9779,-2.9779,-2.9779,-2.9779,-2.9779,-2.9779,-2.9779,-2.9779,-2.9779,-2.9779,-2.9779,-2.9779,-2.9779,-2.9779,-2.9895,-3.0658,-3.1513,-3.2429,-3.3359,-3.4293,-3.4938,-3.5344,-3.5489,-3.5489,-3.5489,-3.5489,-3.5489,-3.5489,-3.5489,-2.1102,-2.1102,-2.1102,-2.0915,-2.0608,-2.0354,-2.0047,-1.9733,-1.9479,-1.9437,-1.943,-1.9424,-1.9424,-1.9424,-1.9424,-1.9424,-1.9424,-1.9424,-1.9424,-1.9424,-1.9424,-1.9982,-2.0587,-2.1358,-2.3151,-2.527,-2.7105,-2.778,-2.8291,-2.8301,-2.8301,-2.8301,-2.8301,-2.8301,-2.8301,-2.8262,-2.8115,-2.7871,-2.7637,-2.7441,-2.6894,-2.6299,-2.5947,-2.5791,-2.5713,-2.5693,-2.5684,-2.5684,-2.5684,-2.5684,-2.5684,-2.5684,-2.5684,-2.5684,-2.5684,-2.5684,-2.5684,-2.5684,-2.5732,-2.582,-2.6476,-2.6993,-2.7268,-2.7861,-2.8866,-2.9692,-3.0687,-3.1557,-3.2295,-3.2896,-3.2896,-3.3124,-3.3124,-3.3099,-3.296,-3.2629,-3.1587,-3.0633,-3.0281,-2.9917,-2.9779,-2.9779,-2.9779,-2.9779,-2.9779,-2.9779,-2.9779,-2.9779,-2.9779,-2.9779,-2.9779,-2.9779,-2.9779,-2.9779,-2.9779,-2.9779,-2.9779,-2.9779,-2.9779,-2.9779,-2.9998,-3.0696,-3.1499,-3.2429,-3.3394,-3.4327,-3.4986,-3.5424,-3.5489,-3.5489,-3.5489,-3.5489,-3.5489,-3.5489,-3.5489,-2.1102,-2.1102,-2.1102,-2.0808,-2.0354,-2.0247,-1.9933,-1.9492,-1.9464,-1.9424,-1.9424,-1.9424,-1.9424,-1.9424,-1.9424,-1.9424,-1.9424,-1.9424,-1.9424,-1.9424,-1.9424,-1.9649,-1.9982,-2.0644,-2.187,-2.4156,-2.6726,-2.8067,-2.8291,-2.8301,-2.8301,-2.8301,-2.8301,-2.8301,-2.8301,-2.8271,-2.8232,-2.8037,-2.7914,-2.7699,-2.7402,-2.6865,-2.6377,-2.6143,-2.5879,-2.5762,-2.5684,-2.5684,-2.5684,-2.5684,-2.5684,-2.5684,-2.5684,-2.5684,-2.5684,-2.5684,-2.5684,-2.5684,-2.5684,-2.5684,-2.6197,-2.6197,-2.6476,-2.6754,-2.7542,-2.7955,-2.8958,-2.9954,-3.0822,-3.1965,-3.2283,-3.2927,-3.3068,-3.3061,-3.296,-3.2328,-3.1512,-3.0997,-3.0608,-3.0156,-2.9779,-2.9779,-2.9779,-2.9779,-2.9779,-2.9779,-2.9779,-2.9779,-2.9779,-2.9779,-2.9779,-2.9779,-2.9779,-2.9779,-2.9779,-2.9779,-2.9779,-2.9779,-2.9779,-2.9779,-3.0062,-3.0658,-3.1499,-3.2429,-3.3394,-3.4327,-3.4905,-3.5489,-3.5489,-3.5489,-3.5489,-3.5489,-3.5489,-3.5489,-3.5489]}]]